[[{"header":{"parameterUnit":"m.s-1","parameterCategory":1,"la1":31.0,"la2":29.5877,"lo1":-88.7671,"lo2":-86.6584,"dy":0.0162,"dx":0.0185,"nx":115,"ny":88,"refTime":"2023-04-19T12:00:00:Z","depth":0,"parameterNumber":2,"parameterNumberName":"U-component_of_WINDS"},"data":[0.0,0.0,0.0,0.0,0.0,0.0,0.0,0.0,0.0,0.0,0.0,0.0,0.0,0.0,0.0,0.0,0.0,0.0,0.0,0.0,0.0,0.0,0.0,0.0,0.0,0.0,0.0,0.0,0.0,0.0,0.0,0.0,0.0,0.0,0.0,0.0,0.0,0.0,0.0,0.0,0.0,0.0,0.0,0.0,0.0,0.0,0.0,0.0,0.0,0.0,0.0,0.0,0.0,0.0,0.0,0.0,0.0,0.0,0.0,0.0,0.0,0.0,0.0,0.0,0.0,0.0,0.0,0.0,0.0,0.0,0.0,0.0,0.0,0.0,0.0,0.0,0.0,0.0,0.0,0.0,0.0,0.0,0.0,0.0,0.0,0.0,0.0,0.0,0.0,0.0,0.0,0.0,0.0,0.0,0.0,0.0,0.0,0.0,0.0,0.0,0.0,0.0,0.0,0.0,0.0,0.0,0.0,0.0,0.0,0.0,0.0,0.0,0.0,0.0,0.0,0.0,0.0,0.0,0.0,0.0,0.0,0.0,0.0,0.0,0.0,0.0,0.0,0.0,0.0,0.0,0.0,0.0,0.0,0.0,0.0,0.0,0.0,0.0,0.0,0.0,0.0,0.0,0.0,0.0,0.0,0.0,0.0,0.0,0.0,0.0,0.0,0.0,0.0,0.0,0.0,0.0,0.0,0.0,0.0,0.0,0.0,0.0,0.0,0.0,0.0,0.0,0.0,0.0,0.0,0.0,0.0,0.0,0.0,0.0,0.0,0.0,0.0,0.0,0.0,0.0,0.0,0.0,0.0,0.0,0.0,0.0,0.0,0.0,0.0,0.0,0.0,0.0,0.0,0.0,0.0,0.0,0.0,0.0,0.0,0.0,0.0,0.0,0.0,0.0,0.0,0.0,0.0,0.0,0.0,0.0,0.0,0.0,0.0,0.0,0.0,0.0,0.0,0.0,0.0,0.0,0.0,0.0,0.0,0.0,0.0,0.0,0.0,0.0,0.0,0.0,0.0,0.0,0.0,0.0,0.0,0.0,0.0,0.0,0.0,0.0,0.0,0.0,0.0,0.0,0.0,0.0,0.0,0.0,0.0,0.0,0.0,0.0,0.0,0.0,0.0,0.0,0.0,0.0,0.0,0.0,0.0,0.0,0.0,0.0,0.0,0.0,0.0,0.0,0.0,0.0,0.0,0.0,0.0,0.0,0.0,0.0,0.0,0.0,0.0,0.0,0.0,0.0,0.0,0.0,0.0,0.0,0.0,0.0,0.0,0.0,0.0,0.0,0.0,0.0,0.0,0.0,0.0,0.0,0.0,0.0,0.0,0.0,0.0,0.0,0.0,0.0,0.0,0.0,0.0,0.0,0.0,0.0,0.0,0.0,0.0,0.0,0.0,0.0,0.0,0.0,0.0,0.0,0.0,0.0,0.0,0.0,0.0,0.0,0.0,0.0,0.0,0.0,0.0,0.0,0.0,0.0,0.0,0.0,0.0,0.0,0.0,0.0,0.0,0.0,0.0,0.0,0.0,0.0,0.0,0.0,0.0,0.0,0.0,0.0,0.0,0.0,0.0,0.0,0.0,0.0,0.0,0.0,0.0,0.0,0.0,0.0,0.0,0.0,0.0,0.0,0.0,0.0,0.0,0.0,0.0,0.0,0.0,0.0,0.0,0.0,0.0,0.0,0.0,0.0,0.0,0.0,0.0,0.0,0.0,0.0,0.0,0.0,0.0,0.0,0.0,0.0,0.0,0.0,0.0,0.0,0.0,0.0,0.0,0.0,0.0,0.0,0.0,0.0,0.0,0.0,0.0,0.0,0.0,0.0,0.0,0.0,0.0,0.0,0.0,0.0,0.0,0.0,0.0,0.0,0.0,0.0,0.0,0.0,0.0,0.0,0.0,0.0,0.0,0.0,0.0,0.0,0.0,0.0,0.0,0.0,0.0,0.0,0.0,0.0,0.0,0.0,0.0,0.0,0.0,0.0,0.0,0.0,0.0,0.0,0.0,0.0,0.0,0.0,0.0,0.0,0.0,0.0,0.0,0.0,0.0,0.0,0.0,0.0,0.0,0.0,0.0,0.0,0.0,0.0,0.0,0.0,0.0,0.0,0.0,0.0,0.0,0.0,0.0,0.0,0.0,0.0,0.0,0.0,0.0,0.0,0.0,0.0,0.0,0.0,0.0,0.0,0.0,0.0,0.0,0.0,0.0,0.0,0.0,0.0,0.0,0.0,0.0,0.0,0.0,0.0,0.0,0.0,0.0,0.0,0.0,0.0,0.0,0.0,0.0,0.0,0.0,0.0,0.0,0.0,0.0,0.0,0.0,0.0,0.0,0.0,0.0,0.0,0.0,0.0,0.0,0.0,0.0,0.0,0.0,0.0,0.0,0.0,0.0,0.0,0.0,0.0,0.0,0.0,0.0,0.0,0.0,0.0,0.0,0.0,0.0,0.0,0.0,0.0,0.0,0.0,0.0,0.0,0.0,0.0,0.0,0.0,0.0,0.0,0.0,0.0,0.0,0.0,0.0,0.0,0.0,0.0,0.0,0.0,0.0,0.0,0.0,0.0,0.0,0.0,0.0,0.0,0.0,0.0,0.0,0.0,0.0,0.0,0.0,0.0,0.0,0.0,0.0,0.0,0.0,0.0,0.0,0.0,0.0,0.0,0.0,0.0,0.0,0.0,0.0,0.0,0.0,0.0,0.0,0.0,0.0,0.0,0.0,0.0,0.0,0.0,0.0,0.0,0.0,0.0,0.0,0.0,0.0,0.0,0.0,0.0,0.0,0.0,0.0,0.0,0.0,0.0,0.0,0.0,0.0,0.0,0.0,0.0,0.0,0.0,0.0,0.0,0.0,0.0,0.0,0.0,0.0,0.0,0.0,0.0,0.0,0.0,0.0,0.0,0.0,0.0,0.0,0.0,0.0,0.0,0.0,0.0,0.0,0.0,0.0,0.0,0.0,0.0,0.0,0.0,0.0,0.0,0.0,0.0,0.0,0.0,0.0,0.0,0.0,0.0,0.0,0.0,0.0,0.0,0.0,0.0,0.0,0.0,0.0,0.0,0.0,0.0,0.0,0.0,0.0,0.0,0.0,0.0,0.0,0.0,0.0,0.0,0.0,0.0,0.0,0.0,0.0,0.0,0.0,0.0,0.0,0.0,0.0,0.0,0.0,0.0,0.0,0.0,0.0,0.0,0.0,0.0,0.0,0.0,0.0,0.0,0.0,0.0,0.0,0.0,0.0,0.0,0.0,0.0,0.0,0.0,0.0,0.0,0.0,0.0,0.0,0.0,0.0,0.0,0.0,0.0,0.0,0.0,0.0,0.0,0.0,0.0,0.0,0.0,0.0,0.0,0.0,0.0,0.0,0.0,0.0,0.0,0.0,0.0,0.0,0.0,0.0,0.0,0.0,0.0,0.0,0.0,0.0,0.0,0.0,0.0,0.0,0.0,0.0,0.0,0.0,0.0,0.0,0.0,0.0,0.0,0.0,0.0,0.0,0.0,0.0,0.0,0.0,0.0,0.0,0.0,0.0,0.0,0.0,0.0,0.0,0.0,0.0,0.0,0.0,0.0,0.0,0.0,0.0,0.0,0.0,0.0,0.0,0.0,0.0,0.0,0.0,0.0,0.0,0.0,0.0,0.0,0.0,0.0,0.0,0.0,0.0,0.0,0.0,0.0,0.0,0.0,0.0,0.0,0.0,0.0,0.0,0.0,0.0,0.0,0.0,0.0,0.0,0.0,0.0,0.0,0.0,0.0,0.0,0.0,0.0,0.0,0.0,0.0,0.0,0.0,0.0,0.0,0.0,0.0,0.0,0.0,0.0,0.0,0.0,0.0,0.0,0.0,0.0,0.0,0.0,0.0,0.0,0.0,0.0,0.0,0.0,0.0,0.0,0.0,0.0,0.0,0.0,0.0,0.0,0.0,0.0,0.0,0.0,0.0,0.0,0.0,0.0,0.0,0.0,0.0,0.0,0.0,0.0,0.0,0.0,0.0,0.0,0.0,0.0,0.0,0.0,0.0,0.0,0.0,0.0,0.0,0.0,0.0,0.0,0.0,0.0,0.0,0.0,0.0,0.0,0.0,0.0,0.0,0.0,0.0,0.0,0.0,0.0,0.0,0.0,0.0,0.0,0.0,0.0,0.0,0.0,0.0,0.0,0.0,0.0,0.0,0.0,0.0,0.0,0.0,0.0,0.0,0.0,0.0,0.0,0.0,0.0,0.0,0.0,0.0,0.0,0.0,0.0,0.0,0.0,0.0,-1.8242,0.0,0.0,0.0,0.0,0.0,0.0,0.0,0.0,0.0,0.0,0.0,0.0,0.0,0.0,0.0,0.0,0.0,0.0,0.0,0.0,0.0,0.0,0.0,0.0,0.0,0.0,0.0,0.0,0.0,0.0,0.0,0.0,0.0,0.0,0.0,0.0,0.0,0.0,0.0,0.0,0.0,0.0,0.0,0.0,0.0,0.0,0.0,0.0,0.0,0.0,0.0,0.0,0.0,0.0,0.0,0.0,0.0,0.0,0.0,0.0,0.0,0.0,0.0,0.0,0.0,0.0,0.0,0.0,0.0,0.0,0.0,0.0,0.0,0.0,0.0,0.0,0.0,0.0,0.0,0.0,0.0,0.0,0.0,0.0,0.0,0.0,0.0,0.0,0.0,0.0,0.0,0.0,0.0,0.0,0.0,0.0,0.0,0.0,0.0,0.0,0.0,0.0,0.0,0.0,0.0,0.0,0.0,0.0,0.0,0.0,-1.8342,-1.8315,-1.826,-1.8197,-1.8115,0.0,0.0,0.0,0.0,0.0,0.0,0.0,0.0,0.0,0.0,0.0,0.0,0.0,0.0,0.0,0.0,0.0,0.0,0.0,0.0,0.0,0.0,0.0,0.0,0.0,0.0,0.0,0.0,0.0,0.0,0.0,0.0,0.0,0.0,0.0,0.0,0.0,0.0,0.0,0.0,0.0,0.0,0.0,0.0,0.0,0.0,0.0,0.0,0.0,0.0,0.0,0.0,0.0,0.0,0.0,0.0,0.0,0.0,0.0,0.0,0.0,0.0,0.0,0.0,0.0,0.0,0.0,0.0,0.0,0.0,0.0,0.0,0.0,0.0,0.0,0.0,0.0,0.0,0.0,0.0,0.0,0.0,0.0,0.0,0.0,0.0,0.0,0.0,0.0,0.0,0.0,0.0,0.0,0.0,0.0,0.0,0.0,0.0,0.0,0.0,0.0,0.0,0.0,0.0,0.0,0.0,0.0,0.0,0.0,0.0,0.0,0.0,-1.8595,-1.8448,-1.8245,0.0,0.0,0.0,0.0,0.0,0.0,0.0,0.0,0.0,0.0,0.0,0.0,0.0,0.0,0.0,0.0,0.0,0.0,0.0,0.0,0.0,0.0,0.0,0.0,0.0,0.0,0.0,0.0,0.0,0.0,0.0,0.0,0.0,0.0,0.0,0.0,0.0,0.0,0.0,0.0,0.0,0.0,0.0,0.0,0.0,0.0,0.0,0.0,0.0,0.0,0.0,0.0,0.0,0.0,0.0,0.0,0.0,0.0,0.0,0.0,0.0,0.0,0.0,0.0,0.0,0.0,0.0,0.0,0.0,0.0,0.0,0.0,0.0,0.0,0.0,0.0,0.0,0.0,0.0,0.0,0.0,0.0,0.0,0.0,0.0,0.0,0.0,0.0,0.0,0.0,0.0,0.0,0.0,0.0,0.0,0.0,0.0,0.0,0.0,0.0,0.0,0.0,0.0,0.0,0.0,0.0,0.0,0.0,0.0,0.0,-2.003,-2.003,-1.9996,0.0,-1.9027,0.0,0.0,0.0,0.0,0.0,0.0,0.0,0.0,0.0,0.0,0.0,0.0,0.0,0.0,0.0,0.0,0.0,0.0,0.0,0.0,0.0,0.0,0.0,0.0,0.0,0.0,0.0,0.0,0.0,0.0,0.0,0.0,0.0,0.0,0.0,0.0,0.0,0.0,0.0,0.0,0.0,0.0,0.0,0.0,0.0,0.0,0.0,0.0,0.0,0.0,0.0,0.0,0.0,0.0,0.0,0.0,0.0,0.0,0.0,0.0,0.0,0.0,0.0,0.0,0.0,0.0,0.0,0.0,0.0,0.0,0.0,0.0,0.0,0.0,0.0,0.0,0.0,0.0,0.0,0.0,0.0,0.0,0.0,0.0,0.0,0.0,0.0,0.0,0.0,0.0,0.0,0.0,0.0,0.0,0.0,0.0,0.0,0.0,0.0,0.0,0.0,0.0,0.0,0.0,0.0,0.0,0.0,0.0,0.0,0.0,-2.0139,-2.0139,-2.0102,-1.9713,0.0,0.0,0.0,0.0,0.0,0.0,0.0,0.0,0.0,0.0,0.0,0.0,0.0,0.0,0.0,0.0,0.0,0.0,0.0,0.0,0.0,0.0,0.0,0.0,0.0,0.0,0.0,0.0,0.0,0.0,0.0,0.0,0.0,0.0,0.0,0.0,0.0,0.0,0.0,0.0,0.0,0.0,0.0,0.0,0.0,0.0,0.0,0.0,0.0,0.0,0.0,0.0,0.0,0.0,0.0,0.0,0.0,0.0,0.0,0.0,0.0,0.0,0.0,0.0,0.0,0.0,0.0,0.0,0.0,0.0,0.0,0.0,0.0,0.0,0.0,0.0,0.0,0.0,0.0,0.0,0.0,0.0,0.0,0.0,0.0,0.0,0.0,0.0,0.0,0.0,0.0,0.0,0.0,0.0,0.0,0.0,0.0,0.0,0.0,0.0,0.0,0.0,0.0,0.0,0.0,0.0,0.0,0.0,0.0,0.0,-2.0713,-2.07,-2.0688,-2.0657,-2.0132,-1.9151,0.0,0.0,0.0,0.0,0.0,0.0,0.0,0.0,0.0,0.0,0.0,0.0,0.0,0.0,0.0,0.0,0.0,0.0,0.0,0.0,0.0,0.0,0.0,0.0,0.0,0.0,0.0,0.0,0.0,0.0,0.0,0.0,0.0,0.0,0.0,0.0,0.0,0.0,0.0,0.0,0.0,0.0,0.0,0.0,0.0,0.0,0.0,0.0,0.0,0.0,0.0,0.0,0.0,0.0,0.0,0.0,0.0,0.0,0.0,0.0,0.0,0.0,0.0,0.0,0.0,0.0,0.0,0.0,0.0,0.0,0.0,0.0,0.0,0.0,0.0,0.0,0.0,0.0,0.0,0.0,0.0,0.0,0.0,0.0,0.0,0.0,0.0,0.0,0.0,0.0,0.0,0.0,0.0,0.0,0.0,0.0,0.0,0.0,0.0,0.0,0.0,0.0,0.0,0.0,0.0,0.0,0.0,0.0,-2.2124,-2.2192,-2.2192,-2.2144,-2.2141,-2.1406,0.0,0.0,0.0,0.0,0.0,0.0,0.0,0.0,0.0,0.0,0.0,0.0,0.0,0.0,0.0,0.0,0.0,0.0,0.0,0.0,0.0,0.0,0.0,0.0,0.0,0.0,0.0,0.0,0.0,0.0,0.0,0.0,0.0,0.0,0.0,0.0,0.0,0.0,0.0,0.0,0.0,0.0,0.0,0.0,0.0,0.0,0.0,0.0,0.0,0.0,0.0,0.0,0.0,0.0,0.0,0.0,0.0,0.0,0.0,0.0,0.0,0.0,0.0,0.0,0.0,0.0,0.0,0.0,0.0,0.0,0.0,0.0,0.0,0.0,0.0,0.0,0.0,0.0,0.0,0.0,0.0,0.0,0.0,0.0,0.0,0.0,0.0,0.0,0.0,0.0,0.0,0.0,0.0,0.0,0.0,0.0,0.0,0.0,0.0,0.0,0.0,0.0,0.0,0.0,0.0,0.0,0.0,0.0,0.0,-2.2212,-2.2237,-2.2242,-2.2242,-2.2094,-2.132,0.0,0.0,0.0,0.0,0.0,0.0,0.0,0.0,0.0,0.0,0.0,0.0,0.0,0.0,0.0,0.0,0.0,0.0,0.0,0.0,0.0,0.0,0.0,0.0,0.0,0.0,0.0,0.0,0.0,0.0,0.0,0.0,0.0,0.0,0.0,0.0,0.0,0.0,0.0,0.0,0.0,0.0,0.0,0.0,0.0,0.0,0.0,0.0,0.0,0.0,0.0,0.0,0.0,0.0,0.0,0.0,0.0,0.0,0.0,0.0,0.0,0.0,0.0,0.0,0.0,0.0,0.0,0.0,0.0,0.0,0.0,0.0,0.0,0.0,0.0,0.0,0.0,0.0,0.0,0.0,0.0,0.0,0.0,0.0,0.0,0.0,0.0,0.0,0.0,0.0,0.0,0.0,0.0,0.0,0.0,0.0,0.0,0.0,0.0,0.0,0.0,0.0,0.0,0.0,0.0,0.0,0.0,0.0,0.0,-2.2245,0.0,-2.2166,-2.22,-2.1974,-2.1259,0.0,0.0,0.0,0.0,0.0,0.0,0.0,0.0,0.0,0.0,0.0,0.0,0.0,0.0,0.0,0.0,0.0,0.0,0.0,0.0,0.0,0.0,0.0,0.0,0.0,0.0,0.0,0.0,0.0,0.0,0.0,0.0,0.0,0.0,0.0,0.0,0.0,0.0,0.0,0.0,0.0,0.0,0.0,0.0,0.0,0.0,0.0,0.0,0.0,0.0,0.0,0.0,0.0,0.0,0.0,0.0,0.0,0.0,0.0,0.0,0.0,0.0,0.0,0.0,0.0,0.0,0.0,0.0,0.0,0.0,0.0,0.0,0.0,0.0,0.0,0.0,0.0,0.0,0.0,0.0,0.0,0.0,0.0,0.0,0.0,0.0,0.0,0.0,0.0,0.0,0.0,0.0,0.0,0.0,0.0,0.0,0.0,0.0,0.0,0.0,0.0,0.0,0.0,0.0,0.0,0.0,0.0,0.0,-2.1583,-2.2279,-2.2242,-2.2166,-2.2185,-2.1915,-2.1404,0.0,0.0,0.0,0.0,0.0,0.0,0.0,0.0,0.0,0.0,0.0,0.0,0.0,0.0,0.0,0.0,0.0,0.0,0.0,0.0,0.0,0.0,0.0,0.0,0.0,0.0,0.0,0.0,0.0,0.0,0.0,0.0,0.0,0.0,0.0,0.0,0.0,0.0,0.0,0.0,0.0,0.0,0.0,0.0,0.0,0.0,0.0,0.0,0.0,0.0,0.0,0.0,0.0,0.0,0.0,0.0,0.0,0.0,0.0,0.0,0.0,0.0,0.0,0.0,0.0,0.0,0.0,0.0,0.0,0.0,0.0,0.0,0.0,0.0,0.0,0.0,0.0,0.0,0.0,0.0,0.0,0.0,0.0,0.0,0.0,0.0,0.0,0.0,0.0,0.0,0.0,0.0,0.0,0.0,0.0,0.0,0.0,0.0,0.0,0.0,0.0,0.0,0.0,0.0,0.0,0.0,0.0,0.0,0.0,-2.2242,-2.2104,-2.2017,-2.1901,-2.1678,-2.1121,0.0,0.0,0.0,0.0,0.0,0.0,0.0,0.0,0.0,0.0,0.0,0.0,0.0,0.0,0.0,0.0,0.0,0.0,0.0,0.0,0.0,0.0,0.0,0.0,0.0,0.0,0.0,0.0,0.0,0.0,0.0,0.0,0.0,0.0,0.0,0.0,0.0,0.0,0.0,0.0,0.0,0.0,0.0,0.0,0.0,0.0,0.0,0.0,0.0,0.0,0.0,0.0,0.0,0.0,0.0,0.0,0.0,0.0,0.0,0.0,0.0,0.0,0.0,0.0,0.0,0.0,0.0,0.0,0.0,0.0,0.0,0.0,0.0,0.0,0.0,0.0,0.0,0.0,0.0,0.0,0.0,0.0,0.0,0.0,0.0,0.0,0.0,0.0,0.0,0.0,0.0,0.0,0.0,0.0,0.0,0.0,0.0,0.0,0.0,0.0,0.0,0.0,0.0,0.0,0.0,0.0,0.0,0.0,0.0,-2.2962,-2.282,-2.2582,-2.2198,-2.1871,-2.1262,-2.0415,0.0,0.0,0.0,0.0,0.0,0.0,0.0,0.0,0.0,0.0,0.0,0.0,0.0,0.0,0.0,0.0,0.0,0.0,0.0,0.0,0.0,0.0,0.0,0.0,0.0,0.0,0.0,0.0,0.0,0.0,0.0,0.0,0.0,0.0,0.0,0.0,0.0,0.0,0.0,0.0,0.0,0.0,0.0,0.0,0.0,0.0,0.0,0.0,0.0,0.0,0.0,0.0,0.0,0.0,0.0,0.0,0.0,0.0,0.0,0.0,0.0,0.0,0.0,0.0,0.0,0.0,0.0,0.0,0.0,0.0,0.0,0.0,0.0,0.0,0.0,0.0,0.0,0.0,0.0,0.0,0.0,0.0,0.0,0.0,0.0,0.0,0.0,0.0,0.0,0.0,0.0,0.0,0.0,0.0,0.0,0.0,0.0,0.0,0.0,0.0,0.0,0.0,0.0,0.0,0.0,0.0,0.0,0.0,-2.431,-2.4263,-2.3768,-2.2848,-2.2394,-2.1774,0.0,0.0,0.0,0.0,0.0,0.0,0.0,0.0,0.0,0.0,0.0,0.0,0.0,0.0,0.0,0.0,0.0,0.0,0.0,0.0,0.0,0.0,0.0,0.0,0.0,0.0,0.0,0.0,0.0,0.0,0.0,0.0,0.0,0.0,0.0,0.0,0.0,0.0,0.0,0.0,0.0,0.0,0.0,0.0,0.0,0.0,0.0,0.0,0.0,0.0,0.0,0.0,0.0,0.0,0.0,0.0,0.0,0.0,0.0,0.0,0.0,0.0,0.0,0.0,0.0,0.0,0.0,0.0,0.0,0.0,0.0,0.0,0.0,0.0,0.0,0.0,0.0,0.0,0.0,0.0,0.0,0.0,0.0,0.0,0.0,0.0,0.0,0.0,0.0,0.0,0.0,0.0,0.0,0.0,0.0,0.0,0.0,0.0,0.0,0.0,0.0,0.0,0.0,0.0,0.0,0.0,0.0,0.0,0.0,-2.5679,-2.5537,-2.4719,-2.3289,-2.2384,-2.1708,0.0,0.0,0.0,0.0,0.0,0.0,0.0,0.0,0.0,0.0,0.0,0.0,0.0,0.0,0.0,0.0,0.0,0.0,0.0,0.0,0.0,0.0,0.0,0.0,0.0,0.0,0.0,0.0,0.0,0.0,0.0,0.0,0.0,0.0,0.0,0.0,0.0,0.0,0.0,0.0,0.0,0.0,0.0,0.0,0.0,0.0,0.0,0.0,0.0,0.0,0.0,0.0,0.0,0.0,0.0,0.0,0.0,0.0,0.0,0.0,0.0,0.0,0.0,0.0,0.0,0.0,0.0,0.0,0.0,0.0,0.0,0.0,0.0,0.0,0.0,0.0,0.0,0.0,0.0,0.0,0.0,0.0,0.0,0.0,0.0,0.0,0.0,0.0,0.0,0.0,0.0,0.0,0.0,0.0,0.0,0.0,0.0,0.0,0.0,0.0,0.0,0.0,0.0,0.0,0.0,0.0,0.0,0.0,-2.5732,-2.676,-2.6691,-2.5997,-2.4622,-2.2984,-2.1842,0.0,0.0,0.0,0.0,0.0,0.0,0.0,0.0,0.0,0.0,0.0,0.0,0.0,0.0,0.0,0.0,0.0,0.0,0.0,0.0,0.0,0.0,0.0,0.0,0.0,0.0,0.0,0.0,0.0,0.0,0.0,0.0,0.0,0.0,0.0,0.0,0.0,0.0,0.0,0.0,0.0,0.0,0.0,0.0,0.0,0.0,0.0,0.0,0.0,0.0,0.0,0.0,0.0,0.0,0.0,0.0,0.0,0.0,0.0,0.0,0.0,0.0,0.0,0.0,0.0,0.0,0.0,0.0,0.0,0.0,0.0,0.0,0.0,0.0,0.0,0.0,0.0,0.0,0.0,0.0,0.0,0.0,0.0,0.0,0.0,0.0,0.0,0.0,0.0,0.0,0.0,0.0,0.0,0.0,0.0,0.0,0.0,0.0,0.0,0.0,0.0,0.0,0.0,0.0,0.0,0.0,0.0,0.0,-2.6732,-2.7456,-2.7584,-2.7214,-2.6256,-2.3934,-2.2208,0.0,0.0,0.0,0.0,0.0,0.0,0.0,0.0,0.0,0.0,0.0,0.0,0.0,0.0,0.0,0.0,0.0,0.0,0.0,0.0,0.0,0.0,0.0,0.0,0.0,0.0,0.0,0.0,0.0,0.0,0.0,0.0,0.0,0.0,0.0,0.0,0.0,0.0,0.0,0.0,0.0,0.0,0.0,0.0,0.0,0.0,0.0,0.0,0.0,0.0,0.0,0.0,0.0,0.0,0.0,0.0,0.0,0.0,0.0,0.0,0.0,0.0,0.0,0.0,0.0,0.0,0.0,0.0,0.0,0.0,0.0,0.0,0.0,0.0,0.0,0.0,0.0,0.0,0.0,0.0,0.0,0.0,0.0,0.0,0.0,0.0,0.0,0.0,0.0,0.0,0.0,0.0,0.0,0.0,0.0,0.0,0.0,0.0,0.0,0.0,0.0,0.0,0.0,0.0,0.0,0.0,0.0,0.0,-2.6726,-2.784,-2.7563,-2.7158,-2.6756,-2.4458,-2.2798,0.0,0.0,0.0,0.0,0.0,0.0,0.0,0.0,0.0,0.0,0.0,0.0,0.0,0.0,0.0,0.0,0.0,0.0,0.0,0.0,0.0,0.0,0.0,0.0,0.0,0.0,0.0,0.0,0.0,0.0,0.0,0.0,0.0,0.0,0.0,0.0,0.0,0.0,0.0,0.0,0.0,0.0,0.0,0.0,0.0,0.0,0.0,0.0,-1.2564,0.0,0.0,0.0,0.0,0.0,0.0,0.0,0.0,0.0,0.0,0.0,0.0,0.0,0.0,0.0,0.0,0.0,0.0,0.0,0.0,0.0,0.0,0.0,0.0,0.0,0.0,0.0,0.0,0.0,0.0,0.0,0.0,0.0,0.0,0.0,0.0,0.0,0.0,0.0,0.0,0.0,0.0,0.0,0.0,0.0,0.0,0.0,0.0,0.0,0.0,0.0,0.0,0.0,0.0,0.0,0.0,0.0,0.0,0.0,-2.741,-2.7983,-2.7909,-2.7551,-2.6881,-2.4554,-2.2896,0.0,0.0,0.0,0.0,0.0,0.0,0.0,0.0,0.0,0.0,0.0,0.0,0.0,0.0,0.0,0.0,0.0,0.0,0.0,0.0,0.0,0.0,0.0,0.0,0.0,0.0,0.0,0.0,0.0,0.0,0.0,0.0,0.0,0.0,0.0,0.0,0.0,0.0,0.0,0.0,0.0,0.0,0.0,0.0,0.0,0.0,0.0,0.0,0.0,0.0,0.0,0.0,0.0,0.0,0.0,0.0,0.0,0.0,0.0,0.0,0.0,0.0,0.0,0.0,0.0,0.0,0.0,0.0,0.0,0.0,0.0,0.0,0.0,0.0,0.0,0.0,0.0,0.0,0.0,0.0,0.0,0.0,0.0,0.0,0.0,0.0,0.0,0.0,0.0,0.0,0.0,0.0,0.0,0.0,0.0,0.0,0.0,0.0,0.0,0.0,0.0,0.0,0.0,0.0,0.0,0.0,0.0,-2.6829,-2.8122,-2.7956,-2.8233,-2.7922,-2.6869,-2.4472,-2.2806,-2.2028,0.0,0.0,0.0,0.0,0.0,0.0,0.0,0.0,0.0,0.0,0.0,0.0,0.0,0.0,0.0,0.0,0.0,0.0,0.0,0.0,0.0,0.0,0.0,0.0,0.0,0.0,0.0,0.0,0.0,0.0,0.0,0.0,0.0,0.0,0.0,0.0,0.0,0.0,-1.3333,-1.3259,0.0,0.0,0.0,0.0,0.0,0.0,0.0,0.0,-1.302,0.0,0.0,0.0,0.0,0.0,0.0,0.0,0.0,0.0,0.0,0.0,0.0,0.0,0.0,0.0,0.0,0.0,0.0,0.0,0.0,0.0,0.0,0.0,0.0,0.0,0.0,0.0,0.0,0.0,0.0,0.0,0.0,0.0,0.0,0.0,0.0,0.0,0.0,0.0,0.0,0.0,0.0,0.0,0.0,0.0,0.0,0.0,0.0,0.0,0.0,0.0,0.0,0.0,0.0,0.0,0.0,-2.3802,-2.6455,-2.7741,-2.7577,-2.7868,-2.7614,-2.6717,-2.4327,-2.2717,-2.1979,0.0,0.0,0.0,0.0,0.0,0.0,0.0,0.0,0.0,0.0,0.0,0.0,0.0,0.0,0.0,0.0,0.0,0.0,0.0,0.0,0.0,0.0,0.0,0.0,0.0,0.0,0.0,0.0,0.0,0.0,0.0,0.0,0.0,0.0,0.0,0.0,0.0,0.0,0.0,-1.4732,-1.4615,0.0,0.0,0.0,0.0,0.0,0.0,0.0,0.0,-1.3737,0.0,0.0,0.0,0.0,0.0,0.0,0.0,0.0,0.0,0.0,0.0,0.0,0.0,0.0,0.0,0.0,0.0,0.0,0.0,0.0,0.0,0.0,0.0,0.0,0.0,0.0,0.0,0.0,0.0,0.0,0.0,0.0,0.0,0.0,0.0,0.0,0.0,0.0,0.0,0.0,0.0,0.0,0.0,0.0,0.0,0.0,0.0,0.0,0.0,0.0,0.0,0.0,0.0,0.0,0.0,-2.3765,-2.6264,-2.7515,-2.7348,-2.7367,-2.7105,-2.6488,-2.3917,-2.2293,0.0,0.0,0.0,0.0,0.0,0.0,0.0,0.0,0.0,0.0,0.0,0.0,0.0,0.0,0.0,0.0,0.0,0.0,0.0,0.0,0.0,0.0,0.0,0.0,0.0,0.0,0.0,0.0,0.0,0.0,0.0,0.0,0.0,0.0,0.0,0.0,0.0,0.0,0.0,0.0,-1.5145,-1.507,-1.4973,0.0,0.0,0.0,0.0,0.0,0.0,-1.4547,-1.3999,0.0,0.0,0.0,0.0,0.0,0.0,0.0,0.0,0.0,0.0,0.0,0.0,0.0,0.0,0.0,0.0,0.0,0.0,0.0,0.0,0.0,0.0,0.0,0.0,0.0,0.0,0.0,0.0,0.0,0.0,0.0,0.0,0.0,0.0,0.0,0.0,0.0,0.0,0.0,0.0,0.0,0.0,0.0,0.0,0.0,0.0,0.0,0.0,0.0,0.0,0.0,0.0,0.0,0.0,0.0,-2.3595,-2.596,-2.7104,-2.6968,-2.6745,-2.6445,-2.5953,-2.3366,-2.1879,0.0,0.0,0.0,0.0,0.0,0.0,0.0,0.0,0.0,0.0,0.0,0.0,0.0,0.0,0.0,0.0,0.0,0.0,0.0,0.0,0.0,0.0,0.0,0.0,0.0,0.0,0.0,0.0,0.0,0.0,0.0,0.0,0.0,0.0,0.0,0.0,0.0,0.0,0.0,0.0,0.0,-1.5616,-1.5506,-1.5396,0.0,0.0,0.0,0.0,-1.5574,-1.5043,0.0,0.0,0.0,0.0,0.0,0.0,0.0,0.0,0.0,0.0,0.0,0.0,0.0,0.0,0.0,0.0,0.0,0.0,0.0,0.0,0.0,0.0,0.0,0.0,0.0,0.0,0.0,0.0,0.0,0.0,0.0,0.0,0.0,0.0,0.0,0.0,0.0,0.0,0.0,0.0,0.0,0.0,0.0,0.0,0.0,0.0,0.0,0.0,0.0,0.0,0.0,0.0,0.0,0.0,0.0,0.0,-2.3316,-2.5187,-2.6176,-2.6135,-2.5832,-2.534,-2.4647,-2.2928,-2.1697,0.0,0.0,0.0,0.0,0.0,0.0,0.0,0.0,0.0,0.0,0.0,0.0,0.0,0.0,0.0,0.0,0.0,0.0,0.0,0.0,0.0,0.0,0.0,0.0,0.0,0.0,0.0,0.0,0.0,0.0,0.0,0.0,0.0,0.0,0.0,0.0,0.0,0.0,0.0,0.0,0.0,-1.7152,-1.7107,-1.7032,-1.6934,0.0,0.0,-1.6453,-1.6373,-1.6196,0.0,0.0,0.0,0.0,0.0,0.0,0.0,0.0,0.0,0.0,0.0,0.0,0.0,0.0,0.0,0.0,0.0,0.0,0.0,0.0,0.0,0.0,0.0,0.0,0.0,0.0,0.0,0.0,0.0,0.0,0.0,0.0,0.0,0.0,0.0,0.0,0.0,0.0,0.0,0.0,0.0,0.0,0.0,0.0,0.0,0.0,0.0,0.0,0.0,0.0,0.0,0.0,0.0,0.0,0.0,-2.3233,-2.3747,-2.5124,-2.5884,-2.5801,-2.5601,-2.508,-2.4223,-2.2737,-2.1617,0.0,0.0,0.0,0.0,0.0,0.0,0.0,0.0,0.0,0.0,0.0,0.0,0.0,0.0,0.0,0.0,0.0,0.0,0.0,0.0,0.0,0.0,0.0,0.0,0.0,0.0,0.0,0.0,0.0,0.0,0.0,0.0,0.0,0.0,0.0,0.0,0.0,0.0,0.0,0.0,0.0,0.0,-1.7395,-1.7322,0.0,0.0,0.0,-1.6657,-1.6512,0.0,0.0,0.0,0.0,0.0,0.0,0.0,0.0,0.0,0.0,0.0,0.0,0.0,0.0,0.0,0.0,0.0,0.0,0.0,0.0,0.0,0.0,0.0,0.0,0.0,0.0,0.0,0.0,0.0,0.0,0.0,0.0,0.0,0.0,0.0,0.0,0.0,0.0,0.0,0.0,0.0,0.0,0.0,0.0,0.0,0.0,0.0,0.0,0.0,0.0,0.0,0.0,0.0,0.0,0.0,0.0,0.0,-2.3973,-2.4963,-2.5467,-2.5415,-2.5247,-2.4677,-2.3579,-2.2545,0.0,0.0,0.0,0.0,0.0,0.0,0.0,0.0,0.0,0.0,0.0,0.0,0.0,0.0,0.0,0.0,0.0,0.0,0.0,0.0,0.0,0.0,0.0,0.0,0.0,0.0,0.0,-1.6205,0.0,0.0,0.0,0.0,0.0,0.0,0.0,0.0,0.0,0.0,0.0,0.0,0.0,0.0,-1.7479,-1.7431,-1.7359,-1.724,0.0,0.0,-1.6714,-1.6565,-1.6382,-1.6068,0.0,0.0,0.0,0.0,0.0,0.0,0.0,0.0,0.0,0.0,0.0,0.0,0.0,0.0,0.0,0.0,0.0,0.0,0.0,0.0,0.0,0.0,0.0,0.0,0.0,0.0,0.0,0.0,0.0,0.0,0.0,0.0,0.0,0.0,0.0,0.0,0.0,0.0,0.0,0.0,0.0,0.0,0.0,0.0,0.0,0.0,0.0,0.0,0.0,0.0,0.0,0.0,0.0,0.0,0.0,-2.3635,-2.4284,-2.4596,-2.4596,-2.4441,-2.3723,-2.2366,-2.2098,-2.1315,0.0,0.0,0.0,0.0,0.0,0.0,0.0,0.0,0.0,0.0,0.0,0.0,0.0,0.0,0.0,0.0,0.0,0.0,0.0,0.0,0.0,0.0,0.0,0.0,0.0,0.0,0.0,0.0,0.0,0.0,0.0,0.0,0.0,0.0,0.0,0.0,0.0,0.0,0.0,0.0,0.0,-1.7503,-1.7503,-1.7395,-1.731,0.0,0.0,-1.685,-1.6696,-1.6517,-1.6315,-1.6147,0.0,0.0,0.0,0.0,0.0,0.0,0.0,0.0,0.0,0.0,0.0,0.0,0.0,0.0,0.0,0.0,0.0,0.0,0.0,0.0,0.0,0.0,0.0,0.0,0.0,0.0,0.0,0.0,0.0,0.0,0.0,0.0,0.0,0.0,0.0,0.0,0.0,0.0,0.0,0.0,0.0,0.0,0.0,0.0,0.0,0.0,0.0,0.0,0.0,0.0,0.0,0.0,0.0,-2.3534,-2.422,-2.4399,-2.4513,-2.4513,-2.438,-2.3631,-2.2213,-2.2067,-2.1315,0.0,0.0,0.0,0.0,0.0,0.0,0.0,0.0,0.0,0.0,0.0,0.0,0.0,0.0,0.0,0.0,0.0,0.0,0.0,0.0,0.0,0.0,0.0,0.0,0.0,0.0,0.0,0.0,-1.8059,-1.8101,-1.8212,0.0,0.0,0.0,0.0,0.0,0.0,0.0,0.0,0.0,0.0,-1.877,-1.8803,-1.8706,0.0,0.0,-1.7766,-1.7435,-1.6785,-1.661,-1.6477,-1.6328,-1.6097,0.0,0.0,0.0,0.0,0.0,0.0,0.0,0.0,0.0,0.0,0.0,0.0,0.0,0.0,0.0,0.0,0.0,0.0,0.0,0.0,0.0,0.0,0.0,0.0,0.0,0.0,0.0,0.0,0.0,0.0,0.0,0.0,0.0,0.0,0.0,0.0,0.0,0.0,0.0,0.0,0.0,0.0,0.0,0.0,0.0,0.0,0.0,0.0,0.0,0.0,0.0,0.0,-2.386,-2.4492,-2.4462,-2.4441,-2.4441,-2.4359,-2.3631,-2.2283,-2.2125,-2.1371,0.0,0.0,0.0,0.0,0.0,0.0,0.0,0.0,0.0,0.0,0.0,0.0,0.0,0.0,0.0,0.0,0.0,0.0,0.0,0.0,0.0,0.0,0.0,0.0,0.0,0.0,0.0,0.0,-1.9147,-1.9186,-1.927,0.0,0.0,0.0,0.0,0.0,0.0,0.0,0.0,0.0,0.0,-1.9584,-1.9584,-1.9544,-1.9292,-1.8706,-1.8326,-1.7856,-1.7202,-1.6828,-1.661,-1.6503,0.0,0.0,0.0,0.0,0.0,0.0,0.0,0.0,0.0,0.0,0.0,0.0,0.0,0.0,0.0,0.0,0.0,0.0,0.0,0.0,0.0,0.0,0.0,0.0,0.0,0.0,0.0,0.0,0.0,0.0,-2.6495,0.0,0.0,0.0,0.0,0.0,0.0,0.0,0.0,0.0,0.0,0.0,0.0,0.0,0.0,0.0,0.0,0.0,0.0,0.0,0.0,0.0,0.0,-2.364,-2.4287,-2.4317,-2.4317,-2.4317,-2.4297,-2.3671,-2.2347,-2.224,-2.1484,-2.0048,0.0,0.0,0.0,0.0,0.0,0.0,0.0,0.0,0.0,0.0,0.0,0.0,0.0,0.0,0.0,0.0,0.0,0.0,0.0,0.0,0.0,0.0,0.0,0.0,0.0,0.0,-1.9236,-1.946,-1.9569,0.0,0.0,0.0,0.0,0.0,0.0,0.0,0.0,0.0,0.0,-1.9584,-1.9617,-1.9617,-1.9577,-1.9523,-1.9408,-1.8651,-1.8076,-1.7996,-1.7266,-1.6696,0.0,0.0,0.0,0.0,0.0,0.0,0.0,0.0,0.0,0.0,0.0,0.0,0.0,0.0,0.0,0.0,0.0,0.0,0.0,0.0,0.0,0.0,0.0,0.0,0.0,0.0,0.0,-2.9212,-2.9366,0.0,0.0,0.0,0.0,0.0,0.0,0.0,0.0,0.0,0.0,0.0,-2.9033,-2.8572,0.0,0.0,0.0,0.0,0.0,0.0,0.0,0.0,0.0,0.0,0.0,0.0,-2.4071,-2.4287,-2.4297,-2.4297,-2.4297,-2.4297,-2.3671,-2.2366,-2.224,-2.1466,-1.9929,0.0,0.0,0.0,0.0,0.0,0.0,0.0,0.0,0.0,0.0,0.0,0.0,0.0,0.0,0.0,0.0,0.0,0.0,0.0,0.0,0.0,0.0,0.0,0.0,0.0,-2.0491,0.0,0.0,0.0,0.0,0.0,0.0,0.0,0.0,0.0,0.0,0.0,-2.0409,-2.0354,-2.0771,-2.1069,-2.1069,-2.1054,-2.0798,0.0,0.0,0.0,0.0,0.0,0.0,0.0,0.0,0.0,0.0,0.0,0.0,0.0,0.0,-1.6741,-1.6235,-1.6318,-1.6497,-1.6593,0.0,0.0,0.0,0.0,0.0,0.0,0.0,0.0,0.0,0.0,0.0,0.0,0.0,0.0,0.0,0.0,-3.1213,0.0,0.0,0.0,0.0,0.0,0.0,0.0,0.0,-3.0386,-3.0386,-3.0386,-2.9981,-2.9525,0.0,-2.8633,-2.7734,0.0,0.0,0.0,0.0,0.0,0.0,0.0,0.0,-2.5004,-2.5025,-2.5025,-2.4902,-2.4666,-2.4635,-2.401,-2.2686,-2.2099,-2.1222,-1.9935,-1.9833,-1.978,0.0,0.0,0.0,0.0,0.0,0.0,0.0,0.0,0.0,0.0,0.0,0.0,0.0,0.0,0.0,0.0,0.0,0.0,0.0,0.0,0.0,0.0,0.0,-2.1294,0.0,0.0,0.0,0.0,0.0,0.0,0.0,0.0,0.0,-2.053,-2.0897,-2.1183,-2.1097,-2.1514,-2.1797,-2.1797,0.0,0.0,0.0,0.0,0.0,0.0,0.0,-1.8248,-1.777,-1.7706,-1.7706,-1.7732,-1.7732,-1.7738,-1.7738,0.0,0.0,-1.7428,-1.7649,-1.798,-1.8074,-1.8309,-1.8254,-1.7625,-1.7577,-1.7448,0.0,0.0,0.0,0.0,0.0,0.0,0.0,0.0,-3.2896,-3.2767,0.0,-3.2785,0.0,0.0,0.0,0.0,0.0,-3.0602,0.0,0.0,-3.0602,-3.054,-3.0571,-3.0509,-3.0448,-3.0448,-3.0386,-2.9679,-2.8442,-2.7172,0.0,0.0,0.0,0.0,0.0,0.0,-2.6327,-2.6371,-2.6371,-2.6041,-2.5342,-2.5281,-2.4656,-2.3302,-2.1884,-2.0819,-2.0159,-1.9952,-1.9815,-1.9797,-1.9744,0.0,0.0,0.0,0.0,0.0,0.0,0.0,0.0,0.0,0.0,0.0,0.0,0.0,0.0,0.0,0.0,0.0,0.0,0.0,0.0,-2.1182,0.0,0.0,0.0,0.0,0.0,0.0,0.0,0.0,0.0,0.0,-2.1893,-2.1936,-2.1955,-2.1827,0.0,0.0,0.0,0.0,-2.1783,-2.1693,-2.1026,-2.0526,-2.0373,-1.9715,-1.9232,-1.9153,0.0,0.0,-1.9186,-1.9129,-1.9054,-1.9072,-1.9072,-1.8911,-1.8221,-1.8754,-1.9323,-1.9491,-1.9644,-1.9656,-1.9183,-1.8983,-1.8836,-3.8069,0.0,0.0,0.0,0.0,-3.4903,-3.509,-3.5397,-3.5002,-3.4942,-3.5155,-3.4637,0.0,0.0,0.0,0.0,0.0,0.0,-3.3306,-3.3306,-3.3306,-3.3306,-3.3303,-3.229,-3.1828,-3.1797,-3.0848,-3.0202,-2.9802,-2.9433,-2.8288,-2.6411,0.0,0.0,0.0,0.0,-2.6327,-2.6402,-2.6402,-2.6287,-2.6019,-2.5527,-2.4635,-2.3332,-2.1959,-2.1105,-2.0819,-2.0289,-1.994,-1.9797,-1.978,0.0,0.0,0.0,0.0,0.0,0.0,0.0,0.0,0.0,0.0,0.0,0.0,0.0,0.0,0.0,0.0,0.0,0.0,0.0,-2.0811,-2.1135,-2.1371,0.0,0.0,0.0,0.0,0.0,0.0,0.0,0.0,0.0,-2.2123,-2.2061,-2.1969,0.0,0.0,-2.1797,-2.1797,-2.1797,-2.1783,-2.1693,0.0,0.0,0.0,-2.0214,-1.9874,-1.9297,-1.9186,-1.9186,-1.9186,-1.9186,-1.9157,-1.919,-1.9596,-1.9902,-1.9733,-1.9507,-1.9454,-1.953,-1.9704,-1.9807,-1.974,-1.9722,-1.9692,-4.1161,-3.9333,-3.8132,-3.7302,-3.688,-3.7113,-3.7282,-3.7385,-3.7113,-3.7059,-3.7064,-3.6523,-3.6009,-3.5584,-3.4847,0.0,0.0,0.0,-3.4474,-3.4474,-3.4474,-3.4474,-3.4443,-3.3614,-3.3059,-3.2782,-3.1955,-3.1309,-3.0812,-3.0812,-2.9858,-2.8042,0.0,0.0,-2.7211,-2.7149,-2.7149,-2.7203,-2.718,-2.7026,-2.6726,-2.5773,-2.4789,-2.3733,-2.2655,-2.1806,-2.1179,-2.0745,-2.032,-1.9922,-1.9833,-1.978,0.0,0.0,0.0,0.0,0.0,0.0,0.0,0.0,0.0,0.0,0.0,-2.0202,0.0,0.0,0.0,0.0,-2.1113,-2.1391,-2.1613,-2.1903,0.0,0.0,0.0,0.0,0.0,0.0,0.0,-2.2313,-2.2313,-2.2299,-2.2223,-2.2104,-2.1969,-2.1897,-2.1857,-2.1797,-2.1797,0.0,-2.1797,-2.1738,-2.1708,-2.1531,-2.0999,-2.0859,-2.0622,-2.014,-2.0061,-2.0028,-2.0013,-2.0031,-1.9984,-2.0063,-2.0372,-2.0663,-2.0784,-2.0482,-2.0322,-2.043,-2.0583,-2.0619,-2.0516,-2.0487,-2.0386,-4.399,-4.347,-4.1175,-3.989,-3.9357,-3.948,-3.9661,-3.9811,-3.9179,-3.8983,-3.8966,-3.8334,-3.7403,-3.6317,-3.5277,0.0,-3.4813,-3.4751,-3.4782,-3.4751,-3.469,-3.4659,-3.4659,-3.4628,-3.4227,-3.3552,-3.346,-3.2752,-3.1609,-3.149,-3.112,-3.0479,-2.9863,-2.9218,-2.8572,-2.8565,-2.8565,-2.8565,-2.8565,-2.8196,-2.7488,-2.6134,-2.5066,-2.441,-2.3671,-2.2736,-2.1535,-2.1289,-2.091,-2.0299,-2.0073,-1.9996,-1.9948,0.0,0.0,0.0,0.0,0.0,0.0,0.0,0.0,0.0,0.0,0.0,0.0,0.0,0.0,0.0,-2.2199,0.0,-2.2857,-2.3113,0.0,0.0,0.0,-2.299,-2.3052,-2.2668,-2.2363,-2.2367,0.0,0.0,-2.2313,0.0,-2.1984,-2.1911,-2.1857,-2.1797,-2.1797,-2.1797,-2.1797,-2.1797,-2.1753,-2.1693,-2.1597,-2.1476,-2.1305,-2.1195,-2.1293,-2.1228,-2.118,-2.1181,-2.123,-2.1228,-2.1262,-2.1246,-2.1387,-2.1445,-2.1648,-2.1786,-2.1888,-2.1821,-2.1387,-2.1292,-2.1075,-4.5918,-4.5711,-4.4329,-4.2822,-4.1385,-4.1069,-4.0973,-4.098,-4.08,-4.0507,-3.9997,-3.948,-3.8698,-3.7724,-3.758,-3.7554,-3.7523,-3.6999,-3.6784,-3.6753,-3.6261,-3.6014,-3.6014,-3.5521,-3.5153,-3.4937,-3.3891,-3.3244,-3.2906,-3.2413,-3.1797,-3.1182,-3.0997,-3.0597,-2.9956,-2.9925,-2.9894,-2.9925,-2.9925,-2.9366,-2.8165,-2.6842,-2.5795,-2.5066,-2.3917,-2.3148,-2.2809,-2.2298,-2.1922,-2.1693,-2.1656,-2.158,-2.1485,-2.1485,0.0,0.0,0.0,0.0,0.0,0.0,0.0,0.0,0.0,-2.1843,-2.1843,0.0,-2.2058,0.0,-2.2313,-2.2518,-2.266,-2.2875,0.0,0.0,-2.3437,-2.3572,-2.3752,-2.3842,-2.3661,-2.3119,-2.311,-2.2936,-2.2395,-2.2132,-2.1998,-2.1984,-2.1853,-2.1797,-2.1797,-2.1797,-2.1797,-2.1797,-2.1797,-2.1753,-2.1693,-2.1526,-2.1402,-2.1402,-2.134,-2.1293,-2.1293,-2.131,-2.1262,-2.1293,-2.1277,-2.134,-2.1528,-2.1589,-2.1678,-2.1911,-2.1984,-2.2008,-2.2015,-2.2057,-2.1975,-4.7332,-4.7081,-4.5938,-4.4876,-4.3916,-4.305,-4.2671,-4.2641,-4.2111,-4.1662,-4.1242,-4.0203,-3.9485,-3.8933,-3.8622,-3.8508,-3.8477,-3.8108,-3.7954,-3.7923,-3.7246,-3.6938,-3.6907,-3.6261,-3.5799,-3.5491,-3.4691,-3.4168,-3.386,-3.3183,-3.2659,-3.229,-3.1982,-3.1643,-3.1274,-3.0694,-3.0386,-3.0386,-3.0109,-2.9587,-2.8842,-2.755,-2.6503,-2.5742,-2.4748,-2.3917,-2.3302,-2.2932,-2.2574,-2.2259,-2.2221,-2.2164,-2.2087,-2.2048,-2.2169,0.0,0.0,0.0,0.0,0.0,0.0,0.0,0.0,0.0,0.0,0.0,-2.2871,0.0,-2.3277,-2.3355,-2.3464,-2.3695,-2.3885,-2.4039,-2.4041,-2.4141,-2.4362,-2.4281,-2.4108,-2.3814,-2.3793,-2.3568,-2.2888,-2.2666,-2.2411,-2.208,-2.1897,-2.1857,-2.1812,-2.1797,-2.1797,-2.1797,-2.1797,-2.1783,-2.1708,-2.1572,-2.1464,-2.1418,-2.134,-2.1293,-2.1293,-2.1293,-2.1293,-2.1293,-2.1293,-2.134,-2.1559,-2.1604,-2.1696,-2.1868,-2.1955,-2.2061,-2.2251,-2.2313,-2.2313,-4.8429,-4.7956,-4.6707,-4.6258,-4.6309,-4.5005,-4.4377,-4.4227,-4.3069,-4.247,-4.2329,-4.074,-4.0036,-4.0016,-3.9171,-3.8785,-3.8785,-3.8692,-3.8631,-3.86,-3.7954,-3.7584,-3.7492,-3.6907,-3.6292,-3.5645,-3.5522,-3.5213,-3.4628,-3.3891,-3.349,-3.3367,-3.2813,-3.2475,-3.2351,-3.1243,-3.0663,-3.0632,-2.9986,-2.9617,-2.9525,-2.8227,-2.718,-2.645,-2.5773,-2.4872,-2.3609,-2.3548,-2.324,-2.2594,-2.2505,-2.2447,-2.2478,-2.2369,-2.2594,0.0,-2.3396,0.0,0.0,0.0,0.0,0.0,0.0,0.0,0.0,-2.3086,-2.3671,-2.4256,-2.44,-2.4493,-2.4513,-2.4766,-2.4946,-2.4974,-2.4734,-2.4659,-2.4842,-2.4527,-2.4315,-2.4475,-2.4489,-2.4267,-2.3617,-2.3388,-2.2944,-2.2314,-2.1993,-2.1838,-2.1827,-2.1797,-2.1797,-2.1797,-2.1797,-2.1783,-2.1723,-2.1632,-2.1556,-2.1449,-2.1371,-2.1309,-2.1293,-2.1293,-2.1293,-2.1293,-2.1293,-2.1356,-2.1526,-2.1541,-2.1617,-2.1823,-2.1882,-2.1988,-2.2194,-2.2299,-2.2313,-4.9104,-4.891,-4.7625,-4.7086,-4.701,-4.5693,-4.4796,-4.4257,-4.3479,-4.2929,-4.2552,-4.1328,-4.0872,-4.096,-4.0405,-4.0105,-4.0074,-3.9551,-3.9305,-3.9308,-3.8631,-3.8046,-3.7523,-3.7369,-3.6969,-3.6292,-3.5737,-3.543,-3.5306,-3.4628,-3.4012,-3.3398,-3.3275,-3.2936,-3.2413,0.0,0.0,0.0,-3.1366,-3.0751,-3.0171,-2.8879,-2.7888,-2.7211,-2.6534,0.0,-2.4973,-2.4912,-2.4625,-2.3979,-2.3897,0.0,0.0,0.0,0.0,0.0,0.0,0.0,0.0,0.0,0.0,0.0,-2.5733,-2.5149,-2.404,-2.404,-2.4164,-2.4287,-2.4338,-2.438,-2.4482,-2.4544,-2.4686,-2.4966,-2.4996,-2.5093,-2.5389,-2.5535,-2.5471,-2.5029,-2.5046,-2.4894,-2.4285,-2.3554,-2.3058,-2.2902,-2.2297,-2.186,-2.1812,-2.1797,-2.1797,-2.1797,-2.1797,-2.1797,-2.1783,-2.1723,-2.1665,-2.1589,-2.1464,-2.1371,-2.1309,-2.1293,-2.1293,-2.1293,-2.1293,-2.1324,-2.1433,-2.1449,-2.1541,-2.1735,-2.1827,-2.1901,-2.2152,-2.2228,-2.2242,-4.9103,0.0,-4.7804,-4.7309,0.0,-4.5873,-4.5095,-4.4736,-4.3708,-4.3268,-4.3102,-4.1933,-4.1578,-4.1765,-4.0865,-4.0505,-4.0474,-4.0136,-3.9982,-3.9951,-3.9308,-3.8816,-3.8444,-3.78,-3.7307,-3.6969,-3.6292,-3.5984,-3.5953,-3.5306,-3.4813,-3.4414,-3.4106,-3.3583,-3.2906,-3.2567,-3.2413,-3.2413,-3.1736,-3.1243,-3.0874,-2.9581,-2.8565,-2.7919,0.0,0.0,0.0,0.0,0.0,0.0,0.0,0.0,0.0,0.0,0.0,-2.5333,-2.5672,-2.5857,-2.5857,-2.6195,-2.638,-2.6349,-2.638,-2.6072,-2.5342,-2.5333,-2.5333,-2.5355,-2.5333,-2.5355,-2.5419,-2.5462,-2.5445,-2.5269,-2.5431,-2.5524,-2.54,-2.5621,-2.5731,-2.5601,-2.5658,-2.553,-2.4928,-2.4477,-2.3828,-2.3209,-2.2715,-2.224,-2.1879,-2.1797,-2.1797,-2.1797,-2.1797,-2.1797,-2.1797,-2.1738,-2.1696,-2.162,-2.148,-2.1387,-2.1309,-2.1293,-2.1293,-2.1293,-2.1293,-2.1324,-2.137,-2.1385,-2.1447,-2.1693,-2.1753,-2.1812,-2.2003,-2.2061,-2.2137,-4.88,-4.8803,-4.7672,-4.7236,-4.7189,-4.5873,-4.5155,-4.4885,0.0,0.0,0.0,-4.2455,-4.2065,-4.226,-4.1085,-4.0505,-4.0505,-4.0505,-4.0505,-4.0474,-3.992,-3.9613,-3.9428,-3.8385,-3.7738,-3.7492,-3.6938,-3.6599,-3.6476,-3.5953,-3.5645,-3.546,-3.4967,-3.432,-3.3614,-3.3029,-3.269,-3.2536,-3.1948,-3.149,-3.1393,-3.032,-2.9427,-2.8781,-2.8104,-2.7457,-2.678,-2.6595,-2.645,-2.6327,-2.638,-2.6402,-2.6402,-2.6402,-2.6402,-2.638,-2.6503,-2.6565,-2.6565,-2.6657,-2.6772,-2.6749,-2.6749,-2.6626,-2.6357,-2.6349,-2.638,-2.6402,-2.6402,-2.6402,-2.6402,-2.647,-2.6267,-2.5731,-2.5926,-2.5873,-2.537,-2.5509,-2.5764,-2.5914,-2.6026,-2.5971,-2.553,-2.5297,-2.4863,-2.3697,-2.3166,-2.2702,-2.1993,-2.1797,-2.1797,-2.1797,-2.1797,-2.1797,-2.1797,-2.1753,-2.1678,-2.1635,-2.151,-2.1418,-2.134,-2.1309,-2.1293,-2.1293,-2.1293,-2.1324,-2.1387,-2.1387,-2.1416,-2.1617,-2.1648,-2.1693,-2.1827,-2.1882,-2.1988,-4.8479,-4.8803,-4.7496,-4.7106,-4.7189,-4.5873,-4.4646,-4.3559,-4.3379,-4.3557,-4.3858,-4.2493,-4.2138,-4.2504,-4.112,-4.0505,-4.0505,-4.0505,-4.0505,0.0,-4.0413,-4.0043,-3.9524,-3.9305,-3.8631,-3.7554,-3.74,-3.7061,-3.6538,-3.6384,-3.6076,-3.5583,-3.5429,-3.5028,-3.4382,-3.4258,-3.386,-3.3275,-3.2598,-3.1982,-3.1397,-3.1213,-3.0782,-3.014,-2.9464,-2.8787,-2.8134,-2.755,-2.6965,-2.6411,-2.6402,-2.6402,-2.6402,-2.6433,-2.638,-2.6357,-2.6903,-2.7242,-2.7272,-2.7796,-2.8104,-2.8134,-2.8134,-2.7642,-2.6503,-2.6327,-2.6349,-2.638,-2.6441,-2.6402,-2.6402,-2.6464,-2.6478,-2.639,-2.6404,-2.6299,-2.5904,-2.5961,-2.5918,-2.5713,-2.584,-2.6008,-2.5954,-2.5525,-2.5128,-2.4713,-2.365,-2.2641,-2.2077,-2.1797,-2.1797,-2.1797,-2.1797,-2.1797,-2.1797,-2.1797,-2.1753,-2.1711,-2.1635,-2.1495,-2.1385,-2.134,-2.1293,-2.1293,-2.1293,-2.1293,-2.1324,-2.1309,-2.1356,-2.1449,-2.1447,-2.151,-2.165,-2.1663,-2.1738,-4.7829,-4.7724,-4.7141,-4.6975,-4.7016,-4.5801,-4.4736,-4.3828,-4.3439,-4.3566,-4.3836,-4.253,-4.2138,-4.2442,-4.112,-4.0505,-4.0505,-4.0505,-4.0505,-4.0505,-4.0505,-4.032,-4.0013,-3.9644,-3.9185,-3.8567,-3.82,-3.7677,-3.7092,-3.7061,-3.6692,-3.6045,-3.5676,-3.5306,-3.5059,-3.469,-3.4351,-3.4012,-3.3306,-3.2628,-3.1979,-3.1582,-3.1243,-3.0936,-3.032,-2.9617,-2.8996,-2.8658,-2.8165,-2.7519,-2.7488,-2.7488,-2.7488,-2.7488,-2.7457,-2.7434,-2.7765,-2.795,-2.795,-2.8203,-2.8411,-2.8411,-2.8411,-2.8165,-2.755,-2.7434,-2.7457,-2.7488,-2.7488,-2.7488,-2.7488,-2.7488,-2.7357,-2.7033,-2.7017,-2.6829,-2.6373,-2.6115,-2.5993,-2.5874,-2.5772,-2.577,-2.5917,-2.5712,-2.5438,-2.5027,-2.3802,-2.2791,-2.2409,-2.2029,-2.1797,-2.1797,-2.1797,-2.1797,-2.1797,-2.1797,-2.1768,-2.1708,-2.165,-2.1559,-2.1433,-2.1356,-2.1309,-2.1293,-2.1293,-2.1293,-2.1293,-2.1293,-2.1324,-2.1387,-2.1385,-2.1464,-2.1574,-2.1526,-2.1572,-4.7095,-4.672,-4.6667,-4.6667,-4.6604,-4.5729,-4.4915,-4.4287,-4.3589,-4.3527,-4.3728,-4.2644,-4.2328,-4.2442,-4.1274,-4.0659,-4.0505,-4.0505,-4.0505,-4.0505,-4.0505,-4.0505,-4.0443,-3.9951,-3.9644,-3.9459,-3.897,-3.8385,-3.7769,-3.7584,-3.7153,-3.6507,-3.5984,-3.5707,-3.5737,-3.5213,-3.4905,-3.469,-3.4168,-3.346,-3.2628,-3.1951,-3.164,-3.1582,-3.0997,-3.0381,-2.9889,-2.9679,-2.9371,-2.8904,-2.8719,-2.8627,-2.8627,-2.8504,-2.8411,-2.8411,-2.8411,-2.8411,-2.8411,-2.8411,-2.8411,-2.8411,-2.8411,-2.8411,-2.8411,-2.8411,-2.8411,-2.8411,-2.835,-2.8381,-2.835,-2.835,-2.8196,-2.7673,-2.7682,-2.7419,-2.6838,-2.652,-2.6251,-2.6143,-2.5862,-2.5772,-2.5728,-2.5844,-2.5625,-2.4872,-2.3951,-2.3307,-2.2892,-2.2378,-2.2047,-2.1831,-2.1797,-2.1797,-2.1797,-2.1797,-2.1783,-2.1723,-2.1632,-2.1556,-2.1464,-2.1371,-2.1293,-2.1293,-2.1293,-2.1293,-2.1293,-2.1293,-2.1324,-2.1339,-2.1356,-2.1371,-2.1435,-2.1371,-2.1371,-4.6386,-4.6414,-4.6098,-4.6035,-4.607,-4.555,-4.4945,-4.4287,-4.3589,-4.3478,-4.3654,-4.3152,-4.2748,-4.2535,-4.1832,-4.1155,-4.0566,-4.0505,-4.0505,-4.0505,-4.0505,-4.0505,-4.0505,-4.0413,-4.0074,-3.9582,-3.9428,-3.9062,-3.8415,-3.78,-3.7184,-3.6569,-3.6415,-3.6384,-3.6353,-3.6292,-3.5984,-3.5399,-3.5367,-3.4629,-3.3367,-3.2659,-3.2321,-3.229,-3.167,-3.1301,-3.1147,-3.0628,-3.0263,-3.0171,-2.9617,-2.9279,-2.9273,-2.8725,-2.8411,-2.8442,-2.8442,-2.8411,-2.8411,-2.8411,-2.8442,-2.8411,-2.8473,-2.8473,-2.8442,-2.8442,-2.8411,-2.8411,-2.8411,-2.8411,-2.8411,-2.8411,-2.835,-2.8258,-2.8251,-2.809,-2.7566,-2.751,-2.7158,-2.6083,-2.6161,-2.6094,-2.5753,-2.571,-2.5495,-2.4996,-2.4638,-2.4081,-2.3226,-2.2764,-2.2432,-2.1981,-2.1797,-2.1797,-2.1797,-2.1797,-2.1797,-2.1768,-2.1663,-2.1604,-2.1543,-2.1402,-2.1293,-2.1293,-2.1293,-2.1293,-2.1293,-2.1293,-2.1293,-2.1293,-2.1246,-2.1215,-2.1183,-2.1135,-2.1199,-4.5661,-4.5249,-4.5573,-4.5989,-4.6413,-4.5947,-4.5388,-4.4855,-4.4197,-4.3838,-4.3675,-4.3521,-4.3267,-4.2971,-4.2442,-4.1801,-4.1186,-4.1155,-4.094,-4.0536,-4.0505,-4.0505,-4.0505,-4.0505,-4.032,-4.0105,-4.0074,-3.9736,-3.9093,-3.8415,-3.7738,-3.7153,-3.7092,-3.6907,-3.6538,-3.6507,-3.6353,-3.6107,-3.5706,-3.5183,-3.4568,-3.3552,-3.2782,-3.2413,-3.2105,-3.1767,-3.1424,-3.112,-3.0812,-3.0417,-3.014,-2.9986,-2.9986,-2.971,-2.9587,-2.9581,-2.9187,-2.8996,-2.8996,-2.8996,-2.9181,-2.9525,-2.9587,-2.9433,-2.9058,-2.8996,-2.8818,-2.8473,-2.8411,-2.8411,-2.8411,-2.8411,-2.8411,-2.8411,-2.8411,-2.8312,-2.809,-2.7775,-2.7385,-2.7002,-2.6462,-2.6109,-2.5918,-2.5709,-2.5473,-2.5263,-2.5005,-2.4435,-2.3982,-2.3325,-2.2731,-2.2432,-2.2081,-2.1831,-2.1797,-2.1797,-2.1797,-2.1783,-2.1678,-2.1604,-2.1574,-2.145,-2.1293,-2.1293,-2.1293,-2.1293,-2.1293,-2.1293,-2.1293,-2.123,-2.1183,-2.1151,-2.1103,-2.1038,-2.1006,-4.499,-4.4387,-4.5138,-4.5956,-4.6565,-4.6191,-4.5798,-4.54,-4.4635,-4.4128,-4.3867,-4.3726,-4.3559,-4.3351,-4.2971,-4.2437,-4.1925,-4.1678,-4.1309,-4.0816,-4.0597,-4.0505,-4.0505,-4.0505,-4.0505,-4.0505,-4.0474,-4.0136,-3.9524,-3.9029,-3.8446,-3.7861,-3.7769,-3.743,-3.6846,-3.6753,-3.6661,-3.6445,-3.6014,-3.5676,-3.5398,-3.4506,-3.3552,-3.2782,-3.269,-3.2351,-3.1705,-3.1701,-3.1459,-3.0971,-3.0782,-3.0663,-3.0663,-3.0479,-3.0386,-3.0356,-2.9956,-2.9679,-2.9704,-2.9648,-2.9863,-3.0325,-3.0386,-3.0202,-2.9771,-2.9648,-2.9458,-2.9089,-2.8965,-2.8904,-2.8411,-2.8411,-2.8411,-2.8411,-2.8411,-2.8411,-2.8374,-2.8014,-2.7791,-2.7603,-2.6992,-2.6419,-2.6216,-2.5899,-2.5689,-2.55,-2.5116,-2.4717,-2.4661,-2.3881,-2.326,-2.3078,-2.2498,-2.2032,-2.1864,-2.1797,-2.1797,-2.1768,-2.1678,-2.1604,-2.1589,-2.1435,-2.1293,-2.1293,-2.1293,-2.1293,-2.1293,-2.1293,-2.1262,-2.1199,-2.1103,-2.107,-2.099,-2.0925,-2.086,-4.4228,-4.3859,-4.5,-4.564,-4.5972,-4.6004,-4.601,-4.5845,-4.4792,-4.4317,-4.4208,-4.3897,-4.3714,-4.3633,-4.3381,-4.3002,-4.2504,-4.1986,-4.1648,-4.1494,-4.0874,-4.0536,-4.0505,-4.0505,-4.0505,-4.0566,-4.0505,-4.0166,-3.9585,-3.9493,-3.9154,-3.8508,-3.8477,-3.8108,-3.7554,-3.74,-3.7123,-3.6599,-3.6445,-3.6138,-3.5584,-3.543,-3.4722,-3.3552,-3.3367,-3.3059,-3.2444,-3.2351,-3.2321,-3.229,-3.1674,-3.1336,-3.1305,-3.0812,-3.0479,-3.0417,-3.0386,-3.0356,-3.0356,-3.0356,-3.0417,-3.0479,-3.0571,-3.0417,-3.0386,-3.0356,-3.0289,-3.0263,-3.014,-2.971,-2.875,-2.8565,-2.8473,-2.8411,-2.8411,-2.8411,-2.8411,-2.8415,-2.8201,-2.7791,-2.7609,-2.7174,-2.6386,-2.6233,-2.5891,-2.5554,-2.5298,-2.5086,-2.4668,-2.4432,-2.4152,-2.3735,-2.3177,-2.2548,-2.1981,-2.1797,-2.1797,-2.1768,-2.1693,-2.1604,-2.1543,-2.1466,-2.1356,-2.1293,-2.1293,-2.1293,-2.1293,-2.1262,-2.1231,-2.1151,-2.1023,-2.0942,-2.0924,-2.0859,-2.0778,-4.3852,-4.3926,-4.4537,-4.523,-4.5911,-4.6079,-4.6063,-4.5951,-4.5687,-4.5095,-4.4377,-4.4158,-4.3948,-4.3714,-4.359,-4.3373,-4.3063,-4.2934,-4.2663,-4.2263,-4.1986,-4.1863,-4.1766,-4.1432,-4.1217,-4.1155,-4.0755,-4.0382,-4.0166,-4.0136,-3.9797,-3.9213,-3.9154,-3.8816,-3.82,-3.7707,-3.7369,-3.7123,-3.6722,-3.6384,-3.6199,-3.6138,-3.5676,-3.4783,-3.4351,-3.3767,-3.3059,-3.3059,-3.2844,-3.2413,-3.2136,-3.204,-3.2013,-3.1797,-3.149,-3.1089,-3.1028,-3.1028,-3.1028,-3.1028,-3.1243,-3.1643,-3.1674,-3.1459,-3.1151,-3.1028,-3.0874,-3.054,-3.0417,-3.0079,-2.9771,-2.9304,-2.8849,-2.8504,-2.8411,-2.8442,-2.8411,-2.8429,-2.8384,-2.8201,-2.7968,-2.7418,-2.6732,-2.6178,-2.5863,-2.5629,-2.533,-2.5098,-2.4894,-2.4673,-2.445,-2.425,-2.3784,-2.3358,-2.3192,-2.2264,-2.1797,-2.1753,-2.1693,-2.1635,-2.1559,-2.1435,-2.1309,-2.1293,-2.1293,-2.1293,-2.1293,-2.123,-2.1199,-2.1119,-2.099,-2.0909,-2.0811,-2.0811,-2.0728,-4.3253,-4.3669,-4.4021,-4.4676,-4.5578,-4.5956,-4.6123,-4.6178,-4.6198,-4.5729,-4.4994,-4.4736,-4.4368,-4.3948,-4.3967,-4.3801,-4.3472,-4.3455,-4.3304,-4.291,-4.2725,-4.2602,-4.254,-4.214,-4.1925,-4.1832,-4.1217,-4.0786,-4.0505,-4.0505,-4.0259,-3.9828,-3.9797,-3.9524,-3.8846,-3.8385,-3.8077,-3.7769,-3.7153,-3.6815,-3.6784,-3.6599,-3.6292,-3.583,-3.5398,-3.472,-3.3798,-3.3521,-3.3213,-3.2752,-3.2505,-3.2413,-3.2413,-3.2413,-3.2198,-3.1797,-3.1732,-3.1705,-3.1705,-3.1732,-3.1921,-3.2321,-3.2382,-3.2167,-3.1767,-3.1736,-3.149,-3.1182,-3.1059,-3.1028,-3.0689,-3.032,-2.9766,-2.9156,-2.8873,-2.875,-2.8719,-2.8535,-2.8484,-2.8511,-2.8272,-2.7727,-2.715,-2.6673,-2.6373,-2.6135,-2.5612,-2.5285,-2.5247,-2.4946,-2.4705,-2.4733,-2.4362,-2.4095,-2.3901,-2.3258,-2.2544,-2.2381,-2.181,-2.1701,-2.1624,-2.1467,-2.1309,-2.1293,-2.1293,-2.1293,-2.1262,-2.1247,-2.1167,-2.1087,-2.0974,-2.0877,-2.0844,-2.0811,-2.0712,-4.2435,-4.297,-4.3423,-4.4115,-4.489,-4.5549,-4.6135,-4.6388,-4.6221,-4.6109,-4.5938,-4.5574,-4.4945,-4.4447,-4.4429,-4.4248,-4.3793,-4.3533,-4.3462,-4.3525,-4.3033,-4.2786,-4.2786,-4.2663,-4.2479,-4.2386,-4.1863,-4.1186,-4.0536,-4.0505,-4.0443,-4.0443,-4.0413,-4.0074,-3.949,-3.9336,-3.9093,-3.8508,-3.7861,-3.7492,-3.743,-3.6876,-3.6538,-3.6445,-3.6353,-3.5799,-3.4597,-3.3891,-3.3552,-3.3367,-3.2813,-3.2413,-3.2413,-3.2413,-3.2382,-3.2321,-3.2379,-3.2379,-3.2351,-3.2321,-3.229,-3.2413,-3.2413,-3.2382,-3.229,-3.229,-3.2259,-3.2167,-3.2167,-3.2044,-3.149,-3.1336,-3.0997,-3.0443,-2.971,-2.9402,-2.931,-2.8842,-2.846,-2.8549,-2.848,-2.8334,-2.7875,-2.7479,-2.7145,-2.6647,-2.61,-2.5665,-2.5613,-2.5273,-2.5187,-2.5144,-2.4895,-2.4637,-2.4503,-2.4296,-2.3671,-2.3042,-2.2288,-2.1817,-2.1755,-2.1661,-2.1373,-2.1309,-2.1293,-2.1293,-2.1293,-2.123,-2.1183,-2.1103,-2.099,-2.0877,-2.0844,-2.0778,-2.0695,-4.2239,-4.2873,-4.3067,-4.3689,-4.4565,-4.5092,-4.564,-4.6135,-4.6432,-4.644,-4.6139,-4.6028,-4.5633,-4.4975,-4.4608,-4.4358,-4.4278,-4.3988,-4.3915,-4.4044,-4.3973,-4.3925,-4.3833,-4.3531,-4.2786,-4.2017,-4.1709,-4.1247,-4.0628,-4.0505,-4.0505,-4.0505,-4.0505,-4.0382,-4.0136,-3.9736,-3.937,-3.9154,-3.8539,-3.7984,-3.7554,-3.7307,-3.6969,-3.6538,-3.6476,-3.6261,-3.5861,-3.5214,-3.4659,-3.4197,-3.346,-3.2875,-3.2505,-3.2413,-3.2413,-3.2413,-3.2413,-3.2413,-3.2413,-3.2413,-3.2413,-3.2413,-3.2413,-3.2413,-3.2413,-3.2413,-3.2413,-3.2413,-3.2382,-3.2259,-3.2136,-3.2074,-3.1613,-3.0509,-3.0233,-3.0079,-2.9956,-2.9433,-2.8935,-2.8552,-2.8484,-2.836,-2.8137,-2.7805,-2.7357,-2.7111,-2.6517,-2.6028,-2.5598,-2.5592,-2.5379,-2.5167,-2.5074,-2.5102,-2.4977,-2.4863,-2.4493,-2.3869,-2.3111,-2.2259,-2.2098,-2.1856,-2.1582,-2.1324,-2.1293,-2.1293,-2.1293,-2.1262,-2.1215,-2.1135,-2.1054,-2.0957,-2.0827,-2.0761,-2.0695,-4.1944,-4.2582,-4.2679,-4.3259,-4.4115,-4.463,-4.5184,-4.5776,-4.6314,-4.6388,-4.6267,-4.6423,-4.6194,-4.5568,-4.5203,-4.4956,-4.485,-4.4669,-4.4564,-4.4555,-4.455,-4.4572,-4.4541,-4.4209,-4.3439,-4.2448,-4.2078,-4.1617,-4.0905,-4.0628,-4.0505,-4.0505,-4.0505,-4.0505,-4.0474,-4.0105,-3.9859,-3.9767,-3.9213,-3.8692,-3.8231,-3.7769,-3.7307,-3.6907,-3.663,-3.6507,-3.6476,-3.6076,-3.5583,-3.4905,-3.4197,-3.349,-3.2844,-3.2782,-3.2659,-3.2444,-3.2413,-3.2413,-3.2413,-3.2413,-3.2413,-3.2413,-3.2413,-3.2413,-3.2413,-3.2413,-3.2413,-3.2413,-3.2413,-3.2413,-3.2382,-3.2382,-3.1982,-3.1274,-3.0936,-3.0663,-3.0386,-2.9802,-2.9279,-2.8842,-2.8596,-2.8442,-2.8264,-2.8008,-2.7599,-2.7476,-2.6987,-2.6497,-2.6044,-2.5966,-2.5664,-2.5455,-2.5457,-2.5483,-2.5457,-2.5334,-2.5222,-2.4688,-2.4066,-2.3161,-2.2621,-2.2231,-2.1907,-2.1454,-2.1293,-2.1293,-2.1293,-2.1293,-2.1278,-2.1183,-2.1103,-2.0973,-2.0892,-2.0811,-2.0728,-4.1597,-4.2092,-4.2338,-4.2873,-4.3614,-4.4115,-4.4723,-4.5367,-4.573,-4.609,-4.6462,-4.6667,-4.6531,-4.6172,-4.6075,-4.5771,-4.5465,-4.5402,-4.5314,-4.5038,-4.4833,-4.4695,-4.4572,-4.4517,-4.4086,-4.3439,-4.2879,-4.2325,-4.1648,-4.1089,-4.0597,-4.0659,-4.0659,-4.0536,-4.0505,-4.0474,-4.0413,-4.029,-3.9828,-3.9554,-3.9305,-3.8354,-3.7584,-3.7461,-3.6907,-3.6599,-3.6476,-3.6415,-3.6107,-3.5491,-3.4844,-3.4227,-3.3614,-3.346,-3.3183,-3.2628,-3.2475,-3.2444,-3.2413,-3.2413,-3.2413,-3.2413,-3.2413,-3.2413,-3.2413,-3.2505,-3.2598,-3.2598,-3.2628,-3.2659,-3.2659,-3.2567,-3.2444,-3.2321,-3.1767,-3.1213,-3.054,-2.9956,-2.9679,-2.9402,-2.8904,-2.8473,-2.851,-2.8266,-2.8125,-2.7954,-2.743,-2.7048,-2.6761,-2.6413,-2.6103,-2.5942,-2.5801,-2.5702,-2.5623,-2.5419,-2.5315,-2.5234,-2.4734,-2.4129,-2.3145,-2.2671,-2.2037,-2.1584,-2.1293,-2.1293,-2.1293,-2.1293,-2.1262,-2.1135,-2.1086,-2.099,-2.0924,-2.0859,-2.0728,-4.1498,-4.1845,-4.2092,-4.2533,-4.3115,-4.3614,-4.4134,-4.4723,-4.5138,-4.5595,-4.6046,-4.6314,-4.6491,-4.6591,-4.6232,-4.6062,-4.5992,-4.5751,-4.5697,-4.5667,-4.5288,-4.4949,-4.4664,-4.461,-4.4271,-4.3685,-4.3408,-4.3002,-4.2386,-4.2078,-4.174,-4.134,-4.1309,-4.1032,-4.0597,-4.0536,-4.0505,-4.0474,-4.0351,-3.9951,-3.9521,-3.9182,-3.8477,-3.7554,-3.7338,-3.6969,-3.6569,-3.6507,-3.6168,-3.5553,-3.5367,-3.4936,-3.4291,-3.4198,-3.3891,-3.3306,-3.3121,-3.2906,-3.2536,-3.2475,-3.2444,-3.2413,-3.2536,-3.2413,-3.2413,-3.2875,-3.309,-3.3213,-3.3552,-3.3889,-3.3827,-3.3429,-3.2998,-3.2475,-3.2228,-3.1859,-3.1274,-3.0966,-3.072,-3.0197,-2.9525,-2.9193,-2.8934,-2.8503,-2.8105,-2.794,-2.7709,-2.7387,-2.7049,-2.6964,-2.6665,-2.6173,-2.5951,-2.5843,-2.5713,-2.5508,-2.5413,-2.5538,-2.5306,-2.5038,-2.4024,-2.3126,-2.2297,-2.1487,-2.1358,-2.1293,-2.1293,-2.1293,-2.1215,-2.1151,-2.1103,-2.1006,-2.0908,-2.0794,-2.0712,-4.1684,-4.1696,-4.1895,-4.2239,-4.2755,-4.3163,-4.3566,-4.4115,-4.4583,-4.5046,-4.5458,-4.5911,-4.6225,-4.6462,-4.6415,-4.644,-4.6552,-4.6406,-4.6286,-4.6172,-4.5879,-4.5331,-4.4749,-4.461,-4.4394,-4.4055,-4.3747,-4.3408,-4.3002,-4.2756,-4.2386,-4.2109,-4.2017,-4.1648,-4.1063,-4.097,-4.0816,-4.0566,-4.0505,-4.0259,-3.9951,-3.9613,-3.9185,-3.8385,-3.8108,-3.7615,-3.6999,-3.6661,-3.6292,-3.5984,-3.5922,-3.5645,-3.4998,-3.4905,-3.4597,-3.3921,-3.386,-3.3704,-3.3367,-3.3275,-3.3303,-3.3303,-3.3303,-3.3275,-3.3396,-3.3673,-3.386,-3.3919,-3.4289,-3.4443,-3.4443,-3.4075,-3.3552,-3.2998,-3.2813,-3.2536,-3.1886,-3.152,-3.1243,-3.0782,-3.0263,-2.9751,-2.9618,-2.8885,-2.8455,-2.8203,-2.7916,-2.759,-2.7289,-2.7267,-2.7122,-2.6642,-2.6366,-2.6333,-2.6082,-2.582,-2.5652,-2.5721,-2.5457,-2.5292,-2.4634,-2.3561,-2.2604,-2.1827,-2.1552,-2.1293,-2.1277,-2.1294,-2.1231,-2.1151,-2.1103,-2.1022,-2.0908,-2.0794,-2.0695,-4.2025,-4.1726,-4.1723,-4.1993,-4.2387,-4.2679,-4.3115,-4.3566,-4.4021,-4.4397,-4.4815,-4.5413,-4.5685,-4.5895,-4.6314,-4.6741,-4.6814,-4.6927,-4.6856,-4.661,-4.6305,-4.5834,-4.5049,-4.4849,-4.4733,-4.4486,-4.3895,-4.3741,-4.3512,-4.3051,-4.2744,-4.2579,-4.2585,-4.2252,-4.1664,-4.1515,-4.1181,-4.0716,-4.0536,-4.0474,-4.032,-3.992,-3.9551,-3.9247,-3.8662,-3.8077,-3.7461,-3.6969,-3.6599,-3.6476,-3.6507,-3.6138,-3.5614,-3.5584,-3.5245,-3.4751,-3.4597,-3.4536,-3.4443,-3.4289,-3.4412,-3.432,-3.4351,-3.4474,-3.4382,-3.4474,-3.4597,-3.4597,-3.469,-3.4813,-3.469,-3.4628,-3.4258,-3.3675,-3.346,-3.309,-3.2567,-3.1921,-3.1516,-3.1486,-3.0878,-3.0492,-3.0143,-2.9646,-2.9035,-2.8793,-2.8411,-2.7995,-2.7725,-2.7595,-2.7429,-2.708,-2.693,-2.6949,-2.6576,-2.6184,-2.6042,-2.5901,-2.5424,-2.5144,-2.4761,-2.3876,-2.2974,-2.2279,-2.1843,-2.1504,-2.1294,-2.1262,-2.1215,-2.1151,-2.1119,-2.099,-2.086,-2.0811,-2.0745,-4.2133,-4.2104,-4.1781,-4.1746,-4.1895,-4.2141,-4.2582,-4.3067,-4.3163,-4.3594,-4.4143,-4.4583,-4.4954,-4.5321,-4.5866,-4.618,-4.6447,-4.677,-4.6834,-4.6647,-4.6819,-4.6488,-4.5935,-4.5602,-4.5095,-4.4657,-4.4327,-4.4129,-4.3999,-4.3701,-4.3442,-4.2917,-4.2856,-4.2552,-4.1949,-4.157,-4.1245,-4.1005,-4.0712,-4.0566,-4.0566,-4.0351,-4.0013,-3.9551,-3.8875,-3.8198,-3.7646,-3.7369,-3.703,-3.663,-3.6476,-3.6353,-3.623,-3.6199,-3.5891,-3.546,-3.5275,-3.509,-3.4659,-3.4628,-3.4505,-3.4628,-3.469,-3.4505,-3.4536,-3.5059,-3.5275,-3.5398,-3.5737,-3.5707,-3.5367,-3.5306,-3.4906,-3.4352,-3.3829,-3.3429,-3.309,-3.2567,-3.2167,-3.1986,-3.1505,-3.0999,-3.0833,-3.0125,-2.9629,-2.9402,-2.8959,-2.8457,-2.8184,-2.794,-2.763,-2.7289,-2.7255,-2.7198,-2.7064,-2.6601,-2.6181,-2.5905,-2.5422,-2.5045,-2.4703,-2.4332,-2.3501,-2.2719,-2.208,-2.1761,-2.1472,-2.1231,-2.1199,-2.1119,-2.1086,-2.0973,-2.0908,-2.0859,-2.0745,-4.2473,-4.2159,-4.171,-4.1597,-4.1696,-4.1895,-4.2141,-4.2484,-4.2658,-4.297,-4.3451,-4.3879,-4.4303,-4.4815,-4.5276,-4.573,-4.609,-4.6535,-4.6753,-4.6787,-4.6984,-4.6875,-4.6538,-4.6264,-4.5804,-4.4994,-4.435,-4.4143,-4.3957,-4.384,-4.3551,-4.3163,-4.3133,-4.2848,-4.2312,-4.194,-4.1852,-4.1637,-4.1127,-4.0896,-4.0966,-4.0628,-4.0378,-3.9818,-3.9168,-3.8519,-3.8274,-3.7541,-3.7143,-3.6778,-3.6472,-3.632,-3.6476,-3.6507,-3.6322,-3.6076,-3.5953,-3.583,-3.5521,-3.546,-3.5491,-3.5399,-3.543,-3.5429,-3.5491,-3.5799,-3.5922,-3.6014,-3.623,-3.6322,-3.6014,-3.5953,-3.5614,-3.5091,-3.4599,-3.4108,-3.3405,-3.276,-3.233,-3.2241,-3.1855,-3.1566,-3.1185,-3.0591,-3.0268,-3.0008,-2.9022,-2.8547,-2.8308,-2.8064,-2.776,-2.751,-2.7434,-2.7376,-2.74,-2.6994,-2.6349,-2.5895,-2.5404,-2.503,-2.4701,-2.4382,-2.4062,-2.3333,-2.2582,-2.2079,-2.1776,-2.1504,-2.1215,-2.1071,-2.099,-2.0957,-2.0908,-2.0859,-2.0712,-4.2814,-4.229,-4.169,-4.1503,-4.1597,-4.1647,-4.1796,-4.2092,-4.2239,-4.2484,-4.2825,-4.328,-4.3737,-4.4162,-4.4676,-4.523,-4.573,-4.618,-4.6403,-4.6594,-4.6856,-4.6804,-4.6599,-4.6436,-4.612,-4.5312,-4.4525,-4.3995,-4.3668,-4.3438,-4.315,-4.3101,-4.313,-4.2812,-4.262,-4.2505,-4.2296,-4.2045,-4.1547,-4.129,-4.1408,-4.0918,-4.0515,-3.9973,-3.9569,-3.9005,-3.8607,-3.794,-3.7243,-3.7059,-3.6425,-3.6281,-3.638,-3.6476,-3.6414,-3.6414,-3.6321,-3.6229,-3.6137,-3.6229,-3.626,-3.6445,-3.6414,-3.6384,-3.6352,-3.6291,-3.626,-3.6321,-3.6383,-3.6414,-3.6445,-3.6415,-3.6138,-3.5707,-3.5522,-3.4817,-3.375,-3.2837,-3.2534,-3.2135,-3.1959,-3.1758,-3.1554,-3.1168,-3.0904,-3.049,-2.9505,-2.8757,-2.8577,-2.8274,-2.7974,-2.764,-2.751,-2.7525,-2.7582,-2.7254,-2.6627,-2.6153,-2.5536,-2.5068,-2.4761,-2.4419,-2.4115,-2.3771,-2.3174,-2.2643,-2.2156,-2.1823,-2.1518,-2.1149,-2.0973,-2.0973,-2.0924,-2.0811,-2.0695,-4.3389,-4.284,-4.2265,-4.1819,-4.14,-4.1374,-4.1498,-4.1746,-4.1845,-4.1993,-4.2289,-4.2776,-4.3018,-4.3355,-4.3879,-4.4537,-4.5184,-4.5549,-4.5821,-4.6016,-4.624,-4.6315,-4.6446,-4.6162,-4.5789,-4.5429,-4.4691,-4.3983,-4.346,-4.2942,-4.2632,-4.2322,-4.2404,-4.2408,-4.2364,-4.2238,-4.2147,-4.2119,-4.1731,-4.1586,-4.1522,-4.1043,-4.0461,-3.9954,-3.9652,-3.9244,-3.8682,-3.8421,-3.8095,-3.7417,-3.6857,-3.6589,-3.6381,-3.6309,-3.6223,-3.6132,-3.6226,-3.6226,-3.6163,-3.61,-3.6163,-3.6226,-3.6258,-3.6258,-3.6258,-3.6227,-3.6226,-3.6195,-3.6226,-3.6289,-3.6289,-3.6352,-3.6352,-3.6014,-3.5584,-3.5095,-3.4547,-3.3909,-3.3032,-3.2423,-3.2125,-3.1828,-3.162,-3.1474,-3.1267,-3.0911,-3.0283,-2.9624,-2.9355,-2.8846,-2.8308,-2.7944,-2.7585,-2.7655,-2.7755,-2.7346,-2.689,-2.6549,-2.5986,-2.5255,-2.4884,-2.4438,-2.4092,-2.3767,-2.3594,-2.3235,-2.2758,-2.2296,-2.2026,-2.1799,-2.1451,-2.1118,-2.1083,-2.1079,-2.0806,-4.3546,-4.2971,-4.2396,-4.1821,-4.1376,-4.1324,-4.1348,-4.1498,-4.1498,-4.1647,-4.1895,-4.219,-4.2533,-4.2873,-4.3211,-4.3832,-4.4443,-4.4815,-4.5046,-4.5321,-4.552,-4.5747,-4.6046,-4.5711,-4.5564,-4.5229,-4.4618,-4.3961,-4.3371,-4.2678,-4.2178,-4.1852,-4.1778,-4.1744,-4.1881,-4.1867,-4.2027,-4.21,-4.1921,-4.1756,-4.1738,-4.1085,-4.0254,-3.9905,-3.945,-3.8977,-3.8457,-3.8085,-3.789,-3.7434,-3.6907,-3.6433,-3.6145,-3.6081,-3.6049,-3.5937,-3.6005,-3.6068,-3.6005,-3.6005,-3.6037,-3.61,-3.61,-3.61,-3.61,-3.61,-3.6037,-3.6037,-3.6037,-3.607,-3.6132,-3.6195,-3.6195,-3.6071,-3.5765,-3.5398,-3.4939,-3.4483,-3.3728,-3.2884,-3.2554,-3.2195,-3.1626,-3.1538,-3.1509,-3.1241,-3.0853,-3.0462,-3.0043,-2.9505,-2.8846,-2.8368,-2.8004,-2.785,-2.7896,-2.7645,-2.7231,-2.6838,-2.6415,-2.5689,-2.5055,-2.4645,-2.4216,-2.3824,-2.3681,-2.3515,-2.3368,-2.2898,-2.2681,-2.2463,-2.2244,-2.1958,-2.1572,-2.1315,-2.1152,-4.3546,-4.2971,-4.2396,-4.1847,-4.135,-4.1324,-4.1324,-4.1324,-4.1324,-4.1424,-4.1597,-4.1746,-4.2092,-4.2533,-4.2852,-4.319,-4.3812,-4.4068,-4.4303,-4.4537,-4.4769,-4.5046,-4.523,-4.5338,-4.5235,-4.4801,-4.4413,-4.3828,-4.3203,-4.2533,-4.2059,-4.1687,-4.1252,-4.1199,-4.144,-4.1535,-4.198,-4.2076,-4.2016,-4.1852,-4.1646,-4.0846,-3.9879,-3.9551,-3.8964,-3.8472,-3.8011,-3.7767,-3.7645,-3.7383,-3.691,-3.6328,-3.5933,-3.5977,-3.5929,-3.5663,-3.5744,-3.5782,-3.5782,-3.575,-3.5686,-3.575,-3.5814,-3.5814,-3.5782,-3.5718,-3.5718,-3.5782,-3.5814,-3.5846,-3.5846,-3.5941,-3.5941,-3.5941,-3.5881,-3.5696,-3.5207,-3.4779,-3.4478,-3.3786,-3.3215,-3.2647,-3.2138,-3.1839,-3.1869,-3.1511,-3.1122,-3.0791,-3.0372,-3.0103,-2.9535,-2.8936,-2.8517,-2.8184,-2.809,-2.803,-2.7625,-2.7193,-2.6723,-2.6129,-2.5475,-2.4935,-2.4491,-2.4023,-2.3648,-2.3518,-2.3487,-2.3488,-2.323,-2.3033,-2.2998,-2.2762,-2.2251,-2.2027,-2.1929,-4.3546,-4.2971,-4.2447,-4.1847,-4.135,-4.1324,-4.1324,-4.1324,-4.1324,-4.1324,-4.1424,-4.1597,-4.1746,-4.1993,-4.2387,-4.2755,-4.3018,-4.3307,-4.3546,-4.3757,-4.3974,-4.4115,-4.4209,-4.4443,-4.435,-4.4115,-4.4003,-4.3668,-4.3036,-4.2422,-4.2053,-4.1734,-4.1424,-4.1255,-4.1334,-4.1255,-4.1197,-4.1405,-4.1571,-4.1505,-4.1157,-4.0459,-3.9652,-3.888,-3.8409,-3.8005,-3.7548,-3.7387,-3.7472,-3.7415,-3.6928,-3.6613,-3.6515,-3.6317,-3.5809,-3.5374,-3.5184,-3.5198,-3.5129,-3.51,-3.5166,-3.5264,-3.5297,-3.5294,-3.5264,-3.5166,-3.51,-3.5034,-3.5198,-3.5392,-3.5522,-3.5621,-3.5688,-3.5688,-3.5655,-3.5591,-3.5344,-3.5102,-3.4801,-3.4715,-3.4113,-3.3395,-3.2766,-3.2497,-3.2198,-3.178,-3.1391,-3.1091,-3.0702,-3.0402,-3.0163,-2.9564,-2.9086,-2.8783,-2.8483,-2.8368,-2.8064,-2.7575,-2.71,-2.6578,-2.5938,-2.5318,-2.4789,-2.435,-2.3936,-2.3746,-2.3896,-2.3864,-2.3678,-2.3563,-2.3544,-2.3222,-2.2885,-2.2722,-2.2636,-4.2762,-4.2526,-4.2265,-4.1821,-4.135,-4.1324,-4.1324,-4.1324,-4.1324,-4.1324,-4.1298,-4.1398,-4.1547,-4.1746,-4.2141,-4.2338,-4.2484,-4.2582,-4.2776,-4.297,-4.3115,-4.3238,-4.3355,-4.3451,-4.343,-4.3259,-4.3115,-4.2909,-4.2522,-4.2395,-4.2158,-4.189,-4.1508,-4.1166,-4.1252,-4.1012,-4.0839,-4.0844,-4.0944,-4.1014,-4.0728,-4.0187,-3.9439,-3.8561,-3.8218,-3.7636,-3.7091,-3.7007,-3.7056,-3.7067,-3.6718,-3.6465,-3.6287,-3.6042,-3.5747,-3.5006,-3.5075,-3.4975,-3.4709,-3.4626,-3.4664,-3.4702,-3.4735,-3.4735,-3.4731,-3.4668,-3.4601,-3.4635,-3.4668,-3.4831,-3.4997,-3.5096,-3.5166,-3.5201,-3.5299,-3.5329,-3.5326,-3.5359,-3.518,-3.5096,-3.4981,-3.4262,-3.3603,-3.3335,-3.2946,-3.2318,-3.1959,-3.163,-3.118,-3.0702,-3.0462,-3.0193,-2.9744,-2.9382,-2.9056,-2.8816,-2.8517,-2.8094,-2.764,-2.7061,-2.6382,-2.5775,-2.5272,-2.4752,-2.4318,-2.4253,-2.4376,-2.417,-2.3926,-2.3942,-2.403,-2.3713,-2.3375,-2.328,-2.313,-4.2133,-4.1951,-4.1951,-4.1716,-4.1324,-4.1324,-4.1324,-4.1324,-4.1324,-4.1324,-4.1324,-4.1324,-4.1424,-4.1597,-4.1796,-4.1944,-4.2043,-4.1967,-4.2141,-4.2289,-4.2387,-4.2533,-4.2679,-4.2728,-4.2631,-4.2413,-4.2484,-4.2409,-4.2274,-4.2199,-4.2195,-4.21,-4.1786,-4.1488,-4.1169,-4.1048,-4.0941,-4.0606,-4.0557,-4.0559,-4.0391,-3.9887,-3.9285,-3.8671,-3.8142,-3.7529,-3.6709,-3.6706,-3.6758,-3.6626,-3.6559,-3.6297,-3.6031,-3.5997,-3.5624,-3.5027,-3.4956,-3.4761,-3.4491,-3.4311,-3.4261,-3.4185,-3.4128,-3.4094,-3.4094,-3.4128,-3.4128,-3.4094,-3.4094,-3.423,-3.4399,-3.4496,-3.4601,-3.4735,-3.4868,-3.4935,-3.5034,-3.5067,-3.5166,-3.5207,-3.5123,-3.5128,-3.459,-3.4262,-3.3724,-3.2946,-3.2527,-3.2198,-3.166,-3.1062,-3.0883,-3.0731,-3.0582,-3.0163,-2.9744,-2.9415,-2.9056,-2.8637,-2.8184,-2.7543,-2.6865,-2.6322,-2.5825,-2.5305,-2.4793,-2.4599,-2.4654,-2.4406,-2.4162,-2.4081,-2.406,-2.41,-2.3973,-2.3838,-2.3713,-4.1847,-4.1376,-4.1376,-4.1376,-4.1324,-4.1324,-4.1324,-4.1324,-4.1324,-4.1324,-4.1324,-4.1324,-4.1298,-4.1348,-4.1398,-4.1547,-4.1746,-4.1746,-4.1845,-4.2043,-4.2115,-4.2141,-4.219,-4.2141,-4.2141,-4.2092,-4.2092,-4.2043,-4.2065,-4.2035,-4.2252,-4.2398,-4.2025,-4.2093,-4.1852,-4.1406,-4.1023,-4.0625,-4.0399,-4.0095,-3.9885,-3.9498,-3.9026,-3.8706,-3.8295,-3.7759,-3.6935,-3.6798,-3.6687,-3.6436,-3.6206,-3.6058,-3.5839,-3.5812,-3.5459,-3.508,-3.4878,-3.4651,-3.4238,-3.4102,-3.3923,-3.3565,-3.3374,-3.3409,-3.3409,-3.3374,-3.3374,-3.3409,-3.3479,-3.3583,-3.3785,-3.3888,-3.4059,-3.4264,-3.4433,-3.4631,-3.4702,-3.4835,-3.4935,-3.5162,-3.5201,-3.5177,-3.5245,-3.4859,-3.4352,-3.3604,-3.2916,-3.2557,-3.2049,-3.1511,-3.1421,-3.1331,-3.1331,-3.1002,-3.0552,-3.0133,-2.9714,-2.9265,-2.8786,-2.8088,-2.7347,-2.6828,-2.6537,-2.5862,-2.5379,-2.5165,-2.4862,-2.4594,-2.4319,-2.4113,-2.4017,-2.405,-2.4143,-2.4112,-2.4132,-4.1507,-4.1324,-4.1324,-4.1324,-4.1324,-4.1324,-4.1324,-4.1324,-4.1324,-4.1324,-4.1324,-4.1324,-4.1324,-4.1324,-4.1324,-4.1374,-4.1474,-4.1448,-4.1547,-4.1547,-4.1597,-4.1597,-4.1597,-4.1647,-4.1597,-4.1647,-4.1597,-4.1623,-4.1597,-4.1796,-4.1895,-4.1985,-4.2167,-4.2064,-4.1829,-4.1482,-4.1022,-4.0577,-4.0213,-3.9922,-3.9282,-3.9146,-3.8688,-3.8135,-3.8054,-3.7644,-3.7061,-3.6518,-3.64,-3.6211,-3.5832,-3.5615,-3.5494,-3.5494,-3.5319,-3.4982,-3.4929,-3.4634,-3.4163,-3.3995,-3.3761,-3.323,-3.2916,-3.2767,-3.283,-3.2846,-3.2917,-3.2917,-3.2917,-3.3023,-3.3234,-3.3304,-3.3444,-3.3785,-3.4054,-3.4225,-3.4361,-3.4467,-3.4702,-3.4902,-3.5096,-3.5231,-3.5297,-3.5365,-3.4799,-3.4233,-3.3544,-3.2916,-3.2407,-3.2019,-3.1959,-3.175,-3.169,-3.154,-3.1062,-3.0702,-3.0342,-2.9864,-2.9385,-2.8717,-2.8024,-2.7823,-2.7421,-2.6681,-2.6003,-2.5679,-2.5316,-2.4828,-2.4539,-2.4373,-2.4143,-2.3952,-2.4078,-2.4213,-2.4255,-4.1324,-4.1324,-4.1324,-4.1324,-4.1324,-4.1324,-4.1324,-4.1324,-4.1324,-4.1324,-4.1324,-4.1324,-4.1324,-4.1324,-4.1324,-4.1324,-4.1324,-4.1324,-4.1324,-4.1298,-4.1348,-4.1324,-4.1324,-4.1298,-4.1348,-4.1324,-4.1324,-4.1324,-4.1374,-4.1498,-4.1547,-4.1746,-4.1993,-4.1945,-4.1845,-4.1349,-4.0904,-4.058,-4.004,-3.9752,-3.9114,-3.8872,-3.8667,-3.8114,-3.806,-3.7828,-3.7391,-3.6919,-3.6465,-3.6133,-3.569,-3.5299,-3.5124,-3.5003,-3.4962,-3.4921,-3.4868,-3.4682,-3.4299,-3.3845,-3.3553,-3.3171,-3.2678,-3.2508,-3.2445,-3.2409,-3.2336,-3.2309,-3.2345,-3.248,-3.2696,-3.2731,-3.2846,-3.3157,-3.3437,-3.3612,-3.3854,-3.4025,-3.4366,-3.4635,-3.4802,-3.4997,-3.5294,-3.5329,-3.5038,-3.4562,-3.4143,-3.3544,-3.3036,-3.2706,-3.2497,-3.2228,-3.1929,-3.175,-3.1511,-3.1182,-3.0823,-3.0342,-2.9836,-2.9342,-2.882,-2.8589,-2.813,-2.7304,-2.6649,-2.6239,-2.5883,-2.5491,-2.5062,-2.4646,-2.4402,-2.4116,-2.3833,-2.3919,-2.3982,-4.1324,-4.1324,-4.1324,-4.1324,-4.1324,-4.1324,-4.1324,-4.1324,-4.1324,-4.1324,-4.1324,-4.1324,-4.1324,-4.1324,-4.1324,-4.1324,-4.1324,-4.1324,-4.1324,-4.1324,-4.1324,-4.1324,-4.1324,-4.1324,-4.1324,-4.1324,-4.1324,-4.1324,-4.1324,-4.1348,-4.1348,-4.1398,-4.1647,-4.1842,-4.1985,-4.1528,-4.1234,-4.1021,-4.0061,-3.9687,-3.9241,-3.8895,-3.8637,-3.8379,-3.8307,-3.8015,-3.7688,-3.7351,-3.6847,-3.6348,-3.588,-3.5409,-3.5009,-3.485,-3.4714,-3.4522,-3.4481,-3.4413,-3.4376,-3.3701,-3.3435,-3.3274,-3.2844,-3.2562,-3.2326,-3.2123,-3.2021,-3.232,-3.2085,-3.1978,-3.2044,-3.22,-3.2409,-3.2552,-3.281,-3.3058,-3.3333,-3.3675,-3.3991,-3.4298,-3.4433,-3.4601,-3.503,-3.5267,-3.5066,-3.4801,-3.4593,-3.4174,-3.3634,-3.3365,-3.3185,-3.2796,-3.2467,-3.2168,-3.1959,-3.169,-3.1331,-3.0821,-3.0376,-2.9967,-2.944,-2.9003,-2.8458,-2.7777,-2.7258,-2.6765,-2.6474,-2.621,-2.5675,-2.5131,-2.4675,-2.4327,-2.394,-2.3797,-2.4103,-4.1324,-4.1324,-4.1324,-4.1324,-4.1324,-4.1324,-4.1324,-4.1324,-4.1324,-4.1324,-4.1324,-4.1324,-4.1324,-4.1324,-4.1324,-4.1324,-4.1324,-4.1324,-4.1324,-4.1324,-4.135,-4.1324,-4.135,-4.1428,-4.1376,-4.1324,-4.1324,-4.135,-4.1324,-4.1324,-4.1324,-4.1348,-4.1398,-4.1647,-4.194,-4.1799,-4.1639,-4.1239,-4.0733,-4.0213,-3.9329,-3.8992,-3.8681,-3.8227,-3.8201,-3.8062,-3.796,-3.7632,-3.7131,-3.6647,-3.6207,-3.5473,-3.5089,-3.4905,-3.4533,-3.4424,-3.4397,-3.4397,-3.4371,-3.4091,-3.3869,-3.3515,-3.3093,-3.2802,-3.2761,-3.2797,-3.2729,-3.265,-3.2532,-3.2475,-3.2401,-3.2332,-3.2374,-3.2191,-3.2336,-3.2624,-3.2874,-3.3255,-3.3605,-3.3882,-3.4059,-3.4534,-3.4997,-3.5228,-3.5121,-3.5158,-3.5011,-3.4711,-3.4262,-3.4113,-3.3933,-3.3484,-3.3095,-3.2706,-3.2407,-3.2138,-3.1809,-3.139,-3.1034,-3.0739,-3.018,-2.9507,-2.8812,-2.8184,-2.7694,-2.726,-2.6852,-2.6445,-2.6104,-2.5629,-2.5224,-2.4817,-2.4475,-2.4515,-2.4798,-4.1324,-4.1324,-4.1324,-4.1324,-4.1324,-4.1324,-4.1324,-4.1324,-4.1324,-4.1324,-4.1324,-4.1324,-4.1324,-4.1324,-4.1324,-4.1324,-4.1324,-4.1324,-4.1559,-4.1559,-4.1638,-4.1794,-4.1899,-4.1847,-4.1873,-4.169,-4.1585,-4.1559,-4.1324,-4.1324,-4.1324,-4.1324,-4.1324,-4.1524,-4.1696,-4.169,-4.161,-4.1191,-4.0874,-4.043,-3.9728,-3.9207,-3.8667,-3.8332,-3.8077,-3.7939,-3.7906,-3.767,-3.7265,-3.6988,-3.6446,-3.5652,-3.5338,-3.4972,-3.4607,-3.4502,-3.4397,-3.4397,-3.4371,-3.4371,-3.4125,-3.3916,-3.3461,-3.3238,-3.3146,-3.3001,-3.3001,-3.2974,-3.3146,-3.2934,-3.2616,-3.2484,-3.2266,-3.2064,-3.2034,-3.2264,-3.248,-3.283,-3.3114,-3.3368,-3.3779,-3.4298,-3.4835,-3.5067,-3.5172,-3.5299,-3.5427,-3.5128,-3.4861,-3.4741,-3.4532,-3.4113,-3.3754,-3.3455,-3.3006,-3.2527,-3.2228,-3.1899,-3.1601,-3.1246,-3.0745,-3.0069,-2.9314,-2.859,-2.8041,-2.7492,-2.7026,-2.662,-2.6364,-2.6139,-2.5872,-2.5454,-2.5092,-2.5058,-2.5224,-4.1324,-4.1324,-4.1324,-4.1324,-4.1324,-4.1324,-4.1324,-4.1324,-4.1324,-4.1324,-4.1324,-4.1324,-4.1324,-4.1324,-4.1324,-4.1324,-4.1324,-4.1324,-4.1638,-4.2002,-4.2054,-4.2369,-4.2683,-4.2788,-4.25,-4.2291,-4.2185,-4.1951,-4.1428,-4.1324,-4.1324,-4.1324,-4.1324,-4.1374,-4.1398,-4.1398,-4.1395,-4.1185,-4.0949,-4.0582,-4.0088,-3.9437,-3.8993,-3.8579,-3.8266,-3.8031,-3.7946,-3.7815,-3.7508,-3.7292,-3.6933,-3.6279,-3.5783,-3.5365,-3.4946,-3.4633,-3.4502,-3.4397,-3.4397,-3.4397,-3.4397,-3.4214,-3.3875,-3.3692,-3.3549,-3.3354,-3.3316,-3.3237,-3.3263,-3.3013,-3.2764,-3.2541,-3.2289,-3.2099,-3.1867,-3.1968,-3.21,-3.2336,-3.2552,-3.2874,-3.3227,-3.375,-3.4366,-3.4735,-3.5001,-3.5198,-3.5294,-3.5362,-3.5155,-3.528,-3.504,-3.4711,-3.4382,-3.4204,-3.3724,-3.3245,-3.2677,-3.2347,-3.1959,-3.1573,-3.1071,-3.0572,-2.9899,-2.9143,-2.8389,-2.7753,-2.7316,-2.6999,-2.677,-2.6515,-2.6176,-2.5894,-2.5456,-2.5225,-2.5221,-4.1324,-4.1324,-4.1324,-4.1324,-4.1324,-4.1324,-4.1324,-4.1324,-4.1324,-4.1324,-4.1324,-4.1324,-4.1324,-4.1324,-4.1324,-4.1324,-4.1324,-4.1376,-4.1716,-4.2028,-4.2316,-4.2579,-4.2892,-4.3127,-4.2918,-4.284,-4.2709,-4.2474,-4.1951,-4.1611,-4.135,-4.1324,-4.1324,-4.1324,-4.1324,-4.1324,-4.1324,-4.1272,-4.1063,-4.0827,-4.054,-4.0017,-3.9442,-3.8893,-3.8553,-3.8266,-3.7978,-3.79,-3.7717,-3.7639,-3.7194,-3.6698,-3.6645,-3.6123,-3.56,-3.5077,-3.4711,-3.4397,-3.4397,-3.4397,-3.4397,-3.4397,-3.4214,-3.4214,-3.411,-3.3953,-3.377,-3.3692,-3.3639,-3.3535,-3.3326,-3.3066,-3.266,-3.2318,-3.2026,-3.1872,-3.1984,-3.2027,-3.2218,-3.2516,-3.2901,-3.3403,-3.4025,-3.4366,-3.4635,-3.4902,-3.51,-3.5228,-3.5359,-3.5424,-3.5429,-3.51,-3.4951,-3.4711,-3.4503,-3.4023,-3.3335,-3.2736,-3.2348,-3.1871,-3.1308,-3.0837,-3.0397,-2.9725,-2.8883,-2.8188,-2.7608,-2.7378,-2.7321,-2.6724,-2.633,-2.6107,-2.5857,-2.5626,-2.5512,-4.1324,-4.1324,-4.1324,-4.1324,-4.1324,-4.1324,-4.1324,-4.1324,-4.1324,-4.1324,-4.1324,-4.1324,-4.1324,-4.1324,-4.1324,-4.1324,-4.1324,-4.135,-4.1716,-4.2448,-4.2474,-4.3127,-4.3441,-4.365,-4.3572,-4.3467,-4.3284,-4.3049,-4.2474,-4.1951,-4.1611,-4.1324,-4.1324,-4.1324,-4.1324,-4.1324,-4.1324,-4.1324,-4.1246,-4.1089,-4.0853,-4.054,-3.9834,-3.9259,-3.8919,-3.8449,-3.8004,-3.7926,-3.79,-3.79,-3.7456,-3.722,-3.7011,-3.641,-3.6044,-3.5521,-3.5129,-3.4868,-3.4789,-3.4502,-3.445,-3.4397,-3.4397,-3.4371,-3.4371,-3.4267,-3.4241,-3.4241,-3.4267,-3.4241,-3.3953,-3.3666,-3.3143,-3.2646,-3.2254,-3.1897,-3.1834,-3.1803,-3.2017,-3.2255,-3.266,-3.3192,-3.3646,-3.3957,-3.4298,-3.4601,-3.4835,-3.4968,-3.5162,-3.5359,-3.5424,-3.534,-3.531,-3.525,-3.4981,-3.4651,-3.4053,-3.3335,-3.2676,-3.2229,-3.1605,-3.1014,-3.0573,-2.9988,-2.9319,-2.871,-2.8188,-2.8072,-2.7927,-2.7272,-2.6734,-2.6512,-2.6261,-2.5898,-2.587,-4.1324,-4.1324,-4.1324,-4.1324,-4.1324,-4.1324,-4.1324,-4.1324,-4.1324,-4.1324,-4.1324,-4.1324,-4.1324,-4.1324,-4.1324,-4.1324,-4.1324,-4.135,-4.1899,-4.2971,-4.2892,-4.3415,-4.4198,-4.4615,-4.4225,-4.4016,-4.3833,-4.3572,-4.2944,-4.2239,-4.1585,-4.1324,-4.1324,-4.1324,-4.1324,-4.1324,-4.1324,-4.1324,-4.1324,-4.1219,-4.1141,-4.0749,-4.0226,-3.9677,-3.9155,-3.8579,-3.8135,-3.7952,-3.79,-3.79,-3.7821,-3.756,-3.7168,-3.6619,-3.6305,-3.6018,-3.5652,-3.5417,-3.5208,-3.4894,-3.4633,-3.4528,-3.4424,-3.4397,-3.4397,-3.4397,-3.4397,-3.4397,-3.4371,-3.4371,-3.4162,-3.3979,-3.3587,-3.3169,-3.2764,-3.2424,-3.2172,-3.2031,-3.1883,-3.2135,-3.24,-3.2874,-3.3122,-3.3472,-3.3819,-3.4196,-3.4433,-3.4601,-3.4898,-3.5129,-3.5294,-3.5392,-3.5489,-3.5429,-3.531,-3.4981,-3.4683,-3.4023,-3.3335,-3.2526,-3.19,-3.1308,-3.072,-3.0251,-2.9784,-2.9377,-2.8971,-2.8826,-2.8507,-2.7904,-2.742,-2.7054,-2.669,-2.6382,-2.6017,-4.1324,-4.1324,-4.1324,-4.1324,-4.1324,-4.1324,-4.1324,-4.1324,-4.1324,-4.1324,-4.1324,-4.1324,-4.1324,-4.1324,-4.1324,-4.1324,-4.1324,-4.1376,-4.203,-4.2709,-4.3023,-4.365,-4.4485,-4.4668,-4.4617,-4.4591,-4.4382,-4.3885,-4.2944,-4.2108,-4.1507,-4.1324,-4.1324,-4.1324,-4.1324,-4.1324,-4.1324,-4.1324,-4.1324,-4.1324,-4.1246,-4.1167,-4.0827,-4.0226,-3.9625,-3.9024,-3.8553,-3.8083,-3.7978,-3.79,-3.79,-3.7795,-3.7691,-3.7116,-3.6828,-3.6698,-3.6253,-3.5992,-3.5757,-3.5443,-3.5129,-3.4894,-3.4763,-3.4528,-3.4397,-3.4397,-3.4397,-3.4397,-3.4397,-3.4397,-3.4371,-3.4214,-3.4031,-3.3666,-3.3273,-3.2921,-3.2568,-3.2263,-3.1925,-3.1984,-3.2191,-3.24,-3.2687,-3.298,-3.3368,-3.3646,-3.3888,-3.4094,-3.4433,-3.4731,-3.4997,-3.5129,-3.5424,-3.5427,-3.5397,-3.534,-3.4981,-3.4683,-3.4053,-3.3181,-3.2224,-3.1482,-3.0864,-3.0658,-3.0307,-2.9871,-2.9581,-2.9464,-2.9088,-2.8539,-2.8138,-2.7769,-2.7456,-2.7088,-2.6497,-4.1324,-4.1324,-4.1324,-4.1324,-4.1324,-4.1324,-4.1324,-4.1324,-4.1324,-4.1324,-4.1324,-4.1324,-4.1324,-4.1324,-4.1324,-4.1324,-4.1324,-4.1324,-4.2056,-4.2735,-4.318,-4.3781,-4.4304,-4.4694,-4.4668,-4.4642,-4.4356,-4.3729,-4.2709,-4.2186,-4.169,-4.1376,-4.1324,-4.1324,-4.1324,-4.1324,-4.1324,-4.1324,-4.1324,-4.1324,-4.1324,-4.1246,-4.101,-4.0435,-3.9886,-3.9337,-3.8762,-3.8214,-3.7978,-3.79,-3.79,-3.79,-3.7821,-3.7586,-3.7429,-3.7246,-3.6907,-3.6488,-3.6332,-3.6044,-3.5678,-3.5495,-3.5155,-3.492,-3.4763,-3.4737,-3.4424,-3.4397,-3.4397,-3.4397,-3.4397,-3.4293,-3.4241,-3.4005,-3.3587,-3.3209,-3.2882,-3.2593,-3.2261,-3.2031,-3.2182,-3.2307,-3.2482,-3.248,-3.2874,-3.3262,-3.3444,-3.3646,-3.3957,-3.4264,-3.4563,-3.4865,-3.5096,-3.5392,-3.5459,-3.5429,-3.531,-3.5011,-3.4681,-3.3568,-3.2461,-3.1626,-3.1003,-3.0801,-3.0627,-3.0393,-3.0161,-2.9987,-2.9697,-2.9175,-2.8857,-2.8511,-2.8167,-2.7797,-2.7173,-4.1324,-4.1324,-4.1324,-4.1324,-4.1324,-4.1324,-4.1324,-4.1324,-4.1324,-4.1324,-4.1324,-4.1324,-4.1324,-4.1324,-4.1324,-4.1324,-4.1376,-4.1533,-4.2213,-4.2814,-4.3154,-4.3859,-4.4408,-4.4694,-4.4643,-4.4382,-4.399,-4.3206,-4.2316,-4.1925,-4.1638,-4.1376,-4.1324,-4.1324,-4.1324,-4.1324,-4.1324,-4.1324,-4.1324,-4.1324,-4.1324,-4.1298,-4.101,-4.054,-3.9991,-3.9442,-3.8867,-3.8397,-3.8083,-3.79,-3.79,-3.79,-3.79,-3.7821,-3.7821,-3.7639,-3.7403,-3.7142,-3.6985,-3.6567,-3.6332,-3.6096,-3.5678,-3.5391,-3.526,-3.5051,-3.4737,-3.4607,-3.4607,-3.445,-3.445,-3.4424,-3.4397,-3.4319,-3.3875,-3.3483,-3.3223,-3.2962,-3.2633,-3.2316,-3.2296,-3.2439,-3.2293,-3.2235,-3.2482,-3.2886,-3.3051,-3.3262,-3.3472,-3.3785,-3.4094,-3.4399,-3.4702,-3.503,-3.5359,-3.5394,-3.5332,-3.5307,-3.4857,-3.3745,-3.2697,-3.1887,-3.1235,-3.0916,-3.0772,-3.0597,-3.0569,-3.0423,-3.0074,-2.9784,-2.949,-2.9197,-2.8851,-2.8449,-2.7821,-4.1324,-4.1324,-4.1324,-4.1324,-4.1324,-4.1324,-4.1324,-4.1324,-4.1324,-4.1324,-4.1324,-4.1324,-4.1324,-4.1324,-4.1324,-4.135,-4.1507,-4.1742,-4.2317,-4.2971,-4.3415,-4.4068,-4.4487,-4.4591,-4.4408,-4.399,-4.3467,-4.2814,-4.2056,-4.1664,-4.1455,-4.1324,-4.1324,-4.1324,-4.1324,-4.1324,-4.1324,-4.1324,-4.1324,-4.1324,-4.1324,-4.1298,-4.1298,-4.0932,-4.0566,-4.0017,-3.9442,-3.8867,-3.837,-3.8057,-3.79,-3.79,-3.79,-3.79,-3.79,-3.7874,-3.7665,-3.7639,-3.7403,-3.709,-3.6881,-3.6776,-3.6384,-3.5966,-3.5861,-3.5809,-3.5547,-3.5417,-3.526,-3.4711,-3.4607,-3.4528,-3.4502,-3.4424,-3.4136,-3.3875,-3.3602,-3.3459,-3.3223,-3.2962,-3.2764,-3.2629,-3.2308,-3.231,-3.2411,-3.2636,-3.26,-3.2789,-3.3155,-3.3417,-3.364,-3.3957,-3.4264,-3.4735,-3.5162,-3.5198,-3.5201,-3.5237,-3.5088,-3.412,-3.316,-3.2178,-3.1615,-3.138,-3.1003,-3.0742,-3.0743,-3.0801,-3.0539,-3.0247,-3.0063,-2.9824,-2.9506,-2.9073,-2.847]},{"header":{"parameterUnit":"m.s-1","parameterCategory":1,"la1":31.0,"la2":29.5877,"lo1":-88.7671,"lo2":-86.6584,"dy":0.0162,"dx":0.0185,"nx":115,"ny":88,"refTime":"2023-04-19T12:00:00:Z","depth":0,"parameterNumber":3,"parameterNumberName":"V-component_of_WINDS"},"data":[0.0,0.0,0.0,0.0,0.0,0.0,0.0,0.0,0.0,0.0,0.0,0.0,0.0,0.0,0.0,0.0,0.0,0.0,0.0,0.0,0.0,0.0,0.0,0.0,0.0,0.0,0.0,0.0,0.0,0.0,0.0,0.0,0.0,0.0,0.0,0.0,0.0,0.0,0.0,0.0,0.0,0.0,0.0,0.0,0.0,0.0,0.0,0.0,0.0,0.0,0.0,0.0,0.0,0.0,0.0,0.0,0.0,0.0,0.0,0.0,0.0,0.0,0.0,0.0,0.0,0.0,0.0,0.0,0.0,0.0,0.0,0.0,0.0,0.0,0.0,0.0,0.0,0.0,0.0,0.0,0.0,0.0,0.0,0.0,0.0,0.0,0.0,0.0,0.0,0.0,0.0,0.0,0.0,0.0,0.0,0.0,0.0,0.0,0.0,0.0,0.0,0.0,0.0,0.0,0.0,0.0,0.0,0.0,0.0,0.0,0.0,0.0,0.0,0.0,0.0,0.0,0.0,0.0,0.0,0.0,0.0,0.0,0.0,0.0,0.0,0.0,0.0,0.0,0.0,0.0,0.0,0.0,0.0,0.0,0.0,0.0,0.0,0.0,0.0,0.0,0.0,0.0,0.0,0.0,0.0,0.0,0.0,0.0,0.0,0.0,0.0,0.0,0.0,0.0,0.0,0.0,0.0,0.0,0.0,0.0,0.0,0.0,0.0,0.0,0.0,0.0,0.0,0.0,0.0,0.0,0.0,0.0,0.0,0.0,0.0,0.0,0.0,0.0,0.0,0.0,0.0,0.0,0.0,0.0,0.0,0.0,0.0,0.0,0.0,0.0,0.0,0.0,0.0,0.0,0.0,0.0,0.0,0.0,0.0,0.0,0.0,0.0,0.0,0.0,0.0,0.0,0.0,0.0,0.0,0.0,0.0,0.0,0.0,0.0,0.0,0.0,0.0,0.0,0.0,0.0,0.0,0.0,0.0,0.0,0.0,0.0,0.0,0.0,0.0,0.0,0.0,0.0,0.0,0.0,0.0,0.0,0.0,0.0,0.0,0.0,0.0,0.0,0.0,0.0,0.0,0.0,0.0,0.0,0.0,0.0,0.0,0.0,0.0,0.0,0.0,0.0,0.0,0.0,0.0,0.0,0.0,0.0,0.0,0.0,0.0,0.0,0.0,0.0,0.0,0.0,0.0,0.0,0.0,0.0,0.0,0.0,0.0,0.0,0.0,0.0,0.0,0.0,0.0,0.0,0.0,0.0,0.0,0.0,0.0,0.0,0.0,0.0,0.0,0.0,0.0,0.0,0.0,0.0,0.0,0.0,0.0,0.0,0.0,0.0,0.0,0.0,0.0,0.0,0.0,0.0,0.0,0.0,0.0,0.0,0.0,0.0,0.0,0.0,0.0,0.0,0.0,0.0,0.0,0.0,0.0,0.0,0.0,0.0,0.0,0.0,0.0,0.0,0.0,0.0,0.0,0.0,0.0,0.0,0.0,0.0,0.0,0.0,0.0,0.0,0.0,0.0,0.0,0.0,0.0,0.0,0.0,0.0,0.0,0.0,0.0,0.0,0.0,0.0,0.0,0.0,0.0,0.0,0.0,0.0,0.0,0.0,0.0,0.0,0.0,0.0,0.0,0.0,0.0,0.0,0.0,0.0,0.0,0.0,0.0,0.0,0.0,0.0,0.0,0.0,0.0,0.0,0.0,0.0,0.0,0.0,0.0,0.0,0.0,0.0,0.0,0.0,0.0,0.0,0.0,0.0,0.0,0.0,0.0,0.0,0.0,0.0,0.0,0.0,0.0,0.0,0.0,0.0,0.0,0.0,0.0,0.0,0.0,0.0,0.0,0.0,0.0,0.0,0.0,0.0,0.0,0.0,0.0,0.0,0.0,0.0,0.0,0.0,0.0,0.0,0.0,0.0,0.0,0.0,0.0,0.0,0.0,0.0,0.0,0.0,0.0,0.0,0.0,0.0,0.0,0.0,0.0,0.0,0.0,0.0,0.0,0.0,0.0,0.0,0.0,0.0,0.0,0.0,0.0,0.0,0.0,0.0,0.0,0.0,0.0,0.0,0.0,0.0,0.0,0.0,0.0,0.0,0.0,0.0,0.0,0.0,0.0,0.0,0.0,0.0,0.0,0.0,0.0,0.0,0.0,0.0,0.0,0.0,0.0,0.0,0.0,0.0,0.0,0.0,0.0,0.0,0.0,0.0,0.0,0.0,0.0,0.0,0.0,0.0,0.0,0.0,0.0,0.0,0.0,0.0,0.0,0.0,0.0,0.0,0.0,0.0,0.0,0.0,0.0,0.0,0.0,0.0,0.0,0.0,0.0,0.0,0.0,0.0,0.0,0.0,0.0,0.0,0.0,0.0,0.0,0.0,0.0,0.0,0.0,0.0,0.0,0.0,0.0,0.0,0.0,0.0,0.0,0.0,0.0,0.0,0.0,0.0,0.0,0.0,0.0,0.0,0.0,0.0,0.0,0.0,0.0,0.0,0.0,0.0,0.0,0.0,0.0,0.0,0.0,0.0,0.0,0.0,0.0,0.0,0.0,0.0,0.0,0.0,0.0,0.0,0.0,0.0,0.0,0.0,0.0,0.0,0.0,0.0,0.0,0.0,0.0,0.0,0.0,0.0,0.0,0.0,0.0,0.0,0.0,0.0,0.0,0.0,0.0,0.0,0.0,0.0,0.0,0.0,0.0,0.0,0.0,0.0,0.0,0.0,0.0,0.0,0.0,0.0,0.0,0.0,0.0,0.0,0.0,0.0,0.0,0.0,0.0,0.0,0.0,0.0,0.0,0.0,0.0,0.0,0.0,0.0,0.0,0.0,0.0,0.0,0.0,0.0,0.0,0.0,0.0,0.0,0.0,0.0,0.0,0.0,0.0,0.0,0.0,0.0,0.0,0.0,0.0,0.0,0.0,0.0,0.0,0.0,0.0,0.0,0.0,0.0,0.0,0.0,0.0,0.0,0.0,0.0,0.0,0.0,0.0,0.0,0.0,0.0,0.0,0.0,0.0,0.0,0.0,0.0,0.0,0.0,0.0,0.0,0.0,0.0,0.0,0.0,0.0,0.0,0.0,0.0,0.0,0.0,0.0,0.0,0.0,0.0,0.0,0.0,0.0,0.0,0.0,0.0,0.0,0.0,0.0,0.0,0.0,0.0,0.0,0.0,0.0,0.0,0.0,0.0,0.0,0.0,0.0,0.0,0.0,0.0,0.0,0.0,0.0,0.0,0.0,0.0,0.0,0.0,0.0,0.0,0.0,0.0,0.0,0.0,0.0,0.0,0.0,0.0,0.0,0.0,0.0,0.0,0.0,0.0,0.0,0.0,0.0,0.0,0.0,0.0,0.0,0.0,0.0,0.0,0.0,0.0,0.0,0.0,0.0,0.0,0.0,0.0,0.0,0.0,0.0,0.0,0.0,0.0,0.0,0.0,0.0,0.0,0.0,0.0,0.0,0.0,0.0,0.0,0.0,0.0,0.0,0.0,0.0,0.0,0.0,0.0,0.0,0.0,0.0,0.0,0.0,0.0,0.0,0.0,0.0,0.0,0.0,0.0,0.0,0.0,0.0,0.0,0.0,0.0,0.0,0.0,0.0,0.0,0.0,0.0,0.0,0.0,0.0,0.0,0.0,0.0,0.0,0.0,0.0,0.0,0.0,0.0,0.0,0.0,0.0,0.0,0.0,0.0,0.0,0.0,0.0,0.0,0.0,0.0,0.0,0.0,0.0,0.0,0.0,0.0,0.0,0.0,0.0,0.0,0.0,0.0,0.0,0.0,0.0,0.0,0.0,0.0,0.0,0.0,0.0,0.0,0.0,0.0,0.0,0.0,0.0,0.0,0.0,0.0,0.0,0.0,0.0,0.0,0.0,0.0,0.0,0.0,0.0,0.0,0.0,0.0,0.0,0.0,0.0,0.0,0.0,0.0,0.0,0.0,0.0,0.0,0.0,0.0,0.0,0.0,0.0,0.0,0.0,0.0,0.0,0.0,0.0,0.0,0.0,0.0,0.0,0.0,0.0,0.0,0.0,0.0,0.0,0.0,0.0,0.0,0.0,0.0,0.0,0.0,0.0,0.0,0.0,0.0,0.0,0.0,0.0,0.0,0.0,0.0,0.0,0.0,0.0,0.0,0.0,0.0,0.0,0.0,0.0,0.0,0.0,0.0,0.0,0.0,0.0,0.0,0.0,0.0,0.0,0.0,0.0,0.0,0.0,0.0,0.0,0.0,0.0,0.0,0.0,0.0,0.0,0.0,0.9623,0.0,0.0,0.0,0.0,0.0,0.0,0.0,0.0,0.0,0.0,0.0,0.0,0.0,0.0,0.0,0.0,0.0,0.0,0.0,0.0,0.0,0.0,0.0,0.0,0.0,0.0,0.0,0.0,0.0,0.0,0.0,0.0,0.0,0.0,0.0,0.0,0.0,0.0,0.0,0.0,0.0,0.0,0.0,0.0,0.0,0.0,0.0,0.0,0.0,0.0,0.0,0.0,0.0,0.0,0.0,0.0,0.0,0.0,0.0,0.0,0.0,0.0,0.0,0.0,0.0,0.0,0.0,0.0,0.0,0.0,0.0,0.0,0.0,0.0,0.0,0.0,0.0,0.0,0.0,0.0,0.0,0.0,0.0,0.0,0.0,0.0,0.0,0.0,0.0,0.0,0.0,0.0,0.0,0.0,0.0,0.0,0.0,0.0,0.0,0.0,0.0,0.0,0.0,0.0,0.0,0.0,0.0,0.0,0.0,0.0,0.9346,0.9484,0.9506,0.9625,0.9861,0.0,0.0,0.0,0.0,0.0,0.0,0.0,0.0,0.0,0.0,0.0,0.0,0.0,0.0,0.0,0.0,0.0,0.0,0.0,0.0,0.0,0.0,0.0,0.0,0.0,0.0,0.0,0.0,0.0,0.0,0.0,0.0,0.0,0.0,0.0,0.0,0.0,0.0,0.0,0.0,0.0,0.0,0.0,0.0,0.0,0.0,0.0,0.0,0.0,0.0,0.0,0.0,0.0,0.0,0.0,0.0,0.0,0.0,0.0,0.0,0.0,0.0,0.0,0.0,0.0,0.0,0.0,0.0,0.0,0.0,0.0,0.0,0.0,0.0,0.0,0.0,0.0,0.0,0.0,0.0,0.0,0.0,0.0,0.0,0.0,0.0,0.0,0.0,0.0,0.0,0.0,0.0,0.0,0.0,0.0,0.0,0.0,0.0,0.0,0.0,0.0,0.0,0.0,0.0,0.0,0.0,0.0,0.0,0.0,0.0,0.0,0.0,1.0123,1.0147,1.0192,0.0,0.0,0.0,0.0,0.0,0.0,0.0,0.0,0.0,0.0,0.0,0.0,0.0,0.0,0.0,0.0,0.0,0.0,0.0,0.0,0.0,0.0,0.0,0.0,0.0,0.0,0.0,0.0,0.0,0.0,0.0,0.0,0.0,0.0,0.0,0.0,0.0,0.0,0.0,0.0,0.0,0.0,0.0,0.0,0.0,0.0,0.0,0.0,0.0,0.0,0.0,0.0,0.0,0.0,0.0,0.0,0.0,0.0,0.0,0.0,0.0,0.0,0.0,0.0,0.0,0.0,0.0,0.0,0.0,0.0,0.0,0.0,0.0,0.0,0.0,0.0,0.0,0.0,0.0,0.0,0.0,0.0,0.0,0.0,0.0,0.0,0.0,0.0,0.0,0.0,0.0,0.0,0.0,0.0,0.0,0.0,0.0,0.0,0.0,0.0,0.0,0.0,0.0,0.0,0.0,0.0,0.0,0.0,0.0,0.0,1.116,1.116,1.1141,0.0,1.0793,0.0,0.0,0.0,0.0,0.0,0.0,0.0,0.0,0.0,0.0,0.0,0.0,0.0,0.0,0.0,0.0,0.0,0.0,0.0,0.0,0.0,0.0,0.0,0.0,0.0,0.0,0.0,0.0,0.0,0.0,0.0,0.0,0.0,0.0,0.0,0.0,0.0,0.0,0.0,0.0,0.0,0.0,0.0,0.0,0.0,0.0,0.0,0.0,0.0,0.0,0.0,0.0,0.0,0.0,0.0,0.0,0.0,0.0,0.0,0.0,0.0,0.0,0.0,0.0,0.0,0.0,0.0,0.0,0.0,0.0,0.0,0.0,0.0,0.0,0.0,0.0,0.0,0.0,0.0,0.0,0.0,0.0,0.0,0.0,0.0,0.0,0.0,0.0,0.0,0.0,0.0,0.0,0.0,0.0,0.0,0.0,0.0,0.0,0.0,0.0,0.0,0.0,0.0,0.0,0.0,0.0,0.0,0.0,0.0,0.0,1.1365,1.1365,1.1431,1.1324,0.0,0.0,0.0,0.0,0.0,0.0,0.0,0.0,0.0,0.0,0.0,0.0,0.0,0.0,0.0,0.0,0.0,0.0,0.0,0.0,0.0,0.0,0.0,0.0,0.0,0.0,0.0,0.0,0.0,0.0,0.0,0.0,0.0,0.0,0.0,0.0,0.0,0.0,0.0,0.0,0.0,0.0,0.0,0.0,0.0,0.0,0.0,0.0,0.0,0.0,0.0,0.0,0.0,0.0,0.0,0.0,0.0,0.0,0.0,0.0,0.0,0.0,0.0,0.0,0.0,0.0,0.0,0.0,0.0,0.0,0.0,0.0,0.0,0.0,0.0,0.0,0.0,0.0,0.0,0.0,0.0,0.0,0.0,0.0,0.0,0.0,0.0,0.0,0.0,0.0,0.0,0.0,0.0,0.0,0.0,0.0,0.0,0.0,0.0,0.0,0.0,0.0,0.0,0.0,0.0,0.0,0.0,0.0,0.0,0.0,1.1779,1.1801,1.1824,1.1956,1.177,1.1281,0.0,0.0,0.0,0.0,0.0,0.0,0.0,0.0,0.0,0.0,0.0,0.0,0.0,0.0,0.0,0.0,0.0,0.0,0.0,0.0,0.0,0.0,0.0,0.0,0.0,0.0,0.0,0.0,0.0,0.0,0.0,0.0,0.0,0.0,0.0,0.0,0.0,0.0,0.0,0.0,0.0,0.0,0.0,0.0,0.0,0.0,0.0,0.0,0.0,0.0,0.0,0.0,0.0,0.0,0.0,0.0,0.0,0.0,0.0,0.0,0.0,0.0,0.0,0.0,0.0,0.0,0.0,0.0,0.0,0.0,0.0,0.0,0.0,0.0,0.0,0.0,0.0,0.0,0.0,0.0,0.0,0.0,0.0,0.0,0.0,0.0,0.0,0.0,0.0,0.0,0.0,0.0,0.0,0.0,0.0,0.0,0.0,0.0,0.0,0.0,0.0,0.0,0.0,0.0,0.0,0.0,0.0,0.0,1.2773,1.2812,1.2812,1.2817,1.2977,1.2609,0.0,0.0,0.0,0.0,0.0,0.0,0.0,0.0,0.0,0.0,0.0,0.0,0.0,0.0,0.0,0.0,0.0,0.0,0.0,0.0,0.0,0.0,0.0,0.0,0.0,0.0,0.0,0.0,0.0,0.0,0.0,0.0,0.0,0.0,0.0,0.0,0.0,0.0,0.0,0.0,0.0,0.0,0.0,0.0,0.0,0.0,0.0,0.0,0.0,0.0,0.0,0.0,0.0,0.0,0.0,0.0,0.0,0.0,0.0,0.0,0.0,0.0,0.0,0.0,0.0,0.0,0.0,0.0,0.0,0.0,0.0,0.0,0.0,0.0,0.0,0.0,0.0,0.0,0.0,0.0,0.0,0.0,0.0,0.0,0.0,0.0,0.0,0.0,0.0,0.0,0.0,0.0,0.0,0.0,0.0,0.0,0.0,0.0,0.0,0.0,0.0,0.0,0.0,0.0,0.0,0.0,0.0,0.0,0.0,1.2856,1.2968,1.3036,1.3036,1.321,1.2906,0.0,0.0,0.0,0.0,0.0,0.0,0.0,0.0,0.0,0.0,0.0,0.0,0.0,0.0,0.0,0.0,0.0,0.0,0.0,0.0,0.0,0.0,0.0,0.0,0.0,0.0,0.0,0.0,0.0,0.0,0.0,0.0,0.0,0.0,0.0,0.0,0.0,0.0,0.0,0.0,0.0,0.0,0.0,0.0,0.0,0.0,0.0,0.0,0.0,0.0,0.0,0.0,0.0,0.0,0.0,0.0,0.0,0.0,0.0,0.0,0.0,0.0,0.0,0.0,0.0,0.0,0.0,0.0,0.0,0.0,0.0,0.0,0.0,0.0,0.0,0.0,0.0,0.0,0.0,0.0,0.0,0.0,0.0,0.0,0.0,0.0,0.0,0.0,0.0,0.0,0.0,0.0,0.0,0.0,0.0,0.0,0.0,0.0,0.0,0.0,0.0,0.0,0.0,0.0,0.0,0.0,0.0,0.0,0.0,1.2876,0.0,1.3089,1.3109,1.3334,1.3155,0.0,0.0,0.0,0.0,0.0,0.0,0.0,0.0,0.0,0.0,0.0,0.0,0.0,0.0,0.0,0.0,0.0,0.0,0.0,0.0,0.0,0.0,0.0,0.0,0.0,0.0,0.0,0.0,0.0,0.0,0.0,0.0,0.0,0.0,0.0,0.0,0.0,0.0,0.0,0.0,0.0,0.0,0.0,0.0,0.0,0.0,0.0,0.0,0.0,0.0,0.0,0.0,0.0,0.0,0.0,0.0,0.0,0.0,0.0,0.0,0.0,0.0,0.0,0.0,0.0,0.0,0.0,0.0,0.0,0.0,0.0,0.0,0.0,0.0,0.0,0.0,0.0,0.0,0.0,0.0,0.0,0.0,0.0,0.0,0.0,0.0,0.0,0.0,0.0,0.0,0.0,0.0,0.0,0.0,0.0,0.0,0.0,0.0,0.0,0.0,0.0,0.0,0.0,0.0,0.0,0.0,0.0,0.0,1.2461,1.2895,1.3036,1.3089,1.3133,1.343,1.344,0.0,0.0,0.0,0.0,0.0,0.0,0.0,0.0,0.0,0.0,0.0,0.0,0.0,0.0,0.0,0.0,0.0,0.0,0.0,0.0,0.0,0.0,0.0,0.0,0.0,0.0,0.0,0.0,0.0,0.0,0.0,0.0,0.0,0.0,0.0,0.0,0.0,0.0,0.0,0.0,0.0,0.0,0.0,0.0,0.0,0.0,0.0,0.0,0.0,0.0,0.0,0.0,0.0,0.0,0.0,0.0,0.0,0.0,0.0,0.0,0.0,0.0,0.0,0.0,0.0,0.0,0.0,0.0,0.0,0.0,0.0,0.0,0.0,0.0,0.0,0.0,0.0,0.0,0.0,0.0,0.0,0.0,0.0,0.0,0.0,0.0,0.0,0.0,0.0,0.0,0.0,0.0,0.0,0.0,0.0,0.0,0.0,0.0,0.0,0.0,0.0,0.0,0.0,0.0,0.0,0.0,0.0,0.0,0.0,1.3036,1.3118,1.3262,1.3454,1.381,1.388,0.0,0.0,0.0,0.0,0.0,0.0,0.0,0.0,0.0,0.0,0.0,0.0,0.0,0.0,0.0,0.0,0.0,0.0,0.0,0.0,0.0,0.0,0.0,0.0,0.0,0.0,0.0,0.0,0.0,0.0,0.0,0.0,0.0,0.0,0.0,0.0,0.0,0.0,0.0,0.0,0.0,0.0,0.0,0.0,0.0,0.0,0.0,0.0,0.0,0.0,0.0,0.0,0.0,0.0,0.0,0.0,0.0,0.0,0.0,0.0,0.0,0.0,0.0,0.0,0.0,0.0,0.0,0.0,0.0,0.0,0.0,0.0,0.0,0.0,0.0,0.0,0.0,0.0,0.0,0.0,0.0,0.0,0.0,0.0,0.0,0.0,0.0,0.0,0.0,0.0,0.0,0.0,0.0,0.0,0.0,0.0,0.0,0.0,0.0,0.0,0.0,0.0,0.0,0.0,0.0,0.0,0.0,0.0,0.0,1.3661,1.3746,1.3838,1.3938,1.4374,1.4511,1.4295,0.0,0.0,0.0,0.0,0.0,0.0,0.0,0.0,0.0,0.0,0.0,0.0,0.0,0.0,0.0,0.0,0.0,0.0,0.0,0.0,0.0,0.0,0.0,0.0,0.0,0.0,0.0,0.0,0.0,0.0,0.0,0.0,0.0,0.0,0.0,0.0,0.0,0.0,0.0,0.0,0.0,0.0,0.0,0.0,0.0,0.0,0.0,0.0,0.0,0.0,0.0,0.0,0.0,0.0,0.0,0.0,0.0,0.0,0.0,0.0,0.0,0.0,0.0,0.0,0.0,0.0,0.0,0.0,0.0,0.0,0.0,0.0,0.0,0.0,0.0,0.0,0.0,0.0,0.0,0.0,0.0,0.0,0.0,0.0,0.0,0.0,0.0,0.0,0.0,0.0,0.0,0.0,0.0,0.0,0.0,0.0,0.0,0.0,0.0,0.0,0.0,0.0,0.0,0.0,0.0,0.0,0.0,0.0,1.4679,1.4832,1.4816,1.4591,1.5069,1.5282,0.0,0.0,0.0,0.0,0.0,0.0,0.0,0.0,0.0,0.0,0.0,0.0,0.0,0.0,0.0,0.0,0.0,0.0,0.0,0.0,0.0,0.0,0.0,0.0,0.0,0.0,0.0,0.0,0.0,0.0,0.0,0.0,0.0,0.0,0.0,0.0,0.0,0.0,0.0,0.0,0.0,0.0,0.0,0.0,0.0,0.0,0.0,0.0,0.0,0.0,0.0,0.0,0.0,0.0,0.0,0.0,0.0,0.0,0.0,0.0,0.0,0.0,0.0,0.0,0.0,0.0,0.0,0.0,0.0,0.0,0.0,0.0,0.0,0.0,0.0,0.0,0.0,0.0,0.0,0.0,0.0,0.0,0.0,0.0,0.0,0.0,0.0,0.0,0.0,0.0,0.0,0.0,0.0,0.0,0.0,0.0,0.0,0.0,0.0,0.0,0.0,0.0,0.0,0.0,0.0,0.0,0.0,0.0,0.0,1.5736,1.6113,1.6014,1.5488,1.5637,1.5844,0.0,0.0,0.0,0.0,0.0,0.0,0.0,0.0,0.0,0.0,0.0,0.0,0.0,0.0,0.0,0.0,0.0,0.0,0.0,0.0,0.0,0.0,0.0,0.0,0.0,0.0,0.0,0.0,0.0,0.0,0.0,0.0,0.0,0.0,0.0,0.0,0.0,0.0,0.0,0.0,0.0,0.0,0.0,0.0,0.0,0.0,0.0,0.0,0.0,0.0,0.0,0.0,0.0,0.0,0.0,0.0,0.0,0.0,0.0,0.0,0.0,0.0,0.0,0.0,0.0,0.0,0.0,0.0,0.0,0.0,0.0,0.0,0.0,0.0,0.0,0.0,0.0,0.0,0.0,0.0,0.0,0.0,0.0,0.0,0.0,0.0,0.0,0.0,0.0,0.0,0.0,0.0,0.0,0.0,0.0,0.0,0.0,0.0,0.0,0.0,0.0,0.0,0.0,0.0,0.0,0.0,0.0,0.0,1.5499,1.6439,1.7209,1.7412,1.7002,1.6546,1.6385,0.0,0.0,0.0,0.0,0.0,0.0,0.0,0.0,0.0,0.0,0.0,0.0,0.0,0.0,0.0,0.0,0.0,0.0,0.0,0.0,0.0,0.0,0.0,0.0,0.0,0.0,0.0,0.0,0.0,0.0,0.0,0.0,0.0,0.0,0.0,0.0,0.0,0.0,0.0,0.0,0.0,0.0,0.0,0.0,0.0,0.0,0.0,0.0,0.0,0.0,0.0,0.0,0.0,0.0,0.0,0.0,0.0,0.0,0.0,0.0,0.0,0.0,0.0,0.0,0.0,0.0,0.0,0.0,0.0,0.0,0.0,0.0,0.0,0.0,0.0,0.0,0.0,0.0,0.0,0.0,0.0,0.0,0.0,0.0,0.0,0.0,0.0,0.0,0.0,0.0,0.0,0.0,0.0,0.0,0.0,0.0,0.0,0.0,0.0,0.0,0.0,0.0,0.0,0.0,0.0,0.0,0.0,0.0,1.6261,1.6949,1.8128,1.8748,1.8685,1.763,1.7002,0.0,0.0,0.0,0.0,0.0,0.0,0.0,0.0,0.0,0.0,0.0,0.0,0.0,0.0,0.0,0.0,0.0,0.0,0.0,0.0,0.0,0.0,0.0,0.0,0.0,0.0,0.0,0.0,0.0,0.0,0.0,0.0,0.0,0.0,0.0,0.0,0.0,0.0,0.0,0.0,0.0,0.0,0.0,0.0,0.0,0.0,0.0,0.0,0.0,0.0,0.0,0.0,0.0,0.0,0.0,0.0,0.0,0.0,0.0,0.0,0.0,0.0,0.0,0.0,0.0,0.0,0.0,0.0,0.0,0.0,0.0,0.0,0.0,0.0,0.0,0.0,0.0,0.0,0.0,0.0,0.0,0.0,0.0,0.0,0.0,0.0,0.0,0.0,0.0,0.0,0.0,0.0,0.0,0.0,0.0,0.0,0.0,0.0,0.0,0.0,0.0,0.0,0.0,0.0,0.0,0.0,0.0,0.0,1.6863,1.795,1.8723,1.9238,1.9529,1.8431,1.7772,0.0,0.0,0.0,0.0,0.0,0.0,0.0,0.0,0.0,0.0,0.0,0.0,0.0,0.0,0.0,0.0,0.0,0.0,0.0,0.0,0.0,0.0,0.0,0.0,0.0,0.0,0.0,0.0,0.0,0.0,0.0,0.0,0.0,0.0,0.0,0.0,0.0,0.0,0.0,0.0,0.0,0.0,0.0,0.0,0.0,0.0,0.0,0.0,0.9024,0.0,0.0,0.0,0.0,0.0,0.0,0.0,0.0,0.0,0.0,0.0,0.0,0.0,0.0,0.0,0.0,0.0,0.0,0.0,0.0,0.0,0.0,0.0,0.0,0.0,0.0,0.0,0.0,0.0,0.0,0.0,0.0,0.0,0.0,0.0,0.0,0.0,0.0,0.0,0.0,0.0,0.0,0.0,0.0,0.0,0.0,0.0,0.0,0.0,0.0,0.0,0.0,0.0,0.0,0.0,0.0,0.0,0.0,0.0,1.7462,1.8303,1.9047,1.9561,1.9755,1.8756,1.809,0.0,0.0,0.0,0.0,0.0,0.0,0.0,0.0,0.0,0.0,0.0,0.0,0.0,0.0,0.0,0.0,0.0,0.0,0.0,0.0,0.0,0.0,0.0,0.0,0.0,0.0,0.0,0.0,0.0,0.0,0.0,0.0,0.0,0.0,0.0,0.0,0.0,0.0,0.0,0.0,0.0,0.0,0.0,0.0,0.0,0.0,0.0,0.0,0.0,0.0,0.0,0.0,0.0,0.0,0.0,0.0,0.0,0.0,0.0,0.0,0.0,0.0,0.0,0.0,0.0,0.0,0.0,0.0,0.0,0.0,0.0,0.0,0.0,0.0,0.0,0.0,0.0,0.0,0.0,0.0,0.0,0.0,0.0,0.0,0.0,0.0,0.0,0.0,0.0,0.0,0.0,0.0,0.0,0.0,0.0,0.0,0.0,0.0,0.0,0.0,0.0,0.0,0.0,0.0,0.0,0.0,0.0,1.6846,1.8089,1.8416,1.9404,1.9916,1.9837,1.8863,1.814,1.7798,0.0,0.0,0.0,0.0,0.0,0.0,0.0,0.0,0.0,0.0,0.0,0.0,0.0,0.0,0.0,0.0,0.0,0.0,0.0,0.0,0.0,0.0,0.0,0.0,0.0,0.0,0.0,0.0,0.0,0.0,0.0,0.0,0.0,0.0,0.0,0.0,0.0,0.0,0.8515,0.8631,0.0,0.0,0.0,0.0,0.0,0.0,0.0,0.0,0.9789,0.0,0.0,0.0,0.0,0.0,0.0,0.0,0.0,0.0,0.0,0.0,0.0,0.0,0.0,0.0,0.0,0.0,0.0,0.0,0.0,0.0,0.0,0.0,0.0,0.0,0.0,0.0,0.0,0.0,0.0,0.0,0.0,0.0,0.0,0.0,0.0,0.0,0.0,0.0,0.0,0.0,0.0,0.0,0.0,0.0,0.0,0.0,0.0,0.0,0.0,0.0,0.0,0.0,0.0,0.0,0.0,1.5273,1.7427,1.8668,1.8909,1.9924,2.034,2.0041,1.9049,1.8314,1.7798,0.0,0.0,0.0,0.0,0.0,0.0,0.0,0.0,0.0,0.0,0.0,0.0,0.0,0.0,0.0,0.0,0.0,0.0,0.0,0.0,0.0,0.0,0.0,0.0,0.0,0.0,0.0,0.0,0.0,0.0,0.0,0.0,0.0,0.0,0.0,0.0,0.0,0.0,0.0,0.959,0.9696,0.0,0.0,0.0,0.0,0.0,0.0,0.0,0.0,1.0588,0.0,0.0,0.0,0.0,0.0,0.0,0.0,0.0,0.0,0.0,0.0,0.0,0.0,0.0,0.0,0.0,0.0,0.0,0.0,0.0,0.0,0.0,0.0,0.0,0.0,0.0,0.0,0.0,0.0,0.0,0.0,0.0,0.0,0.0,0.0,0.0,0.0,0.0,0.0,0.0,0.0,0.0,0.0,0.0,0.0,0.0,0.0,0.0,0.0,0.0,0.0,0.0,0.0,0.0,0.0,1.5618,1.7715,1.8999,1.9239,1.9884,2.024,2.0279,1.8939,1.8093,0.0,0.0,0.0,0.0,0.0,0.0,0.0,0.0,0.0,0.0,0.0,0.0,0.0,0.0,0.0,0.0,0.0,0.0,0.0,0.0,0.0,0.0,0.0,0.0,0.0,0.0,0.0,0.0,0.0,0.0,0.0,0.0,0.0,0.0,0.0,0.0,0.0,0.0,0.0,0.0,0.9742,0.9857,0.9934,0.0,0.0,0.0,0.0,0.0,0.0,1.1137,1.0888,0.0,0.0,0.0,0.0,0.0,0.0,0.0,0.0,0.0,0.0,0.0,0.0,0.0,0.0,0.0,0.0,0.0,0.0,0.0,0.0,0.0,0.0,0.0,0.0,0.0,0.0,0.0,0.0,0.0,0.0,0.0,0.0,0.0,0.0,0.0,0.0,0.0,0.0,0.0,0.0,0.0,0.0,0.0,0.0,0.0,0.0,0.0,0.0,0.0,0.0,0.0,0.0,0.0,0.0,0.0,1.5803,1.7883,1.9111,1.9369,1.961,1.9883,2.0141,1.8628,1.7797,0.0,0.0,0.0,0.0,0.0,0.0,0.0,0.0,0.0,0.0,0.0,0.0,0.0,0.0,0.0,0.0,0.0,0.0,0.0,0.0,0.0,0.0,0.0,0.0,0.0,0.0,0.0,0.0,0.0,0.0,0.0,0.0,0.0,0.0,0.0,0.0,0.0,0.0,0.0,0.0,0.0,1.0021,1.0118,1.0215,0.0,0.0,0.0,0.0,1.1656,1.1517,0.0,0.0,0.0,0.0,0.0,0.0,0.0,0.0,0.0,0.0,0.0,0.0,0.0,0.0,0.0,0.0,0.0,0.0,0.0,0.0,0.0,0.0,0.0,0.0,0.0,0.0,0.0,0.0,0.0,0.0,0.0,0.0,0.0,0.0,0.0,0.0,0.0,0.0,0.0,0.0,0.0,0.0,0.0,0.0,0.0,0.0,0.0,0.0,0.0,0.0,0.0,0.0,0.0,0.0,0.0,0.0,1.6212,1.7965,1.8931,1.8988,1.9333,1.94,1.9084,1.8238,1.7649,0.0,0.0,0.0,0.0,0.0,0.0,0.0,0.0,0.0,0.0,0.0,0.0,0.0,0.0,0.0,0.0,0.0,0.0,0.0,0.0,0.0,0.0,0.0,0.0,0.0,0.0,0.0,0.0,0.0,0.0,0.0,0.0,0.0,0.0,0.0,0.0,0.0,0.0,0.0,0.0,0.0,1.0954,1.0951,1.114,1.1288,0.0,0.0,1.1845,1.2088,1.226,0.0,0.0,0.0,0.0,0.0,0.0,0.0,0.0,0.0,0.0,0.0,0.0,0.0,0.0,0.0,0.0,0.0,0.0,0.0,0.0,0.0,0.0,0.0,0.0,0.0,0.0,0.0,0.0,0.0,0.0,0.0,0.0,0.0,0.0,0.0,0.0,0.0,0.0,0.0,0.0,0.0,0.0,0.0,0.0,0.0,0.0,0.0,0.0,0.0,0.0,0.0,0.0,0.0,0.0,0.0,1.6534,1.6822,1.8253,1.9066,1.9179,1.938,1.9419,1.9182,1.8289,1.7623,0.0,0.0,0.0,0.0,0.0,0.0,0.0,0.0,0.0,0.0,0.0,0.0,0.0,0.0,0.0,0.0,0.0,0.0,0.0,0.0,0.0,0.0,0.0,0.0,0.0,0.0,0.0,0.0,0.0,0.0,0.0,0.0,0.0,0.0,0.0,0.0,0.0,0.0,0.0,0.0,0.0,0.0,1.1082,1.1195,0.0,0.0,0.0,1.1963,1.2162,0.0,0.0,0.0,0.0,0.0,0.0,0.0,0.0,0.0,0.0,0.0,0.0,0.0,0.0,0.0,0.0,0.0,0.0,0.0,0.0,0.0,0.0,0.0,0.0,0.0,0.0,0.0,0.0,0.0,0.0,0.0,0.0,0.0,0.0,0.0,0.0,0.0,0.0,0.0,0.0,0.0,0.0,0.0,0.0,0.0,0.0,0.0,0.0,0.0,0.0,0.0,0.0,0.0,0.0,0.0,0.0,0.0,1.7378,1.8472,1.9104,1.9238,1.9329,1.9237,1.8924,1.8216,0.0,0.0,0.0,0.0,0.0,0.0,0.0,0.0,0.0,0.0,0.0,0.0,0.0,0.0,0.0,0.0,0.0,0.0,0.0,0.0,0.0,0.0,0.0,0.0,0.0,0.0,0.0,1.2632,0.0,0.0,0.0,0.0,0.0,0.0,0.0,0.0,0.0,0.0,0.0,0.0,0.0,0.0,1.0949,1.1025,1.1139,1.125,0.0,0.0,1.195,1.209,1.2401,1.2554,0.0,0.0,0.0,0.0,0.0,0.0,0.0,0.0,0.0,0.0,0.0,0.0,0.0,0.0,0.0,0.0,0.0,0.0,0.0,0.0,0.0,0.0,0.0,0.0,0.0,0.0,0.0,0.0,0.0,0.0,0.0,0.0,0.0,0.0,0.0,0.0,0.0,0.0,0.0,0.0,0.0,0.0,0.0,0.0,0.0,0.0,0.0,0.0,0.0,0.0,0.0,0.0,0.0,0.0,0.0,1.777,1.8466,1.883,1.883,1.8967,1.8618,1.7751,1.7775,1.7376,0.0,0.0,0.0,0.0,0.0,0.0,0.0,0.0,0.0,0.0,0.0,0.0,0.0,0.0,0.0,0.0,0.0,0.0,0.0,0.0,0.0,0.0,0.0,0.0,0.0,0.0,0.0,0.0,0.0,0.0,0.0,0.0,0.0,0.0,0.0,0.0,0.0,0.0,0.0,0.0,0.0,1.091,1.091,1.1082,1.1214,0.0,0.0,1.1826,1.1909,1.2222,1.249,1.2643,0.0,0.0,0.0,0.0,0.0,0.0,0.0,0.0,0.0,0.0,0.0,0.0,0.0,0.0,0.0,0.0,0.0,0.0,0.0,0.0,0.0,0.0,0.0,0.0,0.0,0.0,0.0,0.0,0.0,0.0,0.0,0.0,0.0,0.0,0.0,0.0,0.0,0.0,0.0,0.0,0.0,0.0,0.0,0.0,0.0,0.0,0.0,0.0,0.0,0.0,0.0,0.0,0.0,1.7774,1.8292,1.8638,1.881,1.881,1.8919,1.8545,1.763,1.775,1.7376,0.0,0.0,0.0,0.0,0.0,0.0,0.0,0.0,0.0,0.0,0.0,0.0,0.0,0.0,0.0,0.0,0.0,0.0,0.0,0.0,0.0,0.0,0.0,0.0,0.0,0.0,0.0,0.0,1.2822,1.2763,1.2605,0.0,0.0,0.0,0.0,0.0,0.0,0.0,0.0,0.0,0.0,1.1757,1.1778,1.186,0.0,0.0,1.1871,1.2011,1.1918,1.2095,1.2276,1.2473,1.2324,0.0,0.0,0.0,0.0,0.0,0.0,0.0,0.0,0.0,0.0,0.0,0.0,0.0,0.0,0.0,0.0,0.0,0.0,0.0,0.0,0.0,0.0,0.0,0.0,0.0,0.0,0.0,0.0,0.0,0.0,0.0,0.0,0.0,0.0,0.0,0.0,0.0,0.0,0.0,0.0,0.0,0.0,0.0,0.0,0.0,0.0,0.0,0.0,0.0,0.0,0.0,0.0,1.8185,1.8709,1.8813,1.8839,1.8839,1.8946,1.8545,1.7606,1.7678,1.7306,0.0,0.0,0.0,0.0,0.0,0.0,0.0,0.0,0.0,0.0,0.0,0.0,0.0,0.0,0.0,0.0,0.0,0.0,0.0,0.0,0.0,0.0,0.0,0.0,0.0,0.0,0.0,0.0,1.3037,1.291,1.2785,0.0,0.0,0.0,0.0,0.0,0.0,0.0,0.0,0.0,0.0,1.2297,1.2297,1.2361,1.232,1.2148,1.2158,1.2157,1.2073,1.2059,1.2095,1.224,0.0,0.0,0.0,0.0,0.0,0.0,0.0,0.0,0.0,0.0,0.0,0.0,0.0,0.0,0.0,0.0,0.0,0.0,0.0,0.0,0.0,0.0,0.0,0.0,0.0,0.0,0.0,0.0,0.0,0.0,2.0653,0.0,0.0,0.0,0.0,0.0,0.0,0.0,0.0,0.0,0.0,0.0,0.0,0.0,0.0,0.0,0.0,0.0,0.0,0.0,0.0,0.0,0.0,1.847,1.8975,1.8999,1.8999,1.8999,1.9025,1.8494,1.746,1.7533,1.7166,1.6271,0.0,0.0,0.0,0.0,0.0,0.0,0.0,0.0,0.0,0.0,0.0,0.0,0.0,0.0,0.0,0.0,0.0,0.0,0.0,0.0,0.0,0.0,0.0,0.0,0.0,0.0,1.2975,1.2637,1.2467,0.0,0.0,0.0,0.0,0.0,0.0,0.0,0.0,0.0,0.0,1.2297,1.2318,1.2318,1.2382,1.2467,1.2574,1.2374,1.225,1.2368,1.2118,1.1909,0.0,0.0,0.0,0.0,0.0,0.0,0.0,0.0,0.0,0.0,0.0,0.0,0.0,0.0,0.0,0.0,0.0,0.0,0.0,0.0,0.0,0.0,0.0,0.0,0.0,0.0,0.0,2.2823,2.2943,0.0,0.0,0.0,0.0,0.0,0.0,0.0,0.0,0.0,0.0,0.0,2.2734,2.2373,0.0,0.0,0.0,0.0,0.0,0.0,0.0,0.0,0.0,0.0,0.0,0.0,1.8806,1.8975,1.9025,1.9025,1.9025,1.9025,1.8494,1.7435,1.7533,1.7189,1.6355,0.0,0.0,0.0,0.0,0.0,0.0,0.0,0.0,0.0,0.0,0.0,0.0,0.0,0.0,0.0,0.0,0.0,0.0,0.0,0.0,0.0,0.0,0.0,0.0,0.0,1.4116,0.0,0.0,0.0,0.0,0.0,0.0,0.0,0.0,0.0,0.0,0.0,1.2599,1.2688,1.2979,1.3165,1.3165,1.3188,1.3155,0.0,0.0,0.0,0.0,0.0,0.0,0.0,0.0,0.0,0.0,0.0,0.0,0.0,0.0,1.1641,1.1342,1.1084,1.0816,1.0596,0.0,0.0,0.0,0.0,0.0,0.0,0.0,0.0,0.0,0.0,0.0,0.0,0.0,0.0,0.0,0.0,2.4386,0.0,0.0,0.0,0.0,0.0,0.0,0.0,0.0,2.3794,2.3794,2.3794,2.3424,2.3119,0.0,2.2421,2.1668,0.0,0.0,0.0,0.0,0.0,0.0,0.0,0.0,1.9579,1.9552,1.9552,1.9456,1.9314,1.929,1.8758,1.7724,1.746,1.6994,1.6287,1.6349,1.6414,0.0,0.0,0.0,0.0,0.0,0.0,0.0,0.0,0.0,0.0,0.0,0.0,0.0,0.0,0.0,0.0,0.0,0.0,0.0,0.0,0.0,0.0,0.0,1.4465,0.0,0.0,0.0,0.0,0.0,0.0,0.0,0.0,0.0,1.255,1.2774,1.2981,1.3119,1.3411,1.3621,1.3621,0.0,0.0,0.0,0.0,0.0,0.0,0.0,1.2483,1.2213,1.2169,1.2169,1.213,1.213,1.2191,1.2191,0.0,0.0,1.209,1.1905,1.176,1.1542,1.1165,1.0726,1.0176,0.9945,0.9696,0.0,0.0,0.0,0.0,0.0,0.0,0.0,0.0,2.6225,2.5948,0.0,2.5672,0.0,0.0,0.0,0.0,0.0,2.3962,0.0,0.0,2.3962,2.3914,2.3938,2.389,2.3842,2.3842,2.3794,2.324,2.2221,2.1182,0.0,0.0,0.0,0.0,0.0,0.0,2.0615,2.0557,2.0557,2.0346,1.9844,1.9796,1.9263,1.8205,1.7291,1.656,1.6071,1.6265,1.6371,1.6392,1.6457,0.0,0.0,0.0,0.0,0.0,0.0,0.0,0.0,0.0,0.0,0.0,0.0,0.0,0.0,0.0,0.0,0.0,0.0,0.0,0.0,1.449,0.0,0.0,0.0,0.0,0.0,0.0,0.0,0.0,0.0,0.0,1.3317,1.3246,1.329,1.3573,0.0,0.0,0.0,0.0,1.3644,1.3787,1.3524,1.3362,1.3453,1.3173,1.2911,1.2889,0.0,0.0,1.291,1.2994,1.3034,1.3077,1.3077,1.2967,1.2523,1.2502,1.2489,1.2298,1.1979,1.1578,1.0992,1.0713,1.0495,3.3607,0.0,0.0,0.0,0.0,2.8835,2.8669,2.86,2.8344,2.8232,2.8278,2.7613,0.0,0.0,0.0,0.0,0.0,0.0,2.6021,2.6021,2.6021,2.6021,2.5961,2.5228,2.4867,2.4843,2.4155,2.3649,2.3336,2.3047,2.2101,2.0634,0.0,0.0,0.0,0.0,2.0615,2.0581,2.0581,2.0538,2.0374,1.9989,1.929,1.8229,1.7195,1.6638,1.656,1.6284,1.6219,1.6392,1.6414,0.0,0.0,0.0,0.0,0.0,0.0,0.0,0.0,0.0,0.0,0.0,0.0,0.0,0.0,0.0,0.0,0.0,0.0,0.0,1.5085,1.4628,1.428,0.0,0.0,0.0,0.0,0.0,0.0,0.0,0.0,0.0,1.3162,1.319,1.3266,0.0,0.0,1.3621,1.3621,1.3621,1.3644,1.3787,0.0,0.0,0.0,1.3411,1.3217,1.2955,1.291,1.291,1.291,1.291,1.2952,1.2974,1.328,1.3455,1.3216,1.285,1.2574,1.2382,1.2104,1.1784,1.1512,1.1387,1.1283,3.6657,3.4418,3.3002,3.193,3.1221,3.1004,3.0801,3.0613,3.0391,3.0211,3.0081,2.9444,2.89,2.8368,2.7348,0.0,0.0,0.0,2.6873,2.6873,2.6873,2.6873,2.6849,2.6262,2.5829,2.5612,2.5022,2.4516,2.4073,2.4073,2.3328,2.1909,0.0,0.0,2.126,2.1211,2.1211,2.1206,2.1235,2.1115,2.0928,2.0181,1.9411,1.8542,1.77,1.7075,1.6734,1.6464,1.6308,1.6241,1.6349,1.6414,0.0,0.0,0.0,0.0,0.0,0.0,0.0,0.0,0.0,0.0,0.0,1.5891,0.0,0.0,0.0,0.0,1.6054,1.601,1.5775,1.5301,0.0,0.0,0.0,0.0,0.0,0.0,0.0,1.2915,1.2915,1.2939,1.2992,1.3118,1.3266,1.3386,1.3525,1.3621,1.3621,0.0,1.3621,1.3716,1.3763,1.375,1.3637,1.3709,1.3714,1.3521,1.3499,1.3477,1.3499,1.3543,1.3543,1.3565,1.3806,1.4003,1.3822,1.3429,1.3103,1.2859,1.2613,1.2328,1.1965,1.1858,1.18,3.9177,3.8291,3.5872,3.4372,3.3614,3.3348,3.3133,3.2891,3.2368,3.1992,3.1766,3.1181,3.0221,2.8952,2.7686,0.0,2.7138,2.709,2.7114,2.709,2.7042,2.7018,2.7018,2.6994,2.6681,2.6214,2.6142,2.5588,2.464,2.4602,2.4314,2.3866,2.3384,2.2879,2.2373,2.2318,2.2318,2.2318,2.2318,2.2029,2.1476,2.0418,1.9627,1.9071,1.8494,1.7724,1.6787,1.6783,1.6633,1.6146,1.6364,1.652,1.6517,0.0,0.0,0.0,0.0,0.0,0.0,0.0,0.0,0.0,0.0,0.0,0.0,0.0,0.0,0.0,1.669,0.0,1.6721,1.6297,0.0,0.0,0.0,1.4366,1.4265,1.362,1.314,1.2978,0.0,0.0,1.2915,0.0,1.3242,1.3362,1.3525,1.3621,1.3621,1.3621,1.3621,1.3621,1.3692,1.3787,1.3792,1.398,1.4168,1.4262,1.4396,1.4352,1.4354,1.4422,1.4489,1.4352,1.4511,1.4466,1.4257,1.4027,1.3858,1.3416,1.3249,1.2982,1.241,1.2262,1.2168,4.018,3.9823,3.8197,3.6654,3.5269,3.4614,3.4304,3.4234,3.4084,3.3765,3.3339,3.2617,3.1477,3.0007,2.9559,2.934,2.9316,2.8907,2.8739,2.8715,2.833,2.8138,2.8074,2.769,2.7464,2.7296,2.6478,2.5973,2.5709,2.5324,2.4843,2.4362,2.4218,2.3905,2.3457,2.3433,2.3408,2.3433,2.3433,2.2943,2.2005,2.0971,2.0153,1.9627,1.8686,1.8085,1.782,1.746,1.7243,1.7217,1.7264,1.7359,1.7476,1.7476,0.0,0.0,0.0,0.0,0.0,0.0,0.0,0.0,0.0,1.7027,1.7027,0.0,1.7195,0.0,1.7121,1.7046,1.6921,1.6696,0.0,0.0,1.5476,1.5053,1.4842,1.4397,1.3937,1.355,1.341,1.3242,1.293,1.3069,1.3218,1.3242,1.3457,1.3621,1.3621,1.3621,1.3621,1.3621,1.3621,1.3692,1.3787,1.4046,1.4233,1.4233,1.4326,1.4396,1.4396,1.4441,1.4443,1.4396,1.4419,1.4326,1.4114,1.402,1.381,1.3362,1.3242,1.3126,1.2806,1.2734,1.2719,4.1054,4.0568,3.9321,3.8159,3.7177,3.6204,3.5805,3.578,3.5257,3.4881,3.453,3.3214,3.2118,3.1247,3.0447,3.0086,3.0062,2.9773,2.9653,2.9629,2.91,2.8859,2.8835,2.833,2.7906,2.7666,2.7103,2.6695,2.6454,2.5925,2.5516,2.5228,2.4987,2.4723,2.4434,2.4035,2.3794,2.3794,2.3577,2.3168,2.2534,2.1524,2.0706,2.0157,1.9336,1.8686,1.8205,1.7917,1.7677,1.7509,1.7557,1.763,1.7726,1.7774,1.7873,0.0,0.0,0.0,0.0,0.0,0.0,0.0,0.0,0.0,0.0,0.0,1.7869,0.0,1.7982,1.7881,1.7802,1.7494,1.7234,1.695,1.633,1.5828,1.5558,1.5026,1.4485,1.4063,1.3945,1.371,1.3248,1.3318,1.3366,1.3234,1.3386,1.3525,1.3597,1.3621,1.3621,1.3621,1.3621,1.3644,1.3763,1.3975,1.414,1.421,1.4326,1.4396,1.4396,1.4396,1.4396,1.4396,1.4396,1.4326,1.4067,1.3997,1.3855,1.3433,1.329,1.319,1.2944,1.2915,1.2915,4.1637,4.0868,3.9804,3.9247,3.8944,3.7764,3.7236,3.7111,3.606,3.5558,3.5361,3.336,3.2493,3.2332,3.0949,3.0302,3.0302,3.023,3.0182,3.0158,2.9653,2.9364,2.9292,2.8835,2.829,2.7849,2.7753,2.745,2.6994,2.6478,2.6166,2.6069,2.5636,2.5372,2.5276,2.441,2.4011,2.3986,2.3481,2.3192,2.3119,2.2053,2.1235,2.0711,2.0181,1.9432,1.8446,1.8398,1.8157,1.7652,1.7702,1.7775,1.78,1.7873,1.8093,0.0,1.8527,0.0,0.0,0.0,0.0,0.0,0.0,0.0,0.0,1.8037,1.8494,1.8951,1.8893,1.8836,1.881,1.841,1.8166,1.8061,1.7319,1.6672,1.6326,1.5663,1.5046,1.4633,1.4533,1.4294,1.3704,1.3708,1.3616,1.3375,1.3378,1.3481,1.3573,1.3621,1.3621,1.3621,1.3621,1.3644,1.3739,1.3881,1.3999,1.4163,1.428,1.4373,1.4396,1.4396,1.4396,1.4396,1.4396,1.4303,1.4046,1.4022,1.3905,1.3505,1.3409,1.331,1.3041,1.2939,1.2915,4.1386,4.1131,4.005,3.9598,3.9446,3.8341,3.7588,3.7136,3.6483,3.5862,3.5155,3.3691,3.295,3.2654,3.1781,3.1404,3.138,3.097,3.0778,3.0711,3.0182,2.9725,2.9316,2.9196,2.8883,2.8354,2.7921,2.7681,2.7522,2.6994,2.6513,2.6093,2.5997,2.5733,2.5324,0.0,0.0,0.0,2.4506,2.4025,2.3625,2.2614,2.1789,2.126,2.073,0.0,1.9555,1.9507,1.9239,1.8734,1.8712,0.0,0.0,0.0,0.0,0.0,0.0,0.0,0.0,0.0,0.0,0.0,2.0105,1.9648,1.8782,1.8782,1.8879,1.8975,1.8972,1.8919,1.8786,1.8706,1.8518,1.8139,1.7829,1.7489,1.7125,1.6622,1.6071,1.5526,1.5273,1.4921,1.4341,1.4118,1.3957,1.3761,1.363,1.3594,1.3597,1.3621,1.3621,1.3621,1.3621,1.3621,1.3644,1.3739,1.3902,1.402,1.414,1.428,1.4373,1.4396,1.4396,1.4396,1.4396,1.435,1.4186,1.4163,1.4022,1.3647,1.3573,1.3454,1.3113,1.3061,1.3036,4.1569,0.0,4.0201,3.9697,0.0,3.8492,3.7839,3.7538,3.6757,3.6066,3.5531,3.4185,3.3444,3.3147,3.2143,3.1717,3.1693,3.1428,3.1308,3.1284,3.0711,3.0326,3.0103,2.9532,2.9148,2.8883,2.8354,2.8114,2.8089,2.7584,2.7138,2.6887,2.6647,2.6238,2.5709,2.5444,2.5324,2.5324,2.4795,2.441,2.4121,2.3111,2.2318,2.1813,0.0,0.0,0.0,0.0,0.0,0.0,0.0,0.0,0.0,0.0,0.0,1.9793,2.0057,2.0201,2.0201,2.0466,2.061,2.0586,2.061,2.037,1.9844,1.9793,1.9793,1.9765,1.9793,1.9765,1.9682,1.9626,1.9392,1.8912,1.8562,1.8164,1.7662,1.72,1.675,1.6231,1.5994,1.5606,1.4941,1.478,1.4495,1.4084,1.392,1.3796,1.3638,1.3621,1.3621,1.3621,1.3621,1.3621,1.3621,1.3716,1.3855,1.3973,1.4116,1.4257,1.4373,1.4396,1.4396,1.4396,1.4396,1.435,1.4212,1.4188,1.4095,1.3787,1.3692,1.3597,1.3286,1.319,1.3138,4.1864,4.1681,4.0357,3.9724,3.9597,3.8492,3.7889,3.7663,0.0,0.0,0.0,3.4533,3.3836,3.3465,3.2244,3.1717,3.1717,3.1717,3.1717,3.1693,3.1259,3.1019,3.0874,2.9989,2.9484,2.9292,2.8859,2.8595,2.8498,2.8026,2.7786,2.7642,2.7258,2.6753,2.6262,2.5805,2.554,2.542,2.4904,2.4602,2.4472,2.3688,2.2991,2.2486,2.1957,2.1452,2.0923,2.0779,2.0711,2.0615,2.061,2.0581,2.0581,2.0581,2.0581,2.061,2.0706,2.0754,2.0754,2.0827,2.087,2.0899,2.0899,2.0803,2.0639,2.0586,2.061,2.0581,2.0581,2.0581,2.0581,2.0495,2.0246,1.9789,1.9404,1.8884,1.818,1.7779,1.7337,1.6828,1.6581,1.6229,1.5606,1.5388,1.5124,1.4486,1.4231,1.4014,1.3676,1.3621,1.3621,1.3621,1.3621,1.3621,1.3621,1.3692,1.381,1.3949,1.4069,1.421,1.4326,1.4373,1.4396,1.4396,1.4396,1.435,1.4257,1.4257,1.4142,1.3905,1.3858,1.3787,1.3573,1.3409,1.331,4.2235,4.1681,4.0565,3.9878,3.9597,3.8492,3.7462,3.6631,3.648,3.6146,3.5595,3.4487,3.3744,3.3282,3.2199,3.1717,3.1717,3.1717,3.1717,0.0,3.1645,3.1356,3.0879,3.0778,3.0182,2.934,2.922,2.8955,2.8546,2.8426,2.8186,2.7738,2.7618,2.7306,2.6801,2.6705,2.6454,2.5997,2.5468,2.4987,2.453,2.4386,2.4049,2.3601,2.3071,2.2541,2.1981,2.1524,2.1067,2.0634,2.0581,2.0581,2.0581,2.0605,2.061,2.0639,2.1019,2.1284,2.1308,2.1716,2.1957,2.1981,2.1981,2.1596,2.0706,2.0615,2.0586,2.061,2.0658,2.0581,2.0581,2.0629,2.0548,2.0342,2.026,1.9818,1.8907,1.8561,1.8148,1.7344,1.6941,1.6609,1.6257,1.5911,1.5588,1.5219,1.4635,1.4113,1.3762,1.3621,1.3621,1.3621,1.3621,1.3621,1.3621,1.3621,1.3692,1.3831,1.3949,1.4093,1.4188,1.4326,1.4396,1.4396,1.4396,1.4396,1.435,1.4373,1.4303,1.4163,1.4095,1.4069,1.3926,1.3834,1.3716,4.2502,4.1853,4.0619,4.0032,3.9802,3.8517,3.7538,3.6857,3.6531,3.6073,3.5498,3.444,3.3744,3.3234,3.2199,3.1717,3.1717,3.1717,3.1717,3.1717,3.1717,3.1573,3.1332,3.1043,3.0615,3.02,2.9845,2.9436,2.8979,2.8955,2.8667,2.8162,2.7873,2.7584,2.733,2.7042,2.6777,2.6513,2.6021,2.5492,2.4928,2.4675,2.441,2.4169,2.3688,2.3192,2.2654,2.239,2.2005,2.15,2.1476,2.1476,2.1476,2.1476,2.1452,2.1482,2.1692,2.1837,2.1837,2.2084,2.2197,2.2197,2.2197,2.2005,2.1524,2.1482,2.1452,2.1476,2.1476,2.1476,2.1476,2.1476,2.1326,2.0979,2.0872,2.054,1.9784,1.9148,1.8584,1.8075,1.7465,1.6976,1.6751,1.642,1.605,1.5676,1.4909,1.4242,1.3969,1.3765,1.3621,1.3621,1.3621,1.3621,1.3621,1.3621,1.3668,1.3763,1.3926,1.4067,1.4186,1.4303,1.4373,1.4396,1.4396,1.4396,1.4396,1.4396,1.435,1.4257,1.4188,1.414,1.4044,1.4046,1.3975,4.2966,4.2159,4.0926,4.0211,3.9804,3.8541,3.7688,3.7161,3.6656,3.6121,3.5568,3.461,3.382,3.3234,3.2319,3.1837,3.1717,3.1717,3.1717,3.1717,3.1717,3.1717,3.1669,3.1284,3.1043,3.0898,3.0446,2.9989,2.9508,2.9364,2.9027,2.8522,2.805,2.7897,2.7858,2.745,2.721,2.7042,2.6695,2.6142,2.5492,2.4963,2.4664,2.4675,2.4218,2.3737,2.3352,2.324,2.2999,2.2582,2.2438,2.2366,2.2366,2.227,2.2197,2.2197,2.2197,2.2197,2.2197,2.2197,2.2197,2.2197,2.2197,2.2197,2.2197,2.2197,2.2197,2.2197,2.2149,2.2173,2.2149,2.2149,2.2029,2.162,2.1482,2.1182,2.0593,1.9848,1.916,1.8777,1.8025,1.7465,1.711,1.6864,1.6483,1.5921,1.5185,1.467,1.4374,1.4018,1.381,1.3641,1.3621,1.3621,1.3621,1.3621,1.3644,1.3739,1.3881,1.3999,1.414,1.428,1.4396,1.4396,1.4396,1.4396,1.4396,1.4396,1.435,1.4258,1.4303,1.428,1.4255,1.428,1.428,4.3731,4.2438,4.1507,4.0461,3.9347,3.839,3.7713,3.7161,3.6656,3.6241,3.5906,3.51,3.4232,3.3306,3.2683,3.2154,3.1765,3.1717,3.1717,3.1717,3.1717,3.1717,3.1717,3.1645,3.138,3.0995,3.0874,3.0518,3.0013,2.9532,2.9051,2.857,2.845,2.8426,2.8402,2.8354,2.8114,2.7657,2.757,2.7055,2.6069,2.5516,2.5252,2.5228,2.4688,2.44,2.428,2.3929,2.3697,2.3625,2.3192,2.2927,2.2871,2.2493,2.2197,2.2221,2.2221,2.2197,2.2197,2.2197,2.2221,2.2197,2.2246,2.2246,2.2221,2.2221,2.2197,2.2197,2.2197,2.2197,2.2197,2.2197,2.2149,2.2077,2.2022,2.1848,2.1248,2.0872,2.0234,1.8994,1.8617,1.8102,1.7494,1.7138,1.6755,1.6233,1.5924,1.549,1.4797,1.4432,1.4153,1.3769,1.3621,1.3621,1.3621,1.3621,1.3621,1.3668,1.3834,1.3997,1.4091,1.4233,1.4396,1.4396,1.4396,1.4396,1.4396,1.4396,1.4396,1.4396,1.4466,1.4581,1.4695,1.4696,1.4604,4.4094,4.2659,4.1852,4.0867,3.9728,3.907,3.8339,3.7638,3.7086,3.6541,3.6003,3.5637,3.4959,3.3952,3.3234,3.2659,3.2178,3.2154,3.1985,3.1741,3.1717,3.1717,3.1717,3.1717,3.1573,3.1404,3.138,3.1115,3.0543,3.0013,2.9484,2.9027,2.8979,2.8835,2.8546,2.8522,2.8402,2.8146,2.7834,2.7488,2.7007,2.6214,2.5612,2.5324,2.5083,2.4819,2.4496,2.4314,2.4073,2.3818,2.3601,2.3481,2.3481,2.3264,2.3168,2.3111,2.2855,2.2654,2.2654,2.2654,2.2799,2.3119,2.3168,2.3047,2.2702,2.2654,2.2566,2.2246,2.2197,2.2197,2.2197,2.2197,2.2197,2.2197,2.2197,2.207,2.1848,2.1361,2.0777,2.0117,1.927,1.8623,1.8148,1.7628,1.7141,1.6681,1.6433,1.602,1.55,1.4932,1.4411,1.4153,1.3831,1.3641,1.3621,1.3621,1.3621,1.3644,1.381,1.3997,1.4044,1.4231,1.4396,1.4396,1.4396,1.4396,1.4396,1.4396,1.4396,1.4489,1.4627,1.4741,1.4811,1.4834,1.4811,4.4502,4.3052,4.2092,4.1198,4.0389,3.9626,3.8943,3.8265,3.7536,3.6864,3.6322,3.6125,3.559,3.4792,3.3952,3.3305,3.2755,3.2563,3.2274,3.1889,3.1789,3.1717,3.1717,3.1717,3.1717,3.1717,3.1693,3.1428,3.0879,3.0561,3.0037,2.9581,2.9508,2.9244,2.8787,2.8715,2.8643,2.8474,2.8074,2.7873,2.7594,2.6959,2.6214,2.5612,2.554,2.5276,2.4771,2.4712,2.4578,2.4251,2.4049,2.4011,2.4011,2.3866,2.3794,2.377,2.3457,2.324,2.3207,2.3216,2.3384,2.3746,2.3794,2.3649,2.3312,2.3216,2.3015,2.2727,2.263,2.2582,2.2197,2.2197,2.2197,2.2197,2.2197,2.2197,2.2118,2.1691,2.1276,2.0942,2.0064,1.9195,1.8743,1.8177,1.7656,1.724,1.6901,1.6515,1.6246,1.5583,1.5033,1.4738,1.4195,1.3834,1.3662,1.3621,1.3621,1.3668,1.381,1.3997,1.402,1.4255,1.4396,1.4396,1.4396,1.4396,1.4396,1.4396,1.4443,1.4604,1.4742,1.4857,1.4903,1.4926,1.5017,4.5204,4.3478,4.2239,4.1547,4.1121,3.9903,3.9297,3.9069,3.7835,3.7186,3.7012,3.6347,3.5955,3.5808,3.4817,3.3976,3.3282,3.2803,3.2539,3.2418,3.2006,3.1741,3.1717,3.1717,3.1717,3.1765,3.1717,3.1452,3.0927,3.0855,3.0591,3.0086,3.0062,2.9773,2.934,2.922,2.9003,2.8595,2.8474,2.8234,2.7801,2.7681,2.7128,2.6214,2.6069,2.5829,2.5348,2.5276,2.5252,2.5228,2.4747,2.4482,2.4458,2.4073,2.3866,2.3818,2.3794,2.377,2.377,2.377,2.3818,2.3866,2.3938,2.3818,2.3794,2.377,2.3664,2.3697,2.3601,2.3264,2.2462,2.2318,2.2246,2.2197,2.2197,2.2197,2.2197,2.2002,2.164,2.1276,2.0805,2.0016,1.8908,1.8583,1.8256,1.7852,1.7673,1.7362,1.6796,1.6518,1.6024,1.5377,1.4801,1.4261,1.3769,1.3621,1.3621,1.3668,1.3787,1.3997,1.4091,1.4208,1.4303,1.4396,1.4396,1.4396,1.4396,1.4443,1.4557,1.4673,1.4789,1.4903,1.4994,1.5085,1.5131,4.4917,4.3355,4.2728,4.1993,4.1248,4.0588,3.9954,3.9246,3.8591,3.7839,3.7236,3.6889,3.647,3.5955,3.5614,3.4889,3.4025,3.362,3.3332,3.302,3.2803,3.2707,3.2704,3.237,3.2202,3.2154,3.1841,3.1621,3.1452,3.1428,3.1163,3.0706,3.0591,3.0326,2.9845,2.946,2.9196,2.9003,2.8691,2.8426,2.8218,2.8234,2.7873,2.7176,2.6777,2.6382,2.5829,2.5829,2.5661,2.5324,2.5107,2.4976,2.5011,2.4843,2.4602,2.429,2.4242,2.4242,2.4242,2.4242,2.441,2.4723,2.4747,2.4578,2.4338,2.4242,2.4121,2.3914,2.3818,2.3553,2.3312,2.2895,2.259,2.227,2.2197,2.2221,2.2197,2.2111,2.1978,2.164,2.1172,2.0474,1.9826,1.9326,1.8963,1.8621,1.8235,1.782,1.7431,1.6997,1.6492,1.6089,1.5446,1.4881,1.4704,1.398,1.3621,1.3692,1.3787,1.3949,1.4067,1.4255,1.4373,1.4396,1.4396,1.4396,1.4396,1.4489,1.4604,1.4719,1.4834,1.4949,1.5085,1.5085,1.5198,4.479,4.3669,4.3259,4.2582,4.1673,4.1198,4.0538,3.9702,3.9196,3.8541,3.7838,3.7538,3.7064,3.647,3.6324,3.5787,3.489,3.4411,3.3909,3.3525,3.338,3.3284,3.3236,3.2923,3.2755,3.2683,3.2202,3.1865,3.1717,3.1717,3.1524,3.1187,3.1163,3.0879,3.035,2.9989,2.9749,2.9508,2.9027,2.8763,2.8739,2.8595,2.8354,2.7993,2.7594,2.7066,2.6406,2.619,2.5949,2.5588,2.5396,2.5324,2.5324,2.5324,2.5155,2.4843,2.4736,2.4771,2.4771,2.4736,2.4939,2.5252,2.53,2.5131,2.4819,2.4795,2.4602,2.4362,2.4266,2.4242,2.3977,2.3688,2.3256,2.283,2.2558,2.2462,2.2438,2.2294,2.2104,2.1877,2.1547,2.1037,2.0505,2.01,1.9784,1.9516,1.8909,1.8497,1.8217,1.763,1.7019,1.684,1.6202,1.5685,1.5337,1.4746,1.4121,1.4087,1.3894,1.3992,1.411,1.4276,1.4373,1.4396,1.4396,1.4396,1.4443,1.4534,1.465,1.4765,1.4857,1.4926,1.504,1.5085,1.5221,4.4815,4.4303,4.3804,4.3163,4.2413,4.1647,4.0997,4.0414,3.9651,3.9121,3.8718,3.8241,3.7713,3.7213,3.6869,3.6475,3.586,3.4939,3.4339,3.4006,3.3621,3.3428,3.3428,3.3332,3.3188,3.3116,3.2707,3.2178,3.1741,3.1717,3.1669,3.1669,3.1645,3.138,3.0922,3.0802,3.0543,3.0086,2.9581,2.9292,2.9244,2.8811,2.8546,2.8474,2.8402,2.7906,2.697,2.6478,2.6214,2.6069,2.5636,2.5324,2.5324,2.5324,2.53,2.5252,2.524,2.524,2.5276,2.5252,2.5228,2.5324,2.5324,2.53,2.5228,2.5228,2.5204,2.5131,2.5131,2.5035,2.4602,2.4482,2.4218,2.3785,2.3264,2.3023,2.2951,2.2534,2.2135,2.1956,2.1854,2.1594,2.1101,2.0848,2.0641,2.0263,1.9757,1.9296,1.9039,1.8446,1.7965,1.7484,1.695,1.6423,1.5988,1.5516,1.4971,1.4503,1.4233,1.41,1.4195,1.4337,1.4348,1.4373,1.4396,1.4396,1.4396,1.4489,1.4627,1.4742,1.4834,1.4926,1.504,1.5131,1.5244,4.5,4.4397,4.4209,4.3594,4.2755,4.2141,4.1547,4.0997,4.0185,3.9576,3.9146,3.8793,3.8291,3.7739,3.7265,3.6893,3.65,3.562,3.5088,3.4799,3.451,3.4318,3.4246,3.3934,3.3428,3.2827,3.2587,3.2226,3.1813,3.1717,3.1717,3.1717,3.1717,3.1621,3.1428,3.1115,3.0759,3.0591,3.011,2.9677,2.934,2.9148,2.8883,2.8546,2.8498,2.833,2.8017,2.7512,2.7018,2.6657,2.6142,2.5685,2.5396,2.5324,2.5324,2.5324,2.5324,2.5324,2.5324,2.5324,2.5324,2.5324,2.5324,2.5324,2.5324,2.5324,2.5324,2.5324,2.53,2.5204,2.5107,2.5059,2.4699,2.389,2.3673,2.3553,2.3457,2.3047,2.2606,2.2207,2.2104,2.2009,2.1786,2.1577,2.1326,2.1134,2.0625,2.0108,1.9642,1.9198,1.8566,1.7993,1.7516,1.7131,1.6689,1.6223,1.5716,1.5169,1.4759,1.4352,1.4385,1.4398,1.4387,1.435,1.4396,1.4396,1.4396,1.4443,1.4581,1.4696,1.4811,1.4949,1.5062,1.5153,1.5244,4.5276,4.4676,4.4583,4.4021,4.3163,4.2631,4.2043,4.1398,4.0795,4.0235,3.9778,3.9474,3.902,3.8491,3.8014,3.7639,3.7218,3.6578,3.6088,3.56,3.5041,3.4823,3.4799,3.4462,3.3862,3.3164,3.2875,3.2515,3.203,3.1813,3.1717,3.1717,3.1717,3.1717,3.1693,3.1404,3.1211,3.1139,3.0706,3.023,2.9869,2.9508,2.9148,2.8835,2.8619,2.8522,2.8498,2.8186,2.7738,2.721,2.6657,2.6166,2.5661,2.5612,2.5516,2.5348,2.5324,2.5324,2.5324,2.5324,2.5324,2.5324,2.5324,2.5324,2.5324,2.5324,2.5324,2.5324,2.5324,2.5324,2.53,2.53,2.4987,2.4434,2.4169,2.4011,2.3794,2.3336,2.2927,2.2534,2.2342,2.2221,2.2132,2.2079,2.1904,2.1807,2.1418,2.103,2.0532,2.006,1.9427,1.8793,1.8326,1.7885,1.7374,1.6927,1.6458,1.5918,1.5369,1.4898,1.4655,1.461,1.4603,1.4437,1.4396,1.4396,1.4396,1.4396,1.4488,1.4627,1.4811,1.4926,1.504,1.5085,1.5198,4.5595,4.5138,4.4908,4.4397,4.3614,4.3163,4.2533,4.1845,4.1448,4.1047,4.0567,4.0211,3.9829,3.9348,3.8919,3.8492,3.8066,3.7593,3.7023,3.6309,3.5502,3.4919,3.4823,3.4703,3.4366,3.3862,3.3501,3.3068,3.2539,3.2175,3.1789,3.1837,3.1837,3.1741,3.1717,3.1693,3.1645,3.1548,3.1187,3.0903,3.0778,2.9965,2.9364,2.9268,2.8835,2.8595,2.8498,2.845,2.821,2.7729,2.7162,2.6681,2.6262,2.6142,2.5925,2.5492,2.5372,2.5348,2.5324,2.5324,2.5324,2.5324,2.5324,2.5324,2.5324,2.5396,2.5468,2.5468,2.5492,2.5516,2.5516,2.5444,2.5348,2.5252,2.4819,2.4386,2.3914,2.3457,2.324,2.3023,2.2582,2.2246,2.2325,2.2383,2.2372,2.2335,2.2114,2.1903,2.1575,2.101,2.0394,1.9771,1.9179,1.8588,1.8025,1.7429,1.6955,1.6583,1.6063,1.5632,1.5067,1.4935,1.469,1.4524,1.4396,1.4396,1.4396,1.4396,1.4511,1.4696,1.4834,1.4903,1.4994,1.5085,1.5198,4.5685,4.5367,4.5138,4.4723,4.4162,4.3614,4.3088,4.2533,4.2092,4.1597,4.1097,4.0795,4.0414,3.988,3.9398,3.8995,3.8592,3.7967,3.7419,3.6898,3.6185,3.5355,3.4895,3.4775,3.451,3.4054,3.3838,3.3597,3.3116,3.2875,3.2611,3.2298,3.2274,3.2058,3.1789,3.1741,3.1717,3.1693,3.1597,3.1284,3.0946,3.0681,3.0062,2.934,2.9172,2.8883,2.857,2.8522,2.8258,2.7777,2.757,2.7234,2.6791,2.6719,2.6478,2.6021,2.5877,2.5709,2.542,2.5372,2.5348,2.5324,2.542,2.5324,2.5324,2.5685,2.5853,2.5949,2.6214,2.6417,2.6369,2.6117,2.5781,2.5372,2.518,2.4891,2.4434,2.4194,2.4001,2.3592,2.3119,2.2911,2.2861,2.2774,2.2708,2.2726,2.2639,2.2476,2.2149,2.1884,2.1258,2.0494,1.9823,1.9254,1.8639,1.7985,1.7507,1.7185,1.6829,1.6455,1.5864,1.538,1.4934,1.4527,1.444,1.4396,1.4396,1.4396,1.4581,1.4741,1.4811,1.488,1.5017,1.5108,1.5221,4.5991,4.5504,4.5321,4.5,4.4565,4.4115,4.3662,4.3163,4.2679,4.219,4.1746,4.1248,4.0896,4.0567,3.9905,3.9576,3.9322,3.8767,3.824,3.764,3.6822,3.5817,3.504,3.4775,3.4607,3.4342,3.4102,3.3838,3.3597,3.3404,3.3116,3.2899,3.2827,3.2539,3.2082,3.201,3.1889,3.1765,3.1717,3.1524,3.1284,3.1019,3.0615,2.9989,2.9773,2.9388,2.8907,2.8643,2.8354,2.8114,2.8002,2.7786,2.7282,2.721,2.697,2.6502,2.6454,2.6273,2.6069,2.5997,2.5961,2.5961,2.5961,2.5997,2.6033,2.6249,2.6454,2.6441,2.6729,2.6849,2.6849,2.6622,2.6214,2.5781,2.5636,2.542,2.4856,2.4626,2.441,2.4049,2.3697,2.3401,2.3506,2.3235,2.3145,2.3145,2.3063,2.2845,2.2596,2.2377,2.2061,2.1287,2.0692,2.016,1.9521,1.8889,1.8255,1.7885,1.7374,1.706,1.6499,1.5854,1.5247,1.4792,1.4571,1.4396,1.4419,1.4465,1.4557,1.4673,1.4742,1.4857,1.5017,1.5108,1.5244,4.6367,4.5636,4.5533,4.523,4.4862,4.4583,4.4162,4.3662,4.3259,4.2873,4.2435,4.1796,4.1498,4.1324,4.0617,4.0185,4.016,3.9726,3.9143,3.8337,3.7414,3.6377,3.5355,3.504,3.4871,3.4679,3.4294,3.4174,3.4149,3.3787,3.3546,3.3566,3.3496,3.316,3.2771,3.2581,3.2247,3.1954,3.1741,3.1693,3.1573,3.1259,3.097,3.0663,3.0206,2.9749,2.9268,2.8883,2.8595,2.8498,2.8522,2.8234,2.7825,2.7801,2.7536,2.709,2.697,2.6922,2.6849,2.6729,2.6825,2.6753,2.6777,2.6873,2.6801,2.6873,2.697,2.697,2.7042,2.7138,2.7042,2.6994,2.6705,2.631,2.6142,2.5853,2.5444,2.4939,2.4568,2.4544,2.4179,2.4038,2.3976,2.3847,2.367,2.3841,2.3629,2.3335,2.311,2.29,2.2611,2.2174,2.1614,2.115,2.0485,1.9776,1.9182,1.8646,1.7968,1.7484,1.6938,1.6295,1.5606,1.5169,1.4977,1.4711,1.4465,1.4511,1.4581,1.4673,1.4787,1.4903,1.5017,1.5085,1.5176,4.6691,4.6454,4.5797,4.5458,4.5321,4.5092,4.4676,4.4209,4.4115,4.3689,4.319,4.2679,4.2289,4.1895,4.1298,4.0946,4.0643,4.0211,3.9473,3.8539,3.8083,3.7311,3.6375,3.5789,3.5232,3.4968,3.4945,3.4944,3.492,3.4917,3.4866,3.4521,3.4472,3.4228,3.3668,3.3141,3.2734,3.2471,3.2023,3.1765,3.1765,3.1597,3.1332,3.097,3.0441,2.9911,2.9412,2.9196,2.8931,2.8619,2.8498,2.8466,2.8306,2.8282,2.8041,2.7642,2.7498,2.7354,2.7018,2.6994,2.6898,2.6994,2.7042,2.6898,2.6922,2.733,2.7498,2.7594,2.7858,2.7897,2.757,2.7522,2.7272,2.6839,2.643,2.6117,2.5853,2.5444,2.5131,2.5046,2.4836,2.4657,2.4802,2.4559,2.4424,2.4453,2.4192,2.3879,2.3597,2.3341,2.298,2.2596,2.2268,2.178,2.1383,2.0643,1.9908,1.93,1.864,1.803,1.7499,1.7077,1.6494,1.5908,1.5389,1.5096,1.4758,1.4557,1.4604,1.4719,1.4834,1.4926,1.5017,1.5085,1.5176,4.7068,4.672,4.602,4.5595,4.5504,4.5321,4.5092,4.4769,4.4658,4.4303,4.3832,4.3403,4.297,4.2435,4.1944,4.1448,4.1047,4.0542,3.9931,3.9346,3.8989,3.8384,3.7685,3.6965,3.6352,3.555,3.5357,3.5428,3.5596,3.574,3.5662,3.5581,3.5556,3.5164,3.4647,3.4114,3.3665,3.312,3.2568,3.2168,3.2078,3.1813,3.1689,3.139,3.1016,3.0639,3.0445,2.9861,2.9545,2.9189,2.8946,2.8697,2.8498,2.8522,2.8314,2.8122,2.8089,2.7993,2.769,2.7642,2.7666,2.7657,2.7681,2.7618,2.7666,2.7969,2.8065,2.8138,2.8306,2.8378,2.8138,2.8089,2.7825,2.7416,2.7031,2.6708,2.6275,2.5768,2.543,2.5417,2.5338,2.5448,2.5422,2.5161,2.5062,2.5069,2.4299,2.3954,2.3753,2.3496,2.319,2.288,2.2665,2.2367,2.2089,2.1472,2.0586,1.996,1.9317,1.8776,1.8236,1.7878,1.7522,1.6797,1.6033,1.546,1.5142,1.4918,1.4717,1.4788,1.4903,1.4949,1.5017,1.5085,1.5221,4.755,4.6865,4.6301,4.5892,4.5595,4.5549,4.5413,4.5138,4.5,4.4769,4.4443,4.3946,4.3546,4.3115,4.2582,4.1993,4.1448,4.0946,4.0516,4.0236,3.993,3.9448,3.8842,3.8364,3.7765,3.653,3.6136,3.6106,3.6318,3.6288,3.6449,3.6568,3.6593,3.6243,3.5683,3.5273,3.4789,3.4047,3.342,3.2991,3.2717,3.2329,3.2083,3.201,3.1828,3.1656,3.1403,3.086,3.0294,3.0211,2.9628,2.9184,2.8873,2.8562,2.8578,2.8578,2.8569,2.8497,2.8488,2.8497,2.8521,2.8538,2.8514,2.849,2.853,2.8481,2.8521,2.8569,2.8618,2.8578,2.8538,2.845,2.8234,2.796,2.7816,2.7386,2.6846,2.6237,2.6053,2.5676,2.5707,2.5832,2.5896,2.575,2.5702,2.5528,2.4757,2.413,2.3979,2.3672,2.3421,2.309,2.288,2.274,2.2485,2.2021,2.118,2.071,2.0041,1.9497,1.9,1.8611,1.8172,1.739,1.6683,1.6151,1.5622,1.528,1.5102,1.5016,1.4926,1.4926,1.4994,1.5085,1.5244,4.8188,4.7579,4.694,4.6343,4.5879,4.585,4.5685,4.5458,4.5367,4.523,4.4954,4.449,4.4256,4.3926,4.3403,4.2728,4.2043,4.1647,4.1348,4.1071,4.082,4.0438,4.0109,3.96,3.9194,3.8714,3.7834,3.74,3.753,3.7411,3.7469,3.7526,3.7433,3.7191,3.6826,3.6315,3.5759,3.5186,3.4554,3.4053,3.3699,3.3236,3.2838,3.2717,3.2469,3.235,3.2172,3.1813,3.1473,3.1188,3.0518,3.0229,2.999,2.9337,2.9007,2.8934,2.8816,2.8816,2.8895,2.8973,2.8895,2.8816,2.8776,2.8776,2.8776,2.8752,2.8816,2.8855,2.8816,2.8736,2.8736,2.8657,2.8593,2.8455,2.8242,2.7978,2.7851,2.7521,2.6928,2.6314,2.6247,2.6179,2.6124,2.6177,2.612,2.5937,2.541,2.4858,2.4632,2.4205,2.3753,2.3396,2.3095,2.295,2.2829,2.2342,2.1726,2.1403,2.0856,2.0269,1.9794,1.9352,1.878,1.8114,1.7499,1.6998,1.6459,1.583,1.5602,1.5585,1.5265,1.4925,1.5108,1.5315,1.529,4.8362,4.7724,4.7085,4.6446,4.5953,4.5895,4.5821,4.5685,4.5685,4.5549,4.5321,4.5046,4.4723,4.4397,4.4068,4.3451,4.2825,4.2435,4.219,4.1895,4.162,4.1372,4.1097,4.0709,4.0757,4.0546,3.9823,3.9151,3.9223,3.8766,3.8734,3.8857,3.8535,3.8167,3.7959,3.7449,3.6856,3.6356,3.5725,3.5193,3.479,3.417,3.3702,3.3633,3.3323,3.3216,3.3283,3.2816,3.2504,3.2255,3.1731,3.1323,3.0939,3.041,2.9717,2.9361,2.9091,2.9013,2.9091,2.9091,2.9052,2.8973,2.8973,2.8973,2.8973,2.8973,2.9052,2.9052,2.9052,2.8949,2.8934,2.8855,2.8855,2.8885,2.8704,2.8537,2.8483,2.83,2.7742,2.7047,2.6955,2.6776,2.6361,2.6405,2.644,2.6273,2.5946,2.5561,2.5209,2.4757,2.4205,2.3803,2.3446,2.3265,2.3149,2.2839,2.2298,2.1976,2.163,2.1036,2.0516,2.0091,1.9566,1.8993,1.8418,1.78,1.7213,1.6598,1.6365,1.6134,1.5903,1.5698,1.5565,1.5521,1.5545,4.8362,4.7724,4.7085,4.6475,4.5924,4.5895,4.5895,4.5895,4.5895,4.5805,4.5595,4.5458,4.5138,4.4723,4.4472,4.4143,4.3526,4.3211,4.297,4.2728,4.2484,4.219,4.1993,4.1819,4.1815,4.2052,4.178,4.1319,4.073,4.0187,4.0175,4.0169,3.9663,3.9096,3.8898,3.8395,3.7965,3.739,3.6928,3.6462,3.5805,3.5118,3.4743,3.4762,3.4246,3.4037,3.4376,3.4005,3.3673,3.3439,3.3088,3.2567,3.2071,3.1551,3.089,3.0058,2.9596,2.9365,2.9365,2.9404,2.9482,2.9404,2.9326,2.9326,2.9365,2.9443,2.9443,2.9365,2.9326,2.9287,2.9287,2.917,2.917,2.917,2.9121,2.91,2.8958,2.8862,2.8675,2.8162,2.7871,2.7394,2.6967,2.6716,2.6801,2.6499,2.6172,2.5837,2.5485,2.5259,2.4782,2.428,2.3929,2.3597,2.3466,2.3416,2.2925,2.2466,2.2176,2.1731,2.1234,2.0784,2.0279,1.9803,1.915,1.8499,1.7901,1.738,1.7072,1.6811,1.6594,1.6386,1.6093,1.6003,1.6005,4.8362,4.7724,4.7039,4.6475,4.5924,4.5895,4.5895,4.5895,4.5895,4.5895,4.5805,4.5595,4.5458,4.523,4.4862,4.4565,4.4256,4.3974,4.3737,4.3471,4.3307,4.3163,4.3067,4.2825,4.2922,4.3163,4.3054,4.2726,4.2199,4.1598,4.1416,4.1461,4.0885,4.0277,3.9916,3.9321,3.8585,3.819,3.8009,3.7618,3.6895,3.627,3.5939,3.5627,3.5042,3.4673,3.5168,3.494,3.4791,3.4738,3.4286,3.3993,3.3754,3.2988,3.2385,3.1642,3.0855,3.0062,3.0203,3.0177,3.0101,2.9985,2.9947,3.0011,2.9985,3.0101,3.0177,3.0254,3.0062,2.9895,2.974,2.956,2.9419,2.9419,2.9457,2.9535,2.9526,2.9389,2.9202,2.9,2.8624,2.8021,2.7494,2.7268,2.7077,2.6725,2.6399,2.6088,2.5762,2.5511,2.531,2.4808,2.4406,2.4098,2.3847,2.3803,2.3496,2.2985,2.2639,2.2351,2.1958,2.1481,2.1078,2.0569,1.9907,1.9401,1.8965,1.8436,1.7843,1.7475,1.7303,1.6949,1.655,1.6508,1.656,4.7491,4.723,4.694,4.6446,4.5924,4.5895,4.5895,4.5895,4.5895,4.5895,4.5866,4.5776,4.564,4.5458,4.5092,4.4908,4.4769,4.4676,4.449,4.4303,4.4162,4.4096,4.3926,4.3832,4.3907,4.4021,4.4162,4.4144,4.365,4.2953,4.2528,4.2628,4.1963,4.1256,4.0893,4.0302,3.9697,3.9185,3.8854,3.8667,3.8229,3.7721,3.7263,3.6995,3.6109,3.5871,3.5818,3.5737,3.5629,3.5561,3.5304,3.506,3.4738,3.4203,3.3775,3.3365,3.2779,3.1909,3.0979,3.0837,3.0736,3.0634,3.0596,3.0596,3.066,3.0672,3.0748,3.071,3.0672,3.0546,3.0356,3.0241,3.0101,2.9999,2.9883,2.9908,2.9972,2.9934,2.9782,2.958,2.9352,2.875,2.8259,2.7971,2.7645,2.7178,2.6876,2.66,2.6163,2.5762,2.5561,2.5335,2.4958,2.46,2.4381,2.418,2.3929,2.3521,2.309,2.2808,2.2582,2.2209,2.1776,2.1422,2.0908,2.0441,2.005,1.9312,1.8484,1.8206,1.8026,1.7667,1.7336,1.7266,1.7272,4.6691,4.6592,4.6592,4.633,4.5895,4.5895,4.5895,4.5895,4.5895,4.5895,4.5895,4.5895,4.5805,4.5595,4.5413,4.5276,4.5184,4.5201,4.5092,4.4954,4.4862,4.4723,4.4583,4.4537,4.463,4.489,4.4769,4.4787,4.4645,4.4178,4.3694,4.3786,4.2894,4.2311,4.1803,4.1318,4.0763,3.9991,3.9595,3.9424,3.9261,3.8771,3.8437,3.8002,3.7482,3.688,3.6709,3.6546,3.6438,3.6071,3.6084,3.5904,3.5562,3.5374,3.5084,3.4799,3.4426,3.3789,3.2659,3.1995,3.1532,3.1325,3.1272,3.131,3.131,3.1272,3.1272,3.131,3.131,3.1161,3.0973,3.0924,3.0748,3.0596,3.0444,3.0368,3.0254,3.0216,3.0101,2.9871,2.9668,2.9541,2.9089,2.875,2.8298,2.7645,2.7293,2.7077,2.6625,2.6122,2.5971,2.5787,2.5661,2.531,2.4958,2.4682,2.4381,2.4029,2.3597,2.3266,2.3098,2.2831,2.2449,2.2095,2.1791,2.1478,2.1056,2.0074,1.9133,1.8857,1.863,1.8451,1.823,1.8085,1.7991,4.6475,4.5953,4.5953,4.5953,4.5895,4.5895,4.5895,4.5895,4.5895,4.5895,4.5895,4.5895,4.5866,4.5821,4.5776,4.564,4.5458,4.5458,4.5367,4.5184,4.5064,4.5092,4.5046,4.5092,4.5092,4.5138,4.5138,4.5184,4.511,4.4978,4.472,4.4581,4.3804,4.3304,4.2775,4.2227,4.1563,4.0803,4.0311,4.0007,3.9885,3.9498,3.9197,3.913,3.8547,3.7924,3.7585,3.7446,3.7171,3.6595,3.6603,3.6693,3.647,3.6443,3.6241,3.6011,3.5881,3.5338,3.4538,3.3512,3.2688,3.2272,3.2019,3.1982,3.1982,3.2019,3.2019,3.1982,3.1909,3.18,3.1643,3.1532,3.1347,3.1123,3.0936,3.0773,3.0634,3.0482,3.0368,3.0164,2.9999,2.9846,2.9705,2.9315,2.8825,2.8197,2.762,2.7379,2.6952,2.6499,2.6424,2.6348,2.6348,2.6072,2.5636,2.5285,2.4933,2.4556,2.4155,2.3831,2.3616,2.3321,2.3119,2.2881,2.2602,2.2313,2.1948,2.1006,2.0181,1.957,1.919,1.896,1.8778,1.8627,1.8601,4.6098,4.5895,4.5895,4.5895,4.5895,4.5895,4.5895,4.5895,4.5895,4.5895,4.5895,4.5895,4.5895,4.5895,4.5895,4.585,4.5759,4.573,4.564,4.564,4.5595,4.5595,4.5595,4.5549,4.5595,4.5549,4.5595,4.5623,4.5595,4.5413,4.5321,4.5024,4.4532,4.4037,4.3505,4.2862,4.2111,4.1563,4.11,4.0892,4.0589,4.0448,4.0238,4.0011,3.9926,3.9237,3.8714,3.8314,3.7941,3.758,3.7349,3.7286,3.724,3.724,3.7137,3.7025,3.6968,3.6656,3.6079,3.505,3.4131,3.3448,3.2988,3.2696,3.2687,3.2561,3.2489,3.2489,3.2489,3.2381,3.2164,3.2092,3.1946,3.1643,3.141,3.1224,3.1075,3.0898,3.0634,3.0406,3.0241,3.0024,2.9947,2.9806,2.9265,2.8725,2.8147,2.762,2.7253,2.6927,2.6876,2.67,2.665,2.6524,2.6122,2.5762,2.546,2.5059,2.4657,2.4418,2.4147,2.408,2.3889,2.3606,2.3311,2.297,2.2496,2.1869,2.119,2.0542,1.9902,1.9396,1.9239,1.9131,1.9078,4.5895,4.5895,4.5895,4.5895,4.5895,4.5895,4.5895,4.5895,4.5895,4.5895,4.5895,4.5895,4.5895,4.5895,4.5895,4.5895,4.5895,4.5895,4.5895,4.5866,4.5821,4.5895,4.5895,4.5866,4.5821,4.5895,4.5895,4.5895,4.585,4.5685,4.564,4.5458,4.523,4.4687,4.4191,4.3477,4.2822,4.2483,4.1918,4.1707,4.1398,4.1142,4.1014,4.0783,4.0726,4.0301,3.9747,3.9332,3.8848,3.841,3.8022,3.7853,3.7749,3.7701,3.7739,3.7777,3.772,3.7519,3.7023,3.6057,3.5204,3.4651,3.3987,3.3663,3.3452,3.3269,3.3122,3.3094,3.3058,3.298,3.2767,3.2731,3.2561,3.23,3.2009,3.1827,3.1569,3.1384,3.1011,3.071,3.052,3.0356,3.0011,2.9908,2.9466,2.9001,2.8649,2.8147,2.772,2.7444,2.7268,2.7102,2.6851,2.67,2.6499,2.6223,2.5921,2.546,2.5091,2.495,2.4778,2.4688,2.4561,2.4316,2.3995,2.3574,2.3152,2.2652,2.2076,2.1424,2.0749,2.0057,1.9603,1.9499,1.942,4.5895,4.5895,4.5895,4.5895,4.5895,4.5895,4.5895,4.5895,4.5895,4.5895,4.5895,4.5895,4.5895,4.5895,4.5895,4.5895,4.5895,4.5895,4.5895,4.5895,4.5895,4.5895,4.5895,4.5895,4.5895,4.5895,4.5895,4.5895,4.5895,4.5821,4.5821,4.5776,4.5549,4.5264,4.5024,4.4436,4.4122,4.3894,4.2866,4.2467,4.2081,4.171,4.1524,4.1337,4.135,4.1035,4.0592,4.0318,3.9774,3.9064,3.8646,3.839,3.8122,3.7949,3.7967,3.8089,3.8127,3.8136,3.8011,3.6618,3.6012,3.5682,3.5068,3.469,3.459,3.4298,3.3965,3.4059,3.3959,3.3845,3.362,3.3417,3.3269,3.2909,3.2596,3.2345,3.2119,3.1817,3.1421,3.1086,3.0936,3.0748,3.0318,2.9922,2.9554,2.9202,2.8963,2.8612,2.8222,2.7996,2.7846,2.7519,2.7243,2.7052,2.6876,2.665,2.6348,2.5862,2.5602,2.5481,2.5256,2.5046,2.4957,2.4901,2.4543,2.4099,2.3838,2.3548,2.2916,2.2234,2.145,2.0777,2.0267,2.0013,2.0135,4.5895,4.5895,4.5895,4.5895,4.5895,4.5895,4.5895,4.5895,4.5895,4.5895,4.5895,4.5895,4.5895,4.5895,4.5895,4.5895,4.5895,4.5895,4.5895,4.5895,4.5924,4.5895,4.5924,4.6011,4.5953,4.5895,4.5895,4.5924,4.5895,4.5895,4.5895,4.5821,4.5776,4.5549,4.5173,4.4824,4.4652,4.4224,4.3681,4.3312,4.2639,4.2366,4.2121,4.1901,4.1872,4.1629,4.1245,4.1069,4.0521,3.9905,3.9513,3.8967,3.863,3.8428,3.8185,3.8231,3.8202,3.8202,3.8173,3.7531,3.7205,3.6735,3.6115,3.564,3.5518,3.5325,3.5175,3.5089,3.5039,3.4825,3.4519,3.437,3.4115,3.348,3.3122,3.2838,3.2588,3.2255,3.189,3.1596,3.1347,3.0823,3.0356,3.0088,2.9732,2.9566,2.9377,2.9126,2.875,2.8624,2.8473,2.8097,2.777,2.7505,2.7253,2.7027,2.6751,2.6339,2.6156,2.608,2.5833,2.5537,2.5323,2.5266,2.4936,2.4599,2.4178,2.3812,2.3607,2.3026,2.2365,2.1764,2.1323,2.1217,2.1368,4.5895,4.5895,4.5895,4.5895,4.5895,4.5895,4.5895,4.5895,4.5895,4.5895,4.5895,4.5895,4.5895,4.5895,4.5895,4.5895,4.5895,4.5895,4.6156,4.6156,4.6243,4.6417,4.6534,4.6475,4.6505,4.6301,4.6185,4.6156,4.5895,4.5895,4.5895,4.5895,4.5895,4.5714,4.5504,4.5298,4.5211,4.4854,4.4509,4.4121,4.3546,4.3069,4.2662,4.2386,4.2196,4.1951,4.1823,4.1563,4.1297,4.081,4.03,3.9596,3.9247,3.8841,3.8434,3.8318,3.8202,3.8202,3.8173,3.8173,3.7817,3.7585,3.6837,3.6512,3.6331,3.6093,3.5935,3.5906,3.6014,3.5784,3.5439,3.5295,3.4753,3.4085,3.3684,3.341,3.298,3.2687,3.24,3.2082,3.1706,3.1086,3.0482,3.0216,2.9973,2.9883,2.9793,2.9541,2.9252,2.9151,2.8976,2.8624,2.8323,2.8072,2.7695,2.7354,2.7102,2.6826,2.6634,2.651,2.6375,2.6081,2.5877,2.5574,2.5192,2.4809,2.4334,2.3968,2.3843,2.3743,2.3398,2.2869,2.2395,2.2316,2.2365,4.5895,4.5895,4.5895,4.5895,4.5895,4.5895,4.5895,4.5895,4.5895,4.5895,4.5895,4.5895,4.5895,4.5895,4.5895,4.5895,4.5895,4.5895,4.6243,4.6546,4.6604,4.7056,4.7404,4.7521,4.7201,4.6969,4.6749,4.6592,4.6011,4.5895,4.5895,4.5895,4.5895,4.585,4.5776,4.5776,4.5673,4.5441,4.5181,4.4775,4.4327,4.3704,4.3211,4.2847,4.2498,4.2237,4.2051,4.1906,4.1657,4.1326,4.1018,4.0292,3.9741,3.9276,3.8812,3.8463,3.8318,3.8202,3.8202,3.8202,3.8202,3.7999,3.7622,3.7418,3.7179,3.6881,3.6758,3.6671,3.67,3.6505,3.6309,3.5825,3.5315,3.4801,3.4323,3.3908,3.3459,3.3122,3.2909,3.2588,3.2228,3.168,3.1011,3.0596,3.0292,3.0062,3.0011,2.987,2.963,2.9603,2.9402,2.9126,2.885,2.8637,2.8298,2.7896,2.7419,2.7143,2.6876,2.6728,2.6655,2.6575,2.6336,2.6011,2.5506,2.5044,2.4596,2.4364,2.421,2.4084,2.3934,2.3779,2.3275,2.3064,2.301,4.5895,4.5895,4.5895,4.5895,4.5895,4.5895,4.5895,4.5895,4.5895,4.5895,4.5895,4.5895,4.5895,4.5895,4.5895,4.5895,4.5895,4.5953,4.633,4.6575,4.6894,4.7288,4.7637,4.7898,4.7666,4.7579,4.7433,4.7172,4.6592,4.6214,4.5924,4.5895,4.5895,4.5895,4.5895,4.5895,4.5895,4.5837,4.5605,4.5343,4.5024,4.4443,4.3805,4.3195,4.2818,4.2498,4.2179,4.2092,4.1889,4.1802,4.1308,4.0757,4.0699,4.0118,3.9538,3.8957,3.8551,3.8202,3.8202,3.8202,3.8202,3.8202,3.7999,3.7999,3.7883,3.7709,3.7506,3.7418,3.736,3.7244,3.7012,3.6563,3.6034,3.5501,3.5027,3.4479,3.4,3.3529,3.329,3.2945,3.2616,3.2046,3.1384,3.1011,3.071,3.0406,3.0177,3.0088,2.9934,2.9856,2.9729,2.9453,2.9327,2.9126,2.8888,2.8549,2.7971,2.7469,2.7203,2.6981,2.6918,2.6865,2.6775,2.6414,2.595,2.5437,2.4913,2.476,2.4708,2.4435,2.4286,2.4239,2.4165,2.3897,2.379,4.5895,4.5895,4.5895,4.5895,4.5895,4.5895,4.5895,4.5895,4.5895,4.5895,4.5895,4.5895,4.5895,4.5895,4.5895,4.5895,4.5895,4.5924,4.633,4.7143,4.7172,4.7898,4.8246,4.8478,4.8391,4.8275,4.8072,4.7811,4.7172,4.6592,4.6214,4.5895,4.5895,4.5895,4.5895,4.5895,4.5895,4.5895,4.5808,4.5634,4.5372,4.5024,4.424,4.3602,4.3224,4.2702,4.2208,4.2121,4.2092,4.2092,4.1599,4.1337,4.1105,4.0437,4.0031,3.945,3.9015,3.8725,3.8638,3.8318,3.826,3.8202,3.8202,3.8173,3.8173,3.8057,3.8028,3.8028,3.8057,3.8028,3.7709,3.7389,3.6809,3.6257,3.5664,3.5039,3.4513,3.3956,3.3592,3.3255,3.2803,3.2264,3.179,3.1458,3.1086,3.0748,3.0482,3.033,3.0164,2.9934,2.9856,2.9654,2.9628,2.9578,2.9352,2.9076,2.8574,2.7971,2.748,2.7284,2.7232,2.7079,2.6871,2.6648,2.6399,2.5908,2.5437,2.5332,2.5201,2.4935,2.4713,2.4722,2.4704,2.4576,2.4549,4.5895,4.5895,4.5895,4.5895,4.5895,4.5895,4.5895,4.5895,4.5895,4.5895,4.5895,4.5895,4.5895,4.5895,4.5895,4.5895,4.5895,4.5924,4.6534,4.7724,4.7637,4.8217,4.9194,4.9659,4.9117,4.8885,4.8682,4.8391,4.7695,4.6911,4.6185,4.5895,4.5895,4.5895,4.5895,4.5895,4.5895,4.5895,4.5895,4.5779,4.5692,4.5256,4.4676,4.4066,4.3485,4.2847,4.2353,4.215,4.2092,4.2092,4.2005,4.1715,4.1279,4.067,4.0321,4.0002,3.9596,3.9334,3.9102,3.8754,3.8463,3.8347,3.8231,3.8202,3.8202,3.8202,3.8202,3.8202,3.8173,3.8173,3.7941,3.7738,3.7302,3.6838,3.6309,3.5774,3.5264,3.4651,3.4041,3.3642,3.3114,3.2588,3.2336,3.1973,3.1606,3.1198,3.0936,3.0748,3.047,3.0203,3.0011,2.9895,2.9779,2.9729,2.9628,2.9352,2.9038,2.8549,2.7971,2.7597,2.7548,2.7276,2.7,2.6881,2.6817,2.6452,2.6086,2.5955,2.5725,2.5402,2.5236,2.5229,2.5217,2.5145,2.4961,4.5895,4.5895,4.5895,4.5895,4.5895,4.5895,4.5895,4.5895,4.5895,4.5895,4.5895,4.5895,4.5895,4.5895,4.5895,4.5895,4.5895,4.5953,4.6679,4.7433,4.7782,4.8478,4.9514,4.9717,4.9553,4.9524,4.9291,4.874,4.7695,4.6766,4.6098,4.5895,4.5895,4.5895,4.5895,4.5895,4.5895,4.5895,4.5895,4.5895,4.5808,4.5721,4.5343,4.4676,4.4008,4.334,4.2818,4.2295,4.2179,4.2092,4.2092,4.1976,4.186,4.1221,4.0902,4.0757,4.0263,3.9973,3.9712,3.9363,3.9015,3.8754,3.8609,3.8347,3.8202,3.8202,3.8202,3.8202,3.8202,3.8202,3.8173,3.7999,3.7796,3.7389,3.6954,3.6483,3.6012,3.5286,3.4536,3.4,3.348,3.3114,3.283,3.248,3.2082,3.179,3.1532,3.131,3.0936,3.066,3.0356,3.0203,2.9856,2.9793,2.9767,2.9654,2.9352,2.9038,2.8574,2.8214,2.7889,2.767,2.7426,2.7364,2.7229,2.6896,2.6634,2.653,2.6306,2.5923,2.584,2.5895,2.5828,2.5762,2.542,4.5895,4.5895,4.5895,4.5895,4.5895,4.5895,4.5895,4.5895,4.5895,4.5895,4.5895,4.5895,4.5895,4.5895,4.5895,4.5895,4.5895,4.5895,4.6708,4.7462,4.7956,4.8624,4.9204,4.9746,4.9717,4.9688,4.9262,4.8566,4.7433,4.6853,4.6301,4.5953,4.5895,4.5895,4.5895,4.5895,4.5895,4.5895,4.5895,4.5895,4.5895,4.5808,4.5547,4.4908,4.4298,4.3689,4.305,4.244,4.2179,4.2092,4.2092,4.2092,4.2005,4.1744,4.157,4.1366,4.0989,4.0525,4.035,4.0031,3.9625,3.9421,3.9044,3.8783,3.8609,3.858,3.8231,3.8202,3.8202,3.8202,3.8202,3.8086,3.8028,3.7767,3.7302,3.6802,3.636,3.5725,3.5129,3.4651,3.4136,3.3748,3.3416,3.298,3.2588,3.2191,3.1946,3.179,3.1458,3.1123,3.0849,3.0508,3.0241,2.9895,2.9754,2.9729,2.9628,2.9377,2.9101,2.8543,2.8094,2.798,2.7915,2.7673,2.7516,2.7366,2.7157,2.7,2.6739,2.6385,2.6443,2.6587,2.6497,2.6378,2.6069,4.5895,4.5895,4.5895,4.5895,4.5895,4.5895,4.5895,4.5895,4.5895,4.5895,4.5895,4.5895,4.5895,4.5895,4.5895,4.5895,4.5953,4.6127,4.6882,4.755,4.7927,4.8711,4.932,4.9746,4.9582,4.9291,4.8856,4.7985,4.6894,4.6563,4.6243,4.5953,4.5895,4.5895,4.5895,4.5895,4.5895,4.5895,4.5895,4.5895,4.5895,4.5866,4.5547,4.5024,4.4414,4.3805,4.3166,4.2644,4.2295,4.2092,4.2092,4.2092,4.2092,4.2005,4.2005,4.1802,4.1541,4.125,4.1076,4.0612,4.035,4.0089,3.9625,3.9305,3.916,3.8928,3.858,3.8434,3.8434,3.826,3.826,3.8231,3.8202,3.8115,3.7622,3.7186,3.6736,3.6288,3.5848,3.5344,3.4938,3.4484,3.403,3.36,3.3198,3.2742,3.2408,3.2191,3.1973,3.1643,3.131,3.0973,3.0634,3.0318,2.9934,2.9831,2.9845,2.9692,2.9378,2.8757,2.8298,2.8274,2.8124,2.7837,2.7646,2.7549,2.7464,2.7333,2.7079,2.6817,2.7082,2.7227,2.7081,2.6938,2.6691,4.5895,4.5895,4.5895,4.5895,4.5895,4.5895,4.5895,4.5895,4.5895,4.5895,4.5895,4.5895,4.5895,4.5895,4.5895,4.5924,4.6098,4.6359,4.6998,4.7724,4.8217,4.8943,4.9407,4.9524,4.932,4.8856,4.8275,4.755,4.6708,4.6272,4.604,4.5895,4.5895,4.5895,4.5895,4.5895,4.5895,4.5895,4.5895,4.5895,4.5895,4.5866,4.5866,4.5459,4.5053,4.4443,4.3805,4.3166,4.2615,4.2266,4.2092,4.2092,4.2092,4.2092,4.2092,4.2063,4.1831,4.1802,4.1541,4.1192,4.096,4.0844,4.0408,3.9944,3.9828,3.977,3.9479,3.9334,3.916,3.8551,3.8434,3.8347,3.8318,3.8231,3.7912,3.7622,3.7237,3.6997,3.6736,3.6288,3.5834,3.5375,3.4874,3.4497,3.408,3.3648,3.3246,3.3004,3.2581,3.22,3.1853,3.1458,3.1123,3.0596,3.0164,3.0062,2.9999,2.9896,2.977,2.94,2.9016,2.8594,2.8404,2.8255,2.7915,2.768,2.762,2.7673,2.7497,2.7354,2.7729,2.7872,2.7696,2.7529,2.7313]}]]